[[{"header":{"parameterUnit":"m.s-1","parameterCategory":1,"la1":30.6,"la2":28.766,"lo1":-90.7593,"lo2":-88.6598,"dy":0.0162,"dx":0.0183,"nx":116,"ny":114,"refTime":"2024-03-10T12:00:00:Z","depth":0,"parameterNumber":2,"parameterNumberName":"U-component_of_WINDS"},"data":[0.0,0.0,0.0,0.0,0.0,0.0,0.0,0.0,0.0,0.0,0.0,0.0,0.0,0.0,0.0,0.0,0.0,0.0,0.0,0.0,0.0,0.0,0.0,0.0,0.0,0.0,0.0,0.0,0.0,0.0,0.0,0.0,0.0,0.0,0.0,0.0,0.0,0.0,0.0,0.0,0.0,0.0,0.0,0.0,0.0,0.0,0.0,0.0,0.0,0.0,0.0,0.0,0.0,0.0,0.0,0.0,0.0,0.0,0.0,0.0,0.0,0.0,0.0,0.0,0.0,0.0,0.0,0.0,0.0,0.0,0.0,0.0,0.0,0.0,0.0,0.0,0.0,0.0,0.0,0.0,0.0,0.0,0.0,0.0,0.0,0.0,0.0,0.0,0.0,0.0,0.0,0.0,0.0,0.0,0.0,0.0,0.0,0.0,0.0,0.0,0.0,0.0,0.0,0.0,0.0,0.0,0.0,0.0,0.0,0.0,0.0,0.0,0.0,0.0,0.0,0.0,0.0,0.0,0.0,0.0,0.0,0.0,0.0,0.0,0.0,0.0,0.0,0.0,0.0,0.0,0.0,0.0,0.0,0.0,0.0,0.0,0.0,0.0,0.0,0.0,0.0,0.0,0.0,0.0,0.0,0.0,0.0,0.0,0.0,0.0,0.0,0.0,0.0,0.0,0.0,0.0,0.0,0.0,0.0,0.0,0.0,0.0,0.0,0.0,0.0,0.0,0.0,0.0,0.0,0.0,0.0,0.0,0.0,0.0,0.0,0.0,0.0,0.0,0.0,0.0,0.0,0.0,0.0,0.0,0.0,0.0,0.0,0.0,0.0,0.0,0.0,0.0,0.0,0.0,0.0,0.0,0.0,0.0,0.0,0.0,0.0,0.0,0.0,0.0,0.0,0.0,0.0,0.0,0.0,0.0,0.0,0.0,0.0,0.0,0.0,0.0,0.0,0.0,0.0,0.0,0.0,0.0,0.0,0.0,0.0,0.0,0.0,0.0,0.0,0.0,0.0,0.0,0.0,0.0,0.0,0.0,0.0,0.0,0.0,0.0,0.0,0.0,0.0,0.0,0.0,0.0,0.0,0.0,0.0,0.0,0.0,0.0,0.0,0.0,0.0,0.0,0.0,0.0,0.0,0.0,0.0,0.0,0.0,0.0,0.0,0.0,0.0,0.0,0.0,0.0,0.0,0.0,0.0,0.0,0.0,0.0,0.0,0.0,0.0,0.0,0.0,0.0,0.0,0.0,0.0,0.0,0.0,0.0,0.0,0.0,0.0,0.0,0.0,0.0,0.0,0.0,0.0,0.0,0.0,0.0,0.0,0.0,0.0,0.0,0.0,0.0,0.0,0.0,0.0,0.0,0.0,0.0,0.0,0.0,0.0,0.0,0.0,0.0,0.0,0.0,0.0,0.0,0.0,0.0,0.0,0.0,0.0,0.0,0.0,0.0,0.0,0.0,0.0,0.0,0.0,0.0,0.0,0.0,0.0,0.0,0.0,0.0,0.0,0.0,0.0,0.0,0.0,0.0,0.0,0.0,0.0,0.0,0.0,0.0,0.0,0.0,0.0,0.0,0.0,0.0,0.0,0.0,0.0,0.0,0.0,0.0,0.0,0.0,0.0,0.0,0.0,0.0,0.0,0.0,0.0,0.0,0.0,0.0,0.0,0.0,0.0,0.0,0.0,0.0,0.0,0.0,0.0,0.0,0.0,0.0,0.0,0.0,0.0,0.0,0.0,0.0,0.0,0.0,0.0,0.0,0.0,0.0,0.0,0.0,0.0,0.0,0.0,0.0,0.0,0.0,0.0,0.0,0.0,0.0,0.0,0.0,0.0,0.0,0.0,0.0,0.0,0.0,0.0,0.0,0.0,0.0,0.0,0.0,0.0,0.0,0.0,0.0,0.0,0.0,0.0,0.0,0.0,0.0,0.0,0.0,0.0,0.0,0.0,0.0,0.0,0.0,0.0,0.0,0.0,0.0,0.0,0.0,0.0,0.0,0.0,0.0,0.0,0.0,0.0,0.0,0.0,0.0,0.0,0.0,0.0,0.0,0.0,0.0,0.0,0.0,0.0,0.0,0.0,0.0,0.0,0.0,0.0,0.0,0.0,0.0,0.0,0.0,0.0,0.0,0.0,0.0,0.0,0.0,0.0,0.0,0.0,0.0,0.0,0.0,0.0,0.0,0.0,0.0,0.0,0.0,0.0,0.0,0.0,0.0,0.0,0.0,0.0,0.0,0.0,0.0,0.0,0.0,0.0,0.0,0.0,0.0,0.0,0.0,0.0,0.0,0.0,0.0,0.0,0.0,0.0,0.0,0.0,0.0,0.0,0.0,0.0,0.0,0.0,0.0,0.0,0.0,0.0,0.0,0.0,0.0,0.0,0.0,0.0,0.0,0.0,0.0,0.0,0.0,0.0,0.0,0.0,0.0,0.0,0.0,0.0,0.0,0.0,0.0,0.0,0.0,0.0,0.0,0.0,0.0,0.0,0.0,0.0,0.0,0.0,0.0,0.0,0.0,0.0,0.0,0.0,0.0,0.0,0.0,0.0,0.0,0.0,0.0,0.0,0.0,0.0,0.0,0.0,0.0,0.0,0.0,0.0,0.0,0.0,0.0,0.0,0.0,0.0,0.0,0.0,0.0,0.0,0.0,0.0,0.0,0.0,0.0,0.0,0.0,0.0,0.0,0.0,0.0,0.0,0.0,0.0,0.0,0.0,0.0,0.0,0.0,0.0,0.0,0.0,0.0,0.0,0.0,0.0,0.0,0.0,0.0,0.0,0.0,0.0,0.0,0.0,0.0,0.0,0.0,0.0,0.0,0.0,0.0,0.0,0.0,0.0,0.0,0.0,0.0,0.0,0.0,0.0,0.0,0.0,0.0,0.0,0.0,0.0,0.0,0.0,0.0,0.0,0.0,0.0,0.0,0.0,0.0,0.0,0.0,0.0,0.0,0.0,0.0,0.0,0.0,0.0,0.0,0.0,0.0,0.0,0.0,0.0,0.0,0.0,0.0,0.0,0.0,0.0,0.0,0.0,0.0,0.0,0.0,0.0,0.0,0.0,0.0,0.0,0.0,0.0,0.0,0.0,0.0,0.0,0.0,0.0,0.0,0.0,0.0,0.0,0.0,0.0,0.0,0.0,0.0,0.0,0.0,0.0,0.0,0.0,0.0,0.0,0.0,0.0,0.0,0.0,0.0,0.0,0.0,0.0,0.0,0.0,0.0,0.0,0.0,0.0,0.0,0.0,0.0,0.0,0.0,0.0,0.0,0.0,0.0,0.0,0.0,0.0,0.0,0.0,0.0,0.0,0.0,0.0,0.0,0.0,0.0,0.0,0.0,0.0,0.0,0.0,0.0,0.0,0.0,0.0,0.0,0.0,0.0,0.0,0.0,0.0,0.0,0.0,0.0,0.0,0.0,0.0,0.0,0.0,0.0,0.0,0.0,0.0,0.0,0.0,0.0,0.0,0.0,0.0,0.0,0.0,0.0,0.0,0.0,0.0,0.0,0.0,0.0,0.0,0.0,0.0,0.0,0.0,0.0,0.0,0.0,0.0,0.0,0.0,0.0,0.0,0.0,0.0,0.0,0.0,0.0,0.0,0.0,0.0,0.0,0.0,0.0,0.0,0.0,0.0,0.0,0.0,0.0,0.0,0.0,0.0,0.0,0.0,0.0,0.0,0.0,0.0,0.0,0.0,0.0,0.0,0.0,0.0,0.0,0.0,0.0,0.0,0.0,0.0,0.0,0.0,0.0,0.0,0.0,0.0,0.0,0.0,0.0,0.0,0.0,0.0,0.0,0.0,0.0,0.0,0.0,0.0,0.0,0.0,0.0,0.0,0.0,0.0,0.0,0.0,0.0,0.0,0.0,0.0,0.0,0.0,0.0,0.0,0.0,0.0,0.0,0.0,0.0,0.0,0.0,0.0,0.0,0.0,0.0,0.0,0.0,0.0,0.0,0.0,0.0,0.0,0.0,0.0,0.0,0.0,0.0,0.0,0.0,0.0,0.0,0.0,0.0,0.0,0.0,0.0,0.0,0.0,0.0,0.0,0.0,0.0,0.0,0.0,0.0,0.0,0.0,0.0,0.0,0.0,0.0,0.0,0.0,0.0,0.0,0.0,0.0,0.0,0.0,0.0,0.0,0.0,0.0,0.0,0.0,0.0,0.0,0.0,0.0,0.0,0.0,0.0,0.0,0.0,0.0,0.0,0.0,0.0,0.0,0.0,0.0,0.0,0.0,0.0,0.0,0.0,0.0,0.0,0.0,0.0,0.0,0.0,0.0,0.0,0.0,0.0,0.0,0.0,0.0,0.0,0.0,0.0,0.0,0.0,0.0,0.0,0.0,0.0,0.0,0.0,0.0,0.0,0.0,0.0,0.0,0.0,0.0,0.0,0.0,0.0,0.0,0.0,0.0,0.0,0.0,0.0,0.0,0.0,0.0,0.0,0.0,0.0,0.0,0.0,0.0,0.0,0.0,0.0,0.0,0.0,0.0,0.0,0.0,0.0,0.0,0.0,0.0,0.0,0.0,0.0,0.0,0.0,0.0,0.0,0.0,0.0,0.0,0.0,0.0,0.0,0.0,0.0,0.0,0.0,0.0,0.0,0.0,0.0,0.0,0.0,0.0,0.0,0.0,0.0,0.0,0.0,0.0,0.0,0.0,0.0,0.0,0.0,0.0,0.0,0.0,0.0,0.0,0.0,0.0,0.0,0.0,0.0,0.0,0.0,0.0,0.0,0.0,0.0,0.0,0.0,0.0,0.0,0.0,0.0,0.0,0.0,0.0,0.0,0.0,0.0,0.0,0.0,0.0,0.0,0.0,0.0,0.0,0.0,0.0,0.0,0.0,0.0,0.0,0.0,0.0,0.0,0.0,0.0,0.0,0.0,0.0,0.0,0.0,0.0,0.0,0.0,0.0,0.0,0.0,0.0,0.0,0.0,0.0,0.0,0.0,0.0,0.0,0.0,0.0,0.0,0.0,0.0,0.0,0.0,0.0,0.0,0.0,0.0,0.0,0.0,0.0,0.0,0.0,0.0,0.0,0.0,0.0,0.0,0.0,0.0,0.0,0.0,0.0,0.0,0.0,0.0,0.0,0.0,0.0,0.0,0.0,0.0,0.0,0.0,0.0,0.0,0.0,0.0,0.0,0.0,0.0,0.0,0.0,0.0,0.0,0.0,0.0,0.0,0.0,0.0,0.0,0.0,0.0,0.0,0.0,0.0,0.0,0.0,0.0,0.0,0.0,0.0,0.0,0.0,0.0,0.0,0.0,0.0,0.0,0.0,0.0,0.0,0.0,0.0,0.0,0.0,0.0,0.0,0.0,0.0,0.0,0.0,0.0,0.0,0.0,0.0,0.0,0.0,0.0,0.0,0.0,0.0,0.0,0.0,0.0,0.0,0.0,0.0,0.0,0.0,0.0,0.0,0.0,0.0,0.0,0.0,0.0,0.0,0.0,0.0,0.0,0.0,0.0,0.0,0.0,0.0,0.0,0.0,0.0,0.0,0.0,0.0,0.0,0.0,0.0,0.0,0.0,0.0,0.0,0.0,0.0,0.0,0.0,0.0,0.0,0.0,0.0,0.0,0.0,0.0,0.0,0.0,0.0,0.0,0.0,0.0,0.0,0.0,0.0,0.0,0.0,0.0,0.0,0.0,0.0,0.0,0.0,0.0,0.0,0.0,0.0,0.0,0.0,0.0,0.0,0.0,0.0,0.0,0.0,0.0,0.0,0.0,0.0,0.0,0.0,0.0,0.0,0.0,0.0,0.0,0.0,0.0,0.0,0.0,0.0,0.0,0.0,0.0,0.0,0.0,0.0,0.0,0.0,0.0,0.0,0.0,0.0,0.0,0.0,0.0,0.0,0.0,0.0,0.0,0.0,0.0,0.0,0.0,0.0,0.0,0.0,0.0,0.0,0.0,0.0,0.0,0.0,0.0,0.0,0.0,0.0,0.0,0.0,0.0,0.0,0.0,0.0,0.0,0.0,0.0,0.0,0.0,0.0,0.0,0.0,0.0,0.0,0.0,0.0,0.0,0.0,0.0,0.0,0.0,0.0,0.0,0.0,0.0,0.0,0.0,0.0,-0.637,0.0,0.0,0.0,0.0,0.0,0.0,0.0,0.0,0.0,0.0,0.0,0.0,0.0,0.0,0.0,0.0,0.0,0.0,0.0,0.0,0.0,0.0,0.0,0.0,0.0,0.0,0.0,-0.8614,-0.8864,-0.8905,-0.8731,-0.8394,-0.786,-0.8064,-0.7824,-0.7002,-0.7483,-0.7718,-0.7693,-0.7954,-0.8396,-0.8946,-0.8659,0.0,0.0,0.0,0.0,0.0,0.0,0.0,0.0,0.0,0.0,0.0,0.0,0.0,0.0,0.0,0.0,0.0,0.0,0.0,0.0,0.0,0.0,0.0,0.0,0.0,0.0,0.0,0.0,0.0,0.0,0.0,0.0,0.0,0.0,0.0,0.0,0.0,0.0,0.0,0.0,0.0,0.0,0.0,0.0,0.0,0.0,0.0,0.0,0.0,0.0,0.0,0.0,0.0,0.0,0.0,0.0,0.0,0.0,0.0,0.0,0.0,0.0,0.0,0.0,0.0,0.0,0.0,0.0,0.0,0.0,0.0,0.0,0.0,-0.7614,0.0,0.0,0.0,0.0,0.0,0.0,0.0,0.0,0.0,0.0,0.0,0.0,0.0,0.0,0.0,0.0,0.0,0.0,0.0,0.0,0.0,0.0,0.0,-0.8453,-0.8509,-0.8575,-0.8673,-0.8784,-0.8905,-0.8496,-0.8239,-0.8211,-0.8304,-0.8072,-0.747,-0.805,-0.8317,-0.8229,-0.866,-0.9412,-1.0508,0.0,0.0,0.0,0.0,0.0,0.0,0.0,0.0,0.0,0.0,0.0,0.0,0.0,0.0,0.0,0.0,0.0,0.0,0.0,0.0,0.0,0.0,0.0,0.0,0.0,0.0,0.0,0.0,0.0,0.0,0.0,0.0,0.0,0.0,0.0,0.0,0.0,0.0,0.0,0.0,0.0,0.0,0.0,0.0,0.0,0.0,0.0,0.0,0.0,0.0,0.0,0.0,0.0,0.0,0.0,0.0,0.0,0.0,0.0,0.0,0.0,0.0,0.0,0.0,0.0,0.0,0.0,-1.0419,-1.0636,-1.0535,-1.0555,-1.0429,-1.0137,-0.9039,-0.9051,-0.973,-0.8353,0.0,0.0,0.0,0.0,0.0,0.0,0.0,0.0,0.0,0.0,0.0,0.0,0.0,0.0,0.0,0.0,0.0,0.0,0.0,0.0,0.0,-0.869,-0.8756,-0.8526,-0.8742,-0.8905,-0.8983,-0.8926,-0.8675,-0.8223,-0.8697,-0.8697,-0.8096,-0.8674,-0.917,-0.9551,-1.057,-1.1386,-1.2037,-1.2988,-1.3214,-1.2822,-1.1965,0.0,0.0,0.0,0.0,0.0,0.0,0.0,0.0,0.0,0.0,0.0,0.0,0.0,0.0,0.0,0.0,0.0,0.0,0.0,0.0,0.0,0.0,0.0,0.0,0.0,0.0,0.0,0.0,0.0,0.0,0.0,0.0,0.0,0.0,0.0,0.0,0.0,0.0,0.0,0.0,0.0,0.0,0.0,-0.8522,-0.8939,0.0,0.0,0.0,0.0,0.0,0.0,0.0,0.0,0.0,0.0,0.0,0.0,0.0,-0.9318,-0.9866,-1.0725,-1.1055,-1.0832,-1.1549,-1.2017,-1.2258,-1.2402,-1.2629,-1.2907,-1.1714,0.0,-1.04,-1.0468,0.0,0.0,0.0,0.0,0.0,0.0,0.0,0.0,0.0,0.0,0.0,0.0,0.0,0.0,0.0,0.0,0.0,0.0,0.0,0.0,0.0,-0.9157,-0.9573,-0.9577,-1.0473,-1.0707,-0.9886,-1.0133,-0.9828,-0.8754,-0.8966,-0.8977,-0.8708,-0.8966,-0.975,-1.1096,-1.269,-1.3786,-1.4391,-1.5177,-1.5348,-1.4967,-1.4542,-1.3625,-1.2404,-1.2288,0.0,0.0,0.0,0.0,0.0,0.0,0.0,0.0,0.0,0.0,0.0,0.0,0.0,0.0,0.0,0.0,0.0,0.0,0.0,0.0,0.0,0.0,0.0,0.0,0.0,0.0,0.0,0.0,0.0,0.0,0.0,0.0,0.0,0.0,0.0,0.0,0.0,0.0,0.0,-0.8566,-0.9469,-0.9837,-0.981,-0.9296,0.0,0.0,0.0,0.0,0.0,0.0,0.0,0.0,0.0,-1.0193,-1.0612,-1.1124,-1.1764,-1.2369,-1.283,-1.3151,-1.3816,-1.4183,-1.4328,-1.4404,-1.4408,-1.4316,-1.3789,-1.3388,-1.303,-1.1481,-1.1196,-1.1726,0.0,0.0,0.0,0.0,-1.1124,-1.0786,0.0,0.0,0.0,0.0,0.0,0.0,0.0,0.0,0.0,0.0,0.0,0.0,-0.9226,-1.0183,-1.0984,-1.1399,-1.2336,-1.2343,-1.1022,-1.1034,-1.0532,-0.9275,-0.9217,-0.9261,-0.9375,-0.9907,-1.1029,-1.2778,-1.4677,-1.5873,-1.639,-1.7255,-1.7408,-1.6931,-1.7104,-1.5777,-1.3426,-1.3296,-1.2889,0.0,0.0,0.0,0.0,0.0,0.0,0.0,0.0,0.0,0.0,0.0,0.0,0.0,0.0,0.0,0.0,0.0,0.0,0.0,0.0,0.0,0.0,0.0,0.0,0.0,0.0,0.0,0.0,0.0,0.0,0.0,0.0,0.0,0.0,0.0,0.0,0.0,0.0,-0.9655,-1.0528,-1.1013,-1.0975,-1.0592,0.0,0.0,0.0,0.0,0.0,0.0,-0.9756,-1.0891,-1.1635,-1.1801,-1.2462,-1.3099,-1.3704,-1.4273,-1.4813,-1.5345,-1.5875,-1.6138,-1.6219,-1.6101,-1.5945,-1.5719,-1.559,-1.5574,-1.5447,-1.2893,-1.2278,-1.2914,-1.2837,-1.263,-1.2392,-1.2561,-1.2522,-1.2415,0.0,0.0,0.0,0.0,0.0,0.0,0.0,0.0,0.0,0.0,0.0,-0.9864,-1.0945,-1.208,-1.3145,-1.4109,-1.3748,-1.3074,-1.2173,-1.1119,-1.0255,-0.9613,-0.9514,-0.9689,-1.0135,-1.2087,-1.3588,-1.4573,-1.6391,-1.7342,-1.7464,-1.9007,-1.9265,-1.8415,-1.9005,-1.7637,-1.4857,-1.4358,-1.3812,-1.3236,0.0,0.0,0.0,0.0,0.0,0.0,0.0,0.0,0.0,0.0,0.0,0.0,0.0,0.0,0.0,0.0,0.0,0.0,0.0,0.0,0.0,0.0,0.0,0.0,0.0,0.0,0.0,0.0,0.0,0.0,0.0,0.0,0.0,0.0,0.0,0.0,0.0,0.0,0.0,-1.2759,-1.2533,0.0,0.0,0.0,0.0,-1.1681,-1.1829,-1.2173,-1.2752,-1.2323,-1.2636,-1.3906,-1.4462,-1.5017,-1.5553,-1.6477,-1.6878,-1.679,-1.707,-1.7403,-1.7674,-1.7232,-1.7255,-1.7627,-1.7198,-1.6937,-1.6719,-1.5469,-1.5035,-1.5126,-1.5066,-1.503,-1.4918,-1.425,-1.4472,-1.4918,0.0,0.0,0.0,0.0,0.0,0.0,0.0,0.0,-0.8859,-0.893,-0.9862,-1.0816,-1.1578,-1.4199,-1.5911,-1.582,-1.6633,-1.6406,-1.4625,-1.3127,-1.2092,-1.1615,-1.0783,-1.0736,-1.16,-1.3915,-1.5392,-1.5989,-1.779,-1.9017,-1.9705,-2.0424,-2.0564,-2.0322,-2.0653,-1.996,-1.8428,-1.6366,-1.4949,-1.4038,-1.3319,-1.2562,0.0,0.0,0.0,0.0,0.0,0.0,0.0,0.0,0.0,0.0,0.0,0.0,0.0,0.0,0.0,0.0,0.0,0.0,0.0,0.0,0.0,0.0,0.0,0.0,0.0,0.0,0.0,0.0,0.0,0.0,0.0,0.0,0.0,0.0,0.0,0.0,0.0,-1.3065,-1.3113,0.0,-1.3884,-1.348,-1.301,-1.2636,-1.4149,-1.4877,-1.4445,-1.5606,-1.6367,-1.6548,-1.6809,-1.7182,-1.7617,-1.7661,-1.7913,-1.8377,-1.8469,-1.859,-1.8713,-1.8525,-1.8372,-1.8231,-1.8069,-1.8029,-1.8006,-1.7146,-1.6561,-1.623,-1.6548,-1.6476,-1.622,-1.6606,-1.674,-1.6681,0.0,0.0,0.0,0.0,0.0,0.0,0.0,0.0,-0.9026,-0.9145,-1.0596,-1.2098,-1.3446,-1.6397,-1.8434,-1.8792,-1.9146,-1.8407,-1.621,-1.4318,-1.2864,-1.196,-1.179,-1.242,-1.3913,-1.6033,-1.7559,-1.8407,-1.9613,-2.0652,-2.1497,-2.1774,-2.1886,-2.1897,-2.2347,-2.216,-2.13,-1.9009,-1.7077,-1.5468,-1.444,-1.3552,-1.2744,0.0,0.0,0.0,0.0,0.0,0.0,0.0,0.0,0.0,0.0,0.0,0.0,0.0,0.0,0.0,0.0,0.0,0.0,0.0,0.0,0.0,0.0,0.0,0.0,0.0,0.0,0.0,0.0,0.0,0.0,0.0,0.0,0.0,0.0,0.0,-1.2925,-1.374,-1.4244,-1.4794,-1.5492,-1.5446,-1.523,-1.4856,-1.6786,-1.7526,-1.6541,-1.806,-1.8706,-1.8138,-1.8401,-1.8667,-1.8945,-1.8858,-1.9123,-1.9726,-1.9726,-1.9726,-1.9726,-1.9726,-1.946,-1.8998,-1.9115,-1.9153,-1.9031,-1.8684,-1.8277,-1.7869,-1.7592,-1.7411,-1.7327,-1.7767,-1.7988,-1.8117,0.0,0.0,0.0,0.0,0.0,0.0,0.0,-0.8853,-0.9086,-0.9629,-1.142,-1.3729,-1.6572,-1.8646,-2.0718,-2.2957,-2.099,-1.8808,-1.68,-1.4462,-1.2374,-1.0571,-1.2494,-1.4686,-1.7054,-1.8536,-2.011,-2.179,-2.1835,-2.219,-2.2821,-2.3181,-2.3235,-2.3141,-2.4029,-2.4011,-2.3276,-2.222,-2.0227,-1.7616,-1.5756,-1.4984,-1.4736,0.0,0.0,0.0,0.0,0.0,0.0,0.0,0.0,0.0,0.0,0.0,0.0,0.0,0.0,0.0,0.0,0.0,0.0,0.0,0.0,0.0,0.0,0.0,0.0,0.0,0.0,0.0,0.0,0.0,0.0,0.0,0.0,0.0,-1.0687,-1.3006,-1.4868,-1.4996,-1.6042,-1.7034,-1.7788,-1.8386,-1.8657,-1.8459,-1.9593,-1.9907,-1.9078,-1.9462,-1.937,-1.8662,-1.9129,-1.9411,-1.9411,-2.0138,-2.0562,-2.0712,-2.0725,-2.0725,-2.0712,-2.0725,-2.0498,-2.0043,-2.0377,-2.025,-1.9854,-2.0089,-2.0182,-2.0041,-1.8249,-1.7911,-1.8367,-1.7708,-1.821,-1.9181,0.0,0.0,0.0,0.0,0.0,0.0,0.0,-0.8673,-0.892,-0.9614,-1.2031,-1.4425,-1.6403,-1.9987,-2.2254,-2.2335,-2.1189,-1.9821,-1.8303,-1.4657,-1.2618,-1.2792,-1.487,-1.7061,-1.9256,-2.0786,-2.2255,-2.3715,-2.3401,-2.4109,-2.5725,-2.4623,-2.4558,-2.5385,-2.5011,-2.473,-2.4486,-2.3685,-2.2724,-2.1488,-1.8529,-1.6766,-1.5768,0.0,0.0,0.0,0.0,0.0,0.0,0.0,0.0,0.0,0.0,0.0,0.0,0.0,0.0,0.0,0.0,0.0,0.0,0.0,0.0,0.0,0.0,0.0,0.0,0.0,0.0,0.0,0.0,0.0,0.0,0.0,-1.3089,-1.4046,-1.3325,-1.4538,-1.6017,-1.7349,-1.7763,-1.8187,-1.8888,-1.9248,-1.9427,-1.9409,-1.9826,-1.9978,-1.9747,-1.9773,-1.9673,-1.9469,-1.9625,-1.9751,-1.9834,-2.0324,-2.0674,-2.0838,-2.1499,-2.146,-2.0851,-2.1386,-2.1228,-2.0501,-2.0608,-2.057,-2.0425,-1.9955,-2.001,-2.032,-1.9175,-1.9066,-1.9472,-1.8806,-1.9032,-1.9522,0.0,0.0,0.0,0.0,0.0,0.0,0.0,-0.86,-0.8954,-0.9951,-1.2639,-1.5217,-1.7138,-2.0336,-2.231,-2.2146,-2.0948,-1.9379,-1.7412,-1.4454,-1.3516,0.0,0.0,-1.9408,-2.1484,-2.3207,-2.4666,-2.587,-2.5649,-2.6193,-2.7496,-2.6432,-2.6288,-2.6997,-2.6422,-2.6045,-2.5817,-2.5166,-2.4503,-2.3692,-2.1538,-1.9684,-1.8094,-1.7366,-1.6449,-1.5512,-1.5238,-1.4701,-1.3907,-1.2457,0.0,0.0,0.0,0.0,0.0,0.0,0.0,0.0,0.0,0.0,0.0,0.0,0.0,0.0,0.0,0.0,0.0,0.0,0.0,0.0,0.0,0.0,0.0,0.0,-1.5177,-1.7018,-1.7231,-1.7491,-1.8132,-1.9425,-1.9949,-2.0282,-2.0425,-2.0816,-2.0919,-2.0619,-2.0915,-2.0932,-2.0578,-2.0822,-2.0594,-1.974,-2.0627,-2.0885,-2.0371,-2.1139,-2.1586,-2.1703,-2.2216,-2.2151,-2.1639,-2.2048,-2.1666,-2.0688,-2.1184,-2.0963,-2.0261,-2.0525,-2.0694,0.0,0.0,0.0,0.0,0.0,-1.9547,-1.9736,0.0,0.0,0.0,0.0,0.0,0.0,0.0,-0.8586,-0.9065,-1.0423,-1.3073,-1.5682,-1.797,-1.9789,-2.1177,-2.1936,-2.0216,-1.7974,-1.5347,-1.4211,0.0,-1.7751,-1.9588,-2.1526,-2.3697,-2.5608,-2.7062,-2.804,-2.8079,-2.8322,-2.8782,-2.8325,-2.813,-2.8215,-2.7985,-2.7528,-2.7003,-2.6445,-2.57,-2.479,-2.4371,-2.2974,-2.0993,-1.9636,-1.9056,-1.8807,-1.7825,-1.6932,-1.6045,-1.4648,0.0,0.0,0.0,0.0,0.0,0.0,0.0,0.0,0.0,0.0,0.0,0.0,0.0,0.0,0.0,0.0,0.0,0.0,0.0,0.0,0.0,0.0,0.0,0.0,-1.7514,-2.0195,-2.1428,-2.0999,-2.0788,-2.1325,-2.2172,-2.2541,-2.2066,-2.2551,-2.2618,-2.1941,-2.2287,-2.2209,-2.1534,0.0,0.0,0.0,0.0,-2.2282,-2.1053,-2.2205,-2.2804,-2.2831,-2.2831,-2.2724,-2.2498,-2.2498,-2.1773,-2.0614,-2.1681,-2.1199,-1.9791,-2.1339,-2.1711,-2.1192,-2.0474,-2.0142,-2.0053,-1.9888,-1.9912,-1.9974,0.0,0.0,0.0,0.0,0.0,0.0,0.0,-0.8505,-0.8967,-1.0407,-1.2426,-1.4395,-1.6219,-1.7865,-1.9238,-2.0205,-1.8371,-1.6526,-1.5042,0.0,-1.6401,-1.9341,-2.0739,-2.2803,-2.5674,-2.694,-2.8226,-2.965,-2.9389,-2.9949,-3.1186,-2.9463,-2.9013,-2.9554,-2.8694,-2.786,-2.7146,-2.7036,-2.6501,-2.5642,-2.5554,-2.4362,-2.2546,-2.1985,-2.1203,-2.0303,-1.9779,-1.9308,-1.8645,-1.6605,-1.5774,-1.5385,-1.4168,0.0,0.0,0.0,0.0,0.0,0.0,0.0,0.0,0.0,0.0,0.0,0.0,0.0,0.0,0.0,0.0,0.0,0.0,0.0,0.0,-1.8734,-2.0337,-2.1761,-2.2652,-2.2829,-2.2954,-2.325,-2.3015,-2.2811,-2.2729,-2.2816,-2.2942,-2.3056,-2.238,-2.2151,-2.2659,-2.1912,-2.1472,-2.1452,-2.1873,-2.2042,-2.1865,-2.2484,-2.2857,-2.295,0.0,0.0,-2.1877,-2.1825,-2.1238,-2.0296,-2.0515,-2.0425,-2.0143,-2.0977,-2.165,-2.216,-2.1589,-2.1053,-2.0531,-2.0168,-2.0521,-2.1056,0.0,0.0,0.0,0.0,0.0,0.0,0.0,-0.867,-0.8926,-1.0007,-1.1664,-1.3314,-1.4796,-1.5914,-1.6753,-1.7205,-1.5744,-1.5247,0.0,-1.7156,-1.8981,-2.2075,-2.3791,-2.5581,-2.7457,-2.8852,-2.9837,-3.0392,-3.0628,-3.1046,-3.1582,-3.0535,-3.0274,-3.0595,-2.9225,-2.8597,-2.8557,-2.7701,-2.7021,-2.6539,-2.6539,-2.5713,-2.4399,-2.3996,-2.336,-2.263,-2.2437,-2.1772,-2.0796,-1.9294,-1.8281,-1.7482,-1.6585,-1.5475,-1.4289,0.0,0.0,0.0,0.0,0.0,0.0,0.0,0.0,0.0,0.0,0.0,0.0,0.0,0.0,-1.5447,-1.6557,0.0,-1.863,-2.0562,-2.1905,-2.2952,-2.3742,-2.4424,-2.457,-2.3847,-2.3418,-2.3226,-2.3288,-2.2761,-2.2683,-2.3348,-2.2006,-2.1663,-2.2832,-2.2197,-2.1786,-2.1745,-2.2844,-2.3165,-2.2599,-2.3474,-2.3729,-2.3366,-2.3825,-2.3326,-2.1969,-2.2378,-2.1824,-2.0564,-2.0937,-2.068,-2.008,-2.1022,-2.2013,-2.2904,-2.2655,-2.2125,-2.1446,-2.0974,-2.1098,-2.1433,0.0,0.0,0.0,0.0,0.0,0.0,0.0,-0.8811,-0.8965,-0.9629,-1.0924,-1.2229,-1.3359,-1.387,-1.4098,-1.4045,-1.3459,-1.4454,0.0,-1.9029,-2.1269,-2.4778,-2.6772,-2.8115,-2.89,-3.0417,-3.1003,-3.0654,-3.1399,-3.1619,-3.131,-3.1272,-3.1235,-3.1198,-2.9845,-2.9471,-2.9833,-2.849,-2.7742,-2.7458,-2.7487,-2.6928,-2.608,-2.5665,-2.5165,-2.4675,-2.4557,-2.3583,-2.2202,-2.155,-2.0374,-1.9094,-1.8606,-1.7796,-1.6765,-1.5088,-1.4563,0.0,0.0,0.0,0.0,0.0,0.0,0.0,0.0,0.0,-1.6051,-1.6297,-1.6834,-1.7609,-1.8815,-1.9158,-1.9925,-2.201,-2.3331,-2.4147,-2.437,-2.5365,-2.539,-2.3523,-2.333,-2.346,-2.3716,-2.2558,-2.2242,-2.3412,-2.1876,-2.1579,-2.3116,-2.2905,-2.2585,-2.2285,-2.4009,-2.4392,-2.3258,-2.4393,-2.4553,-2.374,-2.4403,-2.383,-2.2224,-2.2885,-2.2303,-2.0726,-2.1318,-2.1046,-2.024,-2.1127,-2.2182,-2.3225,-2.3082,-2.274,-2.2272,-2.1933,-2.1807,-2.1807,0.0,0.0,0.0,0.0,0.0,0.0,0.0,0.0,-0.9024,-0.9691,-1.0313,-1.09,-1.1538,-1.1652,-1.1702,-1.1682,-1.2768,0.0,-1.7444,-1.8977,-2.1822,-2.6337,-2.7511,-2.8565,-2.9656,-3.0392,-3.0654,-3.0451,-3.1069,-3.1347,-3.131,-3.1123,-3.1024,-3.1024,-3.0823,-3.0381,-2.9704,-2.9537,-2.8991,-2.8267,-2.8442,-2.7947,-2.7005,-2.6685,-2.6052,-2.534,-2.4867,-2.3596,-2.2182,-2.1965,-2.0984,-1.9781,-1.9643,-1.9097,-1.8159,-1.6476,0.0,-1.4782,-1.2073,-1.1068,-1.1155,-1.2594,-1.396,-1.4975,0.0,0.0,-1.8754,-1.8735,-2.0118,-2.1699,-2.2858,-2.3829,-2.452,-2.4683,-2.5524,-2.5557,-2.3855,-2.4838,-2.4791,-2.2146,-2.2408,-2.3084,-2.3891,-2.2346,-2.1979,-2.3712,-2.2859,-2.2978,-2.4571,-2.4178,-2.416,-2.4695,-2.4664,-2.4384,-2.3823,-2.4483,-2.4482,-2.3877,-2.3736,-2.314,-2.2184,-2.2179,-2.1358,-1.9925,-2.0013,-2.0595,-2.1447,-2.1012,-2.1557,-2.2604,-2.1955,-2.1961,-2.2359,-2.2757,-2.292,-2.292,0.0,0.0,0.0,0.0,0.0,0.0,0.0,0.0,0.0,-0.9342,-0.956,-0.9955,-1.0641,-1.0758,-1.0696,-1.0507,0.0,0.0,-1.6578,-1.9046,-2.2342,-2.6782,-2.7855,-2.9123,-3.08,-3.0587,-3.0668,-3.109,-3.1228,-3.1035,-3.0545,-3.033,-3.0216,-3.019,-2.9238,-2.9121,-2.9626,-2.8676,-2.8051,-2.773,-2.7799,-2.7111,-2.5943,-2.5217,-2.4247,-2.3246,-2.3372,-2.2355,0.0,0.0,-2.0457,-1.9738,-2.0378,-1.9512,-1.8173,-1.7499,-1.5855,0.0,-1.2593,-1.3174,-1.4376,0.0,-1.7022,-1.8587,-1.9014,-2.044,-2.1744,-2.1918,-2.285,-2.3998,-2.5226,-2.4563,-2.4433,0.0,-2.5923,-2.5224,-2.4551,-2.5414,-2.4957,-2.1803,-2.1244,-2.1331,-2.184,-2.1811,-2.1979,-2.2569,-2.1999,-2.2338,-2.394,-2.3482,-2.3593,-2.4488,-2.4191,-2.41,-2.4316,-2.4372,-2.4114,-2.3558,-2.353,-2.2794,-2.1437,-2.1464,-2.1035,-2.0327,-2.0327,-2.086,-2.1703,-2.1789,-2.2106,-2.2582,-2.2242,-2.2351,-2.2638,-2.2639,-2.2832,-2.3108,0.0,0.0,0.0,0.0,0.0,0.0,0.0,0.0,0.0,0.0,-0.9108,-0.9343,-0.9904,-1.0008,-0.9948,0.0,0.0,0.0,0.0,-1.8431,-2.1887,-2.6096,-2.7661,-2.9295,-3.1095,-3.0807,-3.081,-3.1161,-3.1272,-3.0859,-2.9986,-3.0088,-3.0126,-3.0101,-2.8794,-2.8912,-2.9986,-2.8834,-2.8319,-2.8307,-2.8203,-2.7309,-2.5903,-2.4602,-2.2897,-2.1274,-2.1608,-2.0577,0.0,0.0,-1.8923,-1.8692,-1.9352,-1.8717,-1.7699,-1.7492,-1.5294,-1.3046,-1.3666,0.0,0.0,-1.7946,-1.9813,-2.1537,-2.2221,-2.321,-2.4103,-2.4584,-2.5101,-2.573,-2.6613,-2.5222,-2.4637,-2.672,-2.6011,-2.5086,-2.4906,-2.5537,-2.4769,-2.1345,-2.0423,-1.9811,-1.9058,-2.0451,-2.1643,-2.2245,-2.1851,-2.223,-2.3723,-2.301,-2.3061,-2.4075,-2.3644,-2.3544,-2.3929,-2.416,-2.3926,-2.3278,-2.3649,-2.2916,-2.1202,-2.1076,-2.107,-2.1199,-2.102,-2.1287,-2.1913,-2.2331,-2.2597,-2.2736,-2.2736,-2.2799,-2.2859,-2.258,-2.261,-2.2822,0.0,0.0,0.0,0.0,0.0,0.0,0.0,0.0,0.0,0.0,0.0,0.0,0.0,0.0,-0.9131,0.0,0.0,0.0,0.0,-1.6795,-1.9915,-2.4001,-2.6834,-2.8803,-2.9915,-3.0995,-3.1073,-3.0063,-3.0872,-3.0859,-3.0024,-3.0872,-3.1272,-3.1235,-3.0973,-3.0911,-3.0986,-3.1123,-3.1198,-3.1145,-3.0762,-2.9637,-2.7965,-2.5843,-2.3096,-2.0279,-1.9849,0.0,0.0,0.0,-1.6179,-1.638,-1.5852,-1.6349,0.0,-1.6047,-1.3948,-1.2568,0.0,0.0,-1.5769,-1.956,-2.1393,-2.2585,-2.3774,-2.4616,-2.538,-2.6232,-2.6788,-2.7088,-2.6905,-2.6833,-2.6604,-2.6036,-2.6167,-2.5872,-2.4529,-2.4788,-2.3871,-2.0462,-2.0201,-1.903,0.0,-1.8006,-2.0798,-2.3535,-2.3368,-2.3609,-2.4696,-2.3501,-2.3207,-2.4164,-2.3297,-2.2611,-2.2169,-2.3826,-2.4187,-2.3208,-2.42,-2.3702,-2.1926,-2.1105,-2.1365,-2.249,-2.1791,-2.1782,-2.2284,-2.2309,-2.2636,-2.3083,-2.3083,-2.3005,-2.2909,-2.2896,-2.2561,-2.2155,0.0,0.0,0.0,0.0,0.0,0.0,0.0,0.0,0.0,0.0,0.0,0.0,0.0,0.0,0.0,0.0,0.0,0.0,0.0,-1.4773,-1.74,-2.0508,-2.287,-2.4988,-2.686,-2.727,-2.8063,-2.9325,-2.9507,-2.9129,-2.8276,-2.8425,-2.8437,-2.8271,-2.7647,-2.7917,-2.8834,-2.8371,-2.7603,-2.6625,-2.6521,-2.5265,-2.3279,-2.1175,-1.9278,-1.7464,0.0,0.0,0.0,0.0,-1.4376,-1.4169,-1.4717,-1.4931,-1.469,-1.3206,-1.3685,-1.4831,-1.551,0.0,-1.9573,-2.1776,-2.3649,-2.5186,-2.6085,-2.6783,-2.7242,-2.7128,-2.5778,-2.4472,-2.3998,-2.2086,-2.1228,-2.3124,-2.2709,-2.2752,-2.4507,-2.3555,-2.2233,-2.1069,-2.0226,0.0,0.0,0.0,0.0,-1.9596,-2.2364,-2.3884,-2.3412,-2.3545,-2.373,-2.4041,-2.3203,-2.2845,-2.3097,-2.3849,-2.416,-2.3974,-2.3526,-2.2745,-2.1648,-2.0997,-2.128,-2.2264,-2.2018,-2.1915,-2.1984,-2.2397,-2.2717,-2.2969,-2.2969,-2.3102,-2.3213,-2.2605,-2.1956,-2.1469,0.0,0.0,0.0,0.0,0.0,0.0,0.0,0.0,0.0,0.0,0.0,0.0,0.0,0.0,0.0,0.0,0.0,0.0,0.0,0.0,-1.4874,-1.7155,-1.9265,-2.117,-2.2873,-2.3547,-2.4476,-2.5673,-2.6345,-2.6156,-2.5166,-2.5741,-2.6031,-2.6022,-2.5622,-2.614,-2.7262,-2.6334,-2.5266,-2.4087,-2.3361,-2.1855,-1.9855,-1.7841,-1.6158,0.0,0.0,0.0,0.0,-1.2142,-1.2313,-1.2323,-1.266,-1.2882,-1.3006,-1.3011,-1.4381,-1.6154,-1.7425,-1.9899,-2.2547,-2.427,-2.5864,-2.7086,-2.7355,-2.7593,-2.7517,-2.6633,-2.4947,-2.3132,-2.1629,-1.9597,-1.8808,-2.0845,-2.0367,-2.0951,-2.4369,-2.2964,-2.1666,-2.1917,-2.0673,-2.0072,0.0,0.0,0.0,-1.9014,-2.1823,-2.3369,-2.2815,-2.2858,-2.333,-2.4338,-2.3482,-2.3122,-2.3304,-2.4147,-2.4652,-2.4817,-2.3522,-2.2694,-2.226,-2.1537,-2.1419,-2.1815,-2.2154,-2.2016,-2.1616,-2.285,-2.3238,-2.3059,-2.3598,-2.3783,-2.3717,-2.3109,-2.2413,-2.1834,0.0,0.0,0.0,0.0,0.0,0.0,0.0,0.0,0.0,0.0,0.0,0.0,0.0,0.0,0.0,0.0,0.0,0.0,0.0,0.0,0.0,-1.4034,-1.6135,-1.7557,-1.8165,-2.0105,-2.061,-1.9585,-2.1696,-2.2087,-2.0956,-2.279,-2.3894,-2.4322,-2.4721,-2.5302,-2.5917,-2.4887,-2.4074,-2.3312,-2.14,-1.9541,-1.773,-1.5879,0.0,0.0,0.0,0.0,0.0,0.0,0.0,0.0,-1.0064,-1.0595,-1.216,-1.5215,-1.5952,-1.6716,-2.096,-2.3018,-2.4517,-2.6881,-2.7897,-2.8171,-2.7579,-2.708,-2.6343,-2.4889,-2.4081,-2.2727,0.0,0.0,-1.9029,-1.911,-1.9181,-2.047,-2.4004,-2.3018,-2.2164,0.0,0.0,0.0,0.0,0.0,0.0,-2.1759,0.0,-2.2526,-2.3028,-2.1909,-2.2444,-2.5018,-2.4137,-2.3381,-2.2901,-2.464,-2.5548,-2.5573,-2.4122,-2.355,-2.3729,-2.2635,-2.1824,-2.1374,-2.232,-2.2124,-2.1285,-2.3629,-2.4082,-2.3457,-2.4847,-2.4967,-2.437,-2.437,-2.3871,-2.3096,0.0,0.0,0.0,0.0,0.0,0.0,0.0,0.0,0.0,0.0,0.0,0.0,0.0,0.0,0.0,0.0,0.0,0.0,0.0,0.0,0.0,0.0,0.0,0.0,0.0,0.0,0.0,0.0,0.0,-1.8718,-1.8271,-1.8814,-1.9064,-1.9045,-1.9155,-1.9562,-2.0181,-1.9916,-1.9076,-1.7884,0.0,-1.5809,-1.4099,0.0,0.0,0.0,0.0,0.0,0.0,0.0,0.0,0.0,0.0,-1.3486,-1.4009,-1.5851,-1.7915,-2.016,-2.2735,-2.4722,-2.6484,-2.8119,-2.8398,-2.8064,-2.7178,-2.6549,-2.5305,-2.2342,-1.9494,-1.6768,0.0,0.0,0.0,-1.6146,-1.7504,0.0,-2.2578,-2.2537,0.0,-2.2778,0.0,-2.3325,-2.3837,-2.4847,0.0,0.0,-2.5031,-2.5839,-2.5171,-2.5769,-2.6167,-2.6261,-2.4805,-2.4045,-2.4069,-2.4305,-2.4808,-2.5586,-2.44,-2.4067,-2.4473,-2.3268,-2.2786,-2.2936,-2.3188,-2.3058,-2.2738,-2.3907,-2.4579,-2.4892,-2.5232,-2.5303,-2.5112,-2.5112,-2.4471,-2.349,0.0,0.0,0.0,0.0,0.0,0.0,0.0,0.0,0.0,0.0,0.0,0.0,0.0,0.0,0.0,0.0,0.0,0.0,0.0,0.0,0.0,0.0,0.0,0.0,0.0,0.0,0.0,0.0,0.0,0.0,0.0,-1.4995,-1.5375,-1.5441,-1.5682,-1.6159,-1.6787,0.0,0.0,0.0,0.0,0.0,0.0,0.0,0.0,0.0,0.0,0.0,0.0,0.0,0.0,-1.3094,-1.5284,-1.61,-1.6666,-1.8806,0.0,-2.2923,-2.4938,-2.6496,-2.7775,-2.8616,-2.8306,-2.7283,-2.5185,-2.4136,-2.2517,-1.8671,-1.6113,0.0,0.0,0.0,0.0,0.0,0.0,0.0,-2.1385,-2.1725,-2.2122,0.0,-2.3981,0.0,-2.5845,-2.6501,-2.6509,0.0,-2.6173,-2.6329,-2.5796,-2.6498,-2.7057,-2.7372,-2.6011,-2.5294,-2.5383,-2.4917,-2.5134,-2.5963,-2.5109,-2.4825,-2.5036,-2.409,-2.3511,-2.325,0.0,-2.3563,-2.3163,-2.4312,-2.4847,-2.4954,-2.529,-2.5411,-2.5411,-2.5411,-2.4992,-2.4367,0.0,0.0,0.0,0.0,0.0,0.0,0.0,0.0,0.0,0.0,0.0,0.0,0.0,0.0,0.0,0.0,0.0,0.0,0.0,0.0,0.0,0.0,0.0,0.0,0.0,0.0,0.0,0.0,0.0,0.0,0.0,0.0,0.0,0.0,0.0,0.0,0.0,0.0,0.0,0.0,0.0,0.0,0.0,0.0,0.0,0.0,0.0,0.0,0.0,0.0,-1.4487,-1.4397,-1.7156,-1.8521,-1.9663,-2.2562,-2.4037,-2.5163,-2.7151,-2.8106,-2.8572,-2.8771,-2.7914,-2.6228,-2.2978,-2.1242,-1.9164,-1.5043,0.0,-1.2485,-1.0397,-1.0519,-1.1477,-1.3155,0.0,-1.6542,-2.0121,-2.0972,-2.1995,-2.404,-2.4507,-2.5191,-2.6432,-2.6836,-2.7229,-2.7737,-2.6599,-2.5888,-2.5985,-2.5985,-2.6572,-2.7954,-2.7148,-2.6621,-2.6476,-2.5875,-2.5879,-2.6521,-2.5908,-2.5569,-2.5544,-2.4954,-2.4183,-2.3294,-2.409,-2.3986,-2.3344,-2.4912,-2.5149,-2.4657,-2.5315,-2.5556,-2.5556,-2.5556,-2.5556,-2.5448,0.0,0.0,0.0,0.0,0.0,0.0,0.0,0.0,0.0,0.0,-0.8911,-0.8745,0.0,0.0,0.0,0.0,0.0,0.0,0.0,0.0,0.0,0.0,0.0,0.0,0.0,0.0,0.0,0.0,0.0,0.0,0.0,0.0,0.0,0.0,0.0,0.0,0.0,0.0,0.0,0.0,0.0,0.0,0.0,0.0,0.0,0.0,0.0,0.0,0.0,0.0,-1.4429,-1.6066,-1.9241,-2.0942,-2.2102,-2.3992,-2.5359,-2.6677,-2.8346,-2.8984,-2.9188,-2.9329,-2.7868,-2.5891,-2.3982,-2.0877,0.0,0.0,-1.2058,-1.0508,-1.0158,-1.0873,-1.2238,-1.4356,0.0,0.0,0.0,0.0,-2.342,0.0,0.0,0.0,0.0,0.0,0.0,0.0,-2.8552,-2.8576,-2.8107,-2.7907,-2.7407,-2.6502,-2.6879,-2.6893,-2.6432,-2.5717,-2.5797,-2.6645,-2.5942,-2.585,-2.6289,-2.5602,-2.5141,-2.4967,-2.5132,0.0,-2.5049,-2.5933,-2.6217,-2.612,-2.6276,-2.6314,-2.6314,-2.6314,-2.6314,-2.6205,0.0,0.0,0.0,0.0,0.0,0.0,0.0,-0.8548,-0.888,-0.9335,-0.9148,-0.905,-0.9294,-0.8971,-0.8908,0.0,0.0,0.0,0.0,0.0,0.0,0.0,0.0,0.0,0.0,0.0,0.0,0.0,0.0,0.0,0.0,0.0,0.0,0.0,0.0,0.0,0.0,0.0,0.0,0.0,0.0,0.0,0.0,0.0,0.0,0.0,0.0,0.0,0.0,0.0,-1.3672,-1.5366,-1.9463,-2.2167,-2.4026,-2.4871,-2.6519,-2.8187,-2.8811,-2.9424,-2.9718,-2.9101,-2.7392,-2.4887,-2.1083,0.0,0.0,0.0,-0.956,-0.8743,-0.8706,0.0,0.0,0.0,0.0,0.0,0.0,0.0,0.0,0.0,0.0,0.0,0.0,0.0,0.0,0.0,-2.7714,-2.8202,-2.8417,-2.8346,-2.8063,-2.7569,-2.7542,-2.7446,-2.7348,-2.658,-2.6348,-2.6679,-2.6278,-2.6223,-2.6487,-2.6142,-2.5983,-2.5983,-2.5983,0.0,-2.4761,-2.5988,-2.5984,-2.5234,-2.5732,-2.6167,-2.6461,-2.6058,-2.6167,-2.6377,0.0,0.0,0.0,0.0,0.0,0.0,0.0,-0.8402,-0.8813,-0.9396,-0.9235,-0.9256,-0.9745,-0.8987,-0.8676,0.0,0.0,0.0,0.0,0.0,0.0,0.0,0.0,0.0,0.0,0.0,0.0,0.0,0.0,0.0,0.0,0.0,0.0,0.0,0.0,0.0,0.0,0.0,0.0,0.0,0.0,0.0,0.0,0.0,0.0,0.0,0.0,0.0,0.0,0.0,-1.2523,-1.3858,-1.8034,-2.1457,-2.4114,-2.5015,-2.6844,-2.8672,-2.9223,-2.9821,-3.0017,-2.8777,-2.6784,-2.3794,-1.8524,-1.5858,0.0,0.0,-0.7931,-0.7828,-0.8075,0.0,-1.0379,0.0,0.0,0.0,0.0,0.0,0.0,0.0,0.0,0.0,0.0,0.0,0.0,0.0,-2.6809,-2.7344,-2.8123,-2.8293,-2.851,-2.8853,-2.8279,-2.8099,-2.842,-2.754,-2.7019,-2.6829,-2.6589,-2.6499,-2.6499,-2.6499,-2.6499,-2.6499,-2.6499,0.0,0.0,-2.5808,-2.541,-2.3835,-2.497,-2.5752,-2.6192,-2.5606,-2.5874,-2.6436,0.0,0.0,0.0,0.0,0.0,0.0,0.0,-0.7906,-0.8066,-0.925,-0.8959,-0.8947,-0.9716,-0.9073,-0.8726,0.0,0.0,0.0,0.0,0.0,0.0,0.0,0.0,0.0,0.0,0.0,0.0,0.0,0.0,0.0,0.0,0.0,0.0,0.0,0.0,0.0,0.0,0.0,0.0,0.0,0.0,0.0,0.0,0.0,0.0,0.0,0.0,0.0,0.0,0.0,0.0,-1.2307,-1.435,-1.7216,-2.0494,-2.3932,0.0,0.0,-2.9955,-3.0457,-2.9899,-2.8907,-2.6202,-2.295,-1.98,0.0,0.0,-1.0403,-0.8996,-0.8697,-1.0216,-1.058,-1.1597,0.0,0.0,0.0,0.0,0.0,0.0,0.0,0.0,0.0,0.0,0.0,0.0,0.0,-2.7895,-2.7678,-2.7741,-2.827,-2.8582,-2.8636,-2.8549,-2.8708,-2.91,-2.8025,-2.7403,-2.7235,-2.6726,-2.6499,-2.6499,-2.6499,-2.6499,-2.6499,-2.6499,0.0,0.0,-2.5774,-2.504,-2.2997,-2.471,-2.5448,-2.5485,-2.5436,-2.5874,-2.6487,0.0,0.0,0.0,0.0,0.0,0.0,-0.751,-0.7607,-0.8022,-0.9141,-0.875,-0.875,-0.9817,-0.8659,-0.8192,-0.9137,0.0,0.0,0.0,0.0,0.0,0.0,0.0,0.0,0.0,0.0,0.0,0.0,0.0,0.0,0.0,0.0,0.0,0.0,0.0,0.0,0.0,0.0,0.0,0.0,0.0,0.0,0.0,0.0,0.0,0.0,0.0,0.0,0.0,0.0,0.0,0.0,-1.1749,-1.3464,0.0,0.0,-2.2751,-2.4883,-2.7184,-2.8791,-2.9346,-2.7545,-2.5419,-2.2576,-1.7963,0.0,-1.2315,-0.9228,-0.8211,-0.8155,-0.9066,-0.9536,-1.0473,0.0,0.0,0.0,0.0,0.0,0.0,0.0,0.0,0.0,0.0,0.0,0.0,0.0,-2.7311,-2.7488,-2.8193,-2.8125,-2.8383,-2.9135,-2.8777,-2.8787,-2.9215,-2.8292,-2.7769,-2.759,-2.7255,-2.71,-2.71,-2.71,-2.71,-2.71,-2.6884,0.0,0.0,-2.5121,-2.4265,-2.2055,-2.3961,-2.5004,-2.5411,-2.5411,-2.5874,-2.6499,0.0,0.0,0.0,0.0,0.0,-0.6605,-0.7032,-0.7218,-0.7651,-0.8599,-0.832,-0.8409,-0.9419,-0.8338,-0.7935,-0.8956,-0.8623,0.0,0.0,0.0,0.0,0.0,0.0,0.0,0.0,0.0,0.0,0.0,0.0,0.0,0.0,0.0,0.0,0.0,0.0,0.0,0.0,0.0,0.0,0.0,0.0,0.0,0.0,0.0,0.0,0.0,0.0,0.0,0.0,0.0,0.0,0.0,0.0,0.0,0.0,0.0,-1.9984,-2.2671,-2.4642,-2.6832,-2.8113,-2.6289,-2.4279,-2.1459,0.0,0.0,-1.1837,-0.8318,-0.7877,-0.8174,-0.8428,-0.8817,-0.9755,0.0,0.0,0.0,0.0,0.0,0.0,0.0,0.0,0.0,0.0,0.0,0.0,-2.7379,-2.7339,-2.7705,-2.8546,-2.8193,-2.8438,-2.9475,-2.8899,-2.8806,-2.9268,-2.8505,-2.8046,-2.7888,-2.7623,-2.7274,-2.6928,-2.728,-2.7332,-2.7176,-2.7111,0.0,0.0,-2.5279,-2.4167,-2.177,-2.3832,-2.4822,-2.5099,-2.5315,-2.5874,-2.6499,0.0,0.0,0.0,0.0,0.0,0.0,-0.7032,-0.6712,-0.6707,-0.7522,-0.7605,-0.7812,-0.8365,-0.8213,-0.8182,-0.8393,-0.8168,0.0,0.0,0.0,0.0,0.0,0.0,0.0,0.0,0.0,0.0,0.0,0.0,0.0,0.0,0.0,0.0,0.0,0.0,0.0,0.0,0.0,0.0,0.0,0.0,0.0,0.0,0.0,0.0,0.0,0.0,0.0,0.0,0.0,0.0,0.0,0.0,0.0,0.0,0.0,-1.7501,-2.0196,-2.319,-2.5018,-2.5924,-2.5498,-2.2751,-1.9284,0.0,0.0,-1.1737,-0.8302,-0.8496,-0.9245,-0.9117,-0.9101,-1.004,-1.2903,0.0,0.0,0.0,0.0,0.0,0.0,0.0,0.0,0.0,0.0,0.0,-2.8573,-2.8573,0.0,-2.8587,-2.8587,-2.8858,-2.9488,-2.8899,-2.8872,-2.9502,-2.8571,-2.8112,-2.8079,-2.7703,-2.6791,-2.5567,-2.6751,-2.6991,-2.646,0.0,0.0,0.0,-2.6664,-2.5084,-2.2418,-2.4551,-2.4954,-2.4394,-2.5124,-2.5874,-2.6499,0.0,0.0,0.0,0.0,0.0,0.0,0.0,-0.6402,-0.6513,-0.6991,-0.6851,-0.7076,-0.8028,-0.7373,-0.7164,-0.7934,-0.7864,0.0,0.0,0.0,0.0,0.0,0.0,0.0,0.0,0.0,0.0,-0.9432,-0.9408,0.0,0.0,0.0,0.0,0.0,0.0,0.0,0.0,0.0,0.0,0.0,0.0,0.0,0.0,0.0,0.0,0.0,0.0,0.0,0.0,0.0,0.0,0.0,0.0,0.0,0.0,-1.1655,-1.3963,-1.6439,-1.8739,-2.0392,-2.1311,-2.0523,-1.9121,-1.718,-1.4306,0.0,-1.0894,-0.8614,-0.8109,-0.8276,-0.8979,-0.9101,-0.9881,-1.2262,-1.2912,0.0,0.0,0.0,0.0,0.0,0.0,0.0,0.0,0.0,-2.7718,-2.8532,-2.7841,-2.7732,-2.8546,-2.8587,-2.8682,-2.8872,-2.8695,-2.8682,-2.8872,-2.8584,-2.8438,-2.8438,-2.8183,-2.7426,-2.629,-2.7442,-2.7461,0.0,0.0,0.0,0.0,-2.6928,-2.5949,-2.4124,-2.5563,-2.5841,-2.5489,-2.6232,-2.6493,-2.6499,0.0,0.0,0.0,0.0,0.0,0.0,0.0,-0.6276,-0.6379,-0.6578,-0.6435,-0.6633,-0.7526,-0.6827,-0.6623,-0.7425,-0.7409,0.0,0.0,0.0,0.0,0.0,0.0,0.0,0.0,-0.9418,-0.9554,-0.9769,-0.9515,-0.9641,-1.0105,-0.9546,0.0,0.0,0.0,0.0,0.0,0.0,0.0,0.0,0.0,0.0,-0.8121,0.0,0.0,0.0,0.0,0.0,0.0,0.0,0.0,0.0,0.0,0.0,0.0,0.0,-1.1455,-1.3109,0.0,-1.7271,-1.8305,-1.7699,-1.671,0.0,0.0,0.0,-1.0476,-0.8752,-0.8762,-0.9088,-0.9097,-0.959,-1.0375,-1.1508,-1.3222,0.0,0.0,0.0,0.0,0.0,0.0,0.0,0.0,-2.7664,-2.78,-2.8532,-2.7908,-2.7813,-2.8546,-2.8587,-2.8587,-2.8587,-2.8587,-2.8587,-2.8587,-2.8587,-2.8478,-2.8261,-2.8138,-2.744,-2.6304,-2.7377,-2.7511,0.0,0.0,0.0,0.0,-2.7466,-2.6707,-2.5605,-2.6525,-2.6575,-2.6217,-2.6948,-2.6985,-2.6679,0.0,0.0,0.0,0.0,0.0,0.0,0.0,-0.6299,-0.6299,-0.6284,-0.6284,-0.6458,-0.6877,-0.6546,-0.6458,-0.6909,0.0,0.0,0.0,0.0,0.0,0.0,0.0,0.0,0.0,-0.9286,-0.9617,-1.0099,-0.9625,-0.9568,-0.9918,-0.957,-0.8997,0.0,0.0,0.0,0.0,0.0,0.0,0.0,-0.7865,-0.7668,0.0,0.0,0.0,0.0,0.0,0.0,0.0,0.0,0.0,0.0,0.0,0.0,0.0,0.0,0.0,0.0,0.0,-1.5206,-1.6442,-1.6386,-1.516,-1.3711,0.0,0.0,0.0,0.0,-1.0228,-1.1156,-0.9556,-1.0542,-1.1441,-1.0898,-1.3767,0.0,0.0,0.0,0.0,0.0,0.0,0.0,0.0,-2.7841,-2.8587,-2.8587,-2.8587,-2.8587,-2.8587,-2.8587,-2.8587,-2.8587,-2.8546,-2.8532,-2.8532,-2.8532,-2.8193,-2.7515,-2.7565,-2.6867,-2.5547,-2.6654,-2.7138,0.0,0.0,0.0,0.0,-2.8219,-2.7485,-2.6868,-2.7367,-2.7177,-2.6674,-2.7307,-2.7323,-2.704,0.0,0.0,0.0,0.0,0.0,0.0,0.0,0.0,0.0,0.0,-0.6168,-0.623,-0.623,-0.623,-0.6269,0.0,0.0,0.0,0.0,0.0,0.0,0.0,0.0,0.0,0.0,-0.9149,-0.9154,-0.9121,-0.9253,-0.9259,-0.9163,-0.9274,-0.9233,-0.9054,-0.9157,-0.8946,-0.8549,0.0,0.0,0.0,-0.8308,-0.7886,0.0,0.0,0.0,0.0,-0.6293,-0.6379,0.0,0.0,0.0,0.0,0.0,0.0,0.0,0.0,-0.8852,-0.8955,-1.069,0.0,-1.2239,-1.228,-1.1898,-1.1517,0.0,0.0,0.0,0.0,0.0,0.0,0.0,-1.1883,-1.2521,-1.1948,-1.4115,-1.56,0.0,0.0,0.0,0.0,0.0,0.0,0.0,-2.7352,-2.8587,-2.8587,-2.8587,-2.8587,-2.8587,-2.8587,-2.8587,-2.8587,-2.8153,-2.7908,-2.7908,-2.7908,-2.7149,-2.5656,-2.6415,-2.5681,-2.3716,-2.574,-2.6438,0.0,0.0,0.0,-2.8733,-2.8998,-2.8749,-2.8158,-2.8306,-2.8084,-2.7762,-2.7894,-2.7703,-2.739,0.0,0.0,0.0,0.0,0.0,0.0,0.0,0.0,0.0,0.0,0.0,0.0,0.0,0.0,0.0,0.0,0.0,0.0,0.0,0.0,0.0,0.0,0.0,0.0,-0.8634,-0.8606,-0.8744,-0.9038,-0.9141,-0.9242,-0.9314,-0.9464,-0.9436,-0.929,-0.8967,-0.8742,-0.8578,-0.8401,-0.8119,-0.7792,-0.7463,0.0,0.0,0.0,0.0,0.0,-0.6122,-0.6381,0.0,-0.7258,-0.7784,-0.818,0.0,0.0,0.0,0.0,-0.839,-0.8433,-0.9491,-1.0147,-1.0692,-1.137,-1.1049,-1.0768,-1.1551,0.0,0.0,0.0,0.0,0.0,0.0,0.0,0.0,0.0,-1.3827,0.0,0.0,0.0,0.0,0.0,0.0,0.0,0.0,0.0,-2.8587,-2.8587,-2.8587,-2.8587,-2.8587,-2.8343,-2.8193,-2.8193,-2.761,-2.7434,-2.7705,-2.7447,-2.6389,-2.4611,-2.5689,-2.5268,-2.3541,-2.5302,-2.6079,0.0,0.0,0.0,-2.7956,-2.7971,-2.8162,-2.8476,-2.8554,-2.8503,-2.8341,-2.8341,-2.8099,-2.7769,0.0,0.0,0.0,0.0,0.0,0.0,0.0,0.0,0.0,0.0,0.0,0.0,0.0,0.0,0.0,0.0,0.0,0.0,0.0,0.0,0.0,0.0,0.0,-0.781,-0.8039,-0.8025,-0.8366,-0.9094,-0.9071,-0.9177,-0.9397,-0.9669,-0.9645,-0.9327,-0.8728,-0.8443,-0.8386,-0.7696,-0.7207,-0.6852,-0.6313,0.0,0.0,0.0,0.0,0.0,0.0,0.0,0.0,-0.7525,-0.8083,-0.8538,-0.8368,0.0,0.0,0.0,0.0,0.0,-0.8962,-0.9598,-1.0392,-1.1765,-1.1201,-1.0664,0.0,0.0,0.0,0.0,0.0,0.0,0.0,0.0,0.0,0.0,0.0,0.0,0.0,0.0,0.0,0.0,0.0,0.0,-2.6318,-2.7786,-2.8546,-2.8465,-2.8451,-2.841,-2.8329,-2.7841,-2.7569,-2.7569,-2.6969,-2.6918,-2.742,-2.6932,-2.5749,-2.3974,-2.5195,-2.5127,-2.4001,-2.5131,-2.5934,-2.6381,0.0,0.0,-2.7228,-2.675,-2.7254,-2.8365,-2.8541,-2.8587,-2.8587,-2.8587,-2.8438,-2.8177,0.0,0.0,0.0,0.0,0.0,0.0,0.0,0.0,0.0,0.0,0.0,0.0,0.0,0.0,0.0,0.0,0.0,0.0,0.0,0.0,0.0,0.0,-0.6987,-0.7437,-0.7748,-0.7982,-0.8096,-0.8109,-0.8599,-0.839,-0.7549,-0.9082,-0.9714,-0.9526,-0.898,-0.8334,-0.7656,-0.7467,-0.7209,-0.6859,-0.6312,0.0,0.0,0.0,0.0,0.0,0.0,0.0,0.0,-0.7027,-0.7565,-0.8009,-0.792,0.0,0.0,0.0,0.0,0.0,-0.8353,-0.8933,-0.974,-1.0981,-1.0539,-1.0181,0.0,0.0,0.0,0.0,0.0,0.0,0.0,0.0,0.0,0.0,0.0,0.0,0.0,0.0,0.0,0.0,0.0,-2.7556,-2.5493,-2.7284,-2.8383,-2.7881,-2.7841,-2.7623,-2.7091,-2.6982,-2.6928,-2.6928,-2.6362,-2.6077,-2.6172,-2.6077,-2.5141,-2.3364,-2.4571,-2.4502,-2.3405,-2.5085,-2.5912,-2.6047,0.0,-2.7416,-2.7638,-2.8076,-2.8361,-2.8554,-2.8587,-2.8587,-2.8587,-2.8587,-2.8554,-2.8471,0.0,0.0,0.0,0.0,0.0,0.0,0.0,0.0,0.0,0.0,0.0,0.0,0.0,0.0,0.0,0.0,0.0,0.0,0.0,0.0,0.0,-0.6299,-0.6702,-0.7061,-0.7314,-0.7238,-0.7384,-0.7791,-0.8249,-0.8242,-0.7821,-0.8884,-0.9221,-0.8915,-0.8279,-0.7646,-0.7046,-0.6724,-0.6373,-0.6024,0.0,0.0,0.0,0.0,0.0,0.0,0.0,0.0,0.0,0.0,-0.7649,-0.8179,-0.7606,0.0,0.0,0.0,0.0,0.0,-0.82,-0.8758,-0.9536,-1.0738,-1.043,0.0,0.0,0.0,0.0,0.0,0.0,0.0,0.0,0.0,0.0,0.0,0.0,0.0,0.0,0.0,0.0,0.0,0.0,-2.643,-2.5993,-2.7271,-2.8003,-2.7732,-2.742,-2.7077,-2.6806,-2.6511,-2.6321,-2.6321,-2.5724,-2.5412,-2.5412,-2.5412,-2.4679,-2.3215,-2.4407,-2.4353,-2.3256,-2.4747,-2.5412,-2.5454,0.0,-2.6323,-2.6745,-2.6916,-2.7431,-2.8144,-2.8494,-2.8638,-2.8587,-2.8587,-2.8587,-2.8587,0.0,0.0,0.0,0.0,0.0,0.0,0.0,0.0,0.0,0.0,0.0,0.0,0.0,0.0,0.0,0.0,0.0,0.0,0.0,0.0,-0.5997,-0.6214,-0.6434,-0.6634,-0.6852,-0.681,-0.7023,-0.7534,-0.7867,-0.8195,-0.8497,-0.8645,-0.8685,-0.862,-0.7761,-0.7118,-0.6652,-0.6021,-0.5571,-0.5263,0.0,0.0,0.0,0.0,0.0,0.0,0.0,0.0,0.0,0.0,0.0,0.0,0.0,0.0,0.0,-0.7632,-0.769,-0.7771,-0.8049,-0.8664,-0.9515,-1.0743,0.0,0.0,0.0,0.0,0.0,0.0,0.0,0.0,0.0,0.0,0.0,0.0,0.0,0.0,0.0,0.0,0.0,-2.4772,-2.5058,-2.5573,-2.6654,-2.7199,-2.7434,-2.7298,-2.6864,-2.6538,-2.6373,-2.5941,-2.5683,-2.5683,-2.5236,-2.5005,-2.5005,-2.5005,-2.4529,-2.3635,-2.4515,-2.4475,-2.3662,-2.4678,-2.5112,-2.502,-2.5273,-2.5563,-2.5918,-2.6021,-2.6624,-2.7532,-2.8058,-2.8401,-2.8625,-2.8593,-2.8593,-2.8621,0.0,0.0,0.0,0.0,0.0,0.0,0.0,0.0,0.0,0.0,0.0,0.0,0.0,0.0,0.0,0.0,0.0,0.0,0.0,0.0,-0.5928,-0.6013,-0.6044,-0.6168,-0.6443,-0.739,-0.7612,-0.7041,-0.7378,-0.7959,-0.8762,-0.8174,-0.8434,-0.9373,-0.8133,-0.7246,-0.6638,-0.5735,-0.5287,-0.5171,-0.4737,0.0,0.0,0.0,0.0,0.0,0.0,0.0,0.0,0.0,0.0,0.0,0.0,0.0,-0.7227,-0.7659,-0.779,-0.7757,-0.76,-0.8411,-0.96,-1.0858,0.0,0.0,0.0,0.0,0.0,0.0,0.0,0.0,0.0,0.0,0.0,0.0,0.0,0.0,0.0,0.0,-2.85,-2.7382,-2.7872,-2.7832,-2.6704,-2.6773,-2.6616,-2.6063,-2.5982,0.0,-2.5168,-2.51,-2.5059,-2.5059,-2.5032,-2.5005,-2.5005,-2.5005,-2.4964,-2.4883,-2.4823,-2.4823,-2.4896,-2.5418,-2.5418,-2.5087,-2.6702,-2.681,-2.5986,-2.7022,-2.7209,-2.686,-2.6921,-2.7657,-2.8673,-2.8554,-2.8598,-2.8666,0.0,0.0,0.0,0.0,0.0,0.0,0.0,0.0,0.0,0.0,0.0,0.0,0.0,0.0,0.0,0.0,0.0,0.0,0.0,0.0,-0.5865,-0.5943,-0.6424,-0.658,-0.6345,-0.661,-0.6795,-0.6882,-0.7376,-0.7904,-0.8428,-0.8332,-0.8438,-0.8673,-0.8231,-0.7696,-0.7062,-0.6004,-0.5541,-0.5455,-0.4858,-0.4672,0.0,0.0,0.0,0.0,0.0,0.0,0.0,0.0,-0.6963,-0.7484,0.0,-0.7287,-0.7017,-0.7235,-0.7508,-0.7712,-0.7588,-0.8595,-0.989,-1.078,0.0,0.0,0.0,0.0,0.0,0.0,0.0,0.0,0.0,0.0,0.0,0.0,0.0,0.0,0.0,0.0,-2.8039,-2.7165,-2.7321,-2.7281,-2.6773,-2.644,-2.6145,0.0,0.0,0.0,-2.4991,-2.4652,-2.4625,-2.4991,-2.5005,-2.5005,-2.5005,-2.5005,-2.5103,-2.5313,-2.5047,-2.4948,-2.5018,-2.5179,-2.5165,-2.5074,-2.6439,-2.6609,-2.6008,-2.713,-2.747,-2.7329,-2.771,-2.8383,-2.9084,-2.867,-2.854,-2.8525,0.0,0.0,0.0,0.0,0.0,0.0,0.0,0.0,0.0,0.0,0.0,0.0,0.0,0.0,0.0,0.0,0.0,0.0,0.0,-0.5796,-0.5842,-0.5928,-0.6462,-0.664,-0.6435,-0.6184,-0.626,-0.6667,-0.7298,-0.7797,-0.818,-0.8512,-0.8685,-0.8721,-0.8547,-0.8304,-0.7982,-0.6873,-0.634,-0.6209,-0.5829,-0.5375,0.0,0.0,0.0,0.0,0.0,0.0,0.0,0.0,-0.6474,-0.7088,0.0,0.0,0.0,-0.6971,-0.7226,-0.748,-0.7598,-0.849,-0.962,0.0,0.0,0.0,0.0,0.0,0.0,0.0,0.0,0.0,0.0,0.0,0.0,0.0,0.0,0.0,0.0,-2.7145,-2.7172,-2.6546,-2.6495,-2.6427,-2.6178,-2.5668,-2.5331,0.0,0.0,0.0,0.0,-2.4042,-2.4001,-2.4407,-2.4421,-2.4421,-2.4421,-2.4531,-2.4669,-2.4887,-2.4751,-2.4984,-2.5536,-2.552,-2.5605,-2.5824,-2.6829,-2.6922,-2.6457,-2.7331,-2.7547,-2.7376,-2.8042,-2.8633,-2.9053,-2.8634,-2.8469,-2.8443,0.0,0.0,0.0,0.0,0.0,0.0,0.0,0.0,0.0,0.0,0.0,0.0,0.0,0.0,0.0,0.0,0.0,0.0,0.0,-0.5811,-0.5858,-0.599,-0.6013,-0.6229,-0.6684,-0.6379,-0.6268,-0.6406,-0.7077,-0.7644,-0.8114,-0.8585,-0.9192,-0.9877,-0.9144,-0.9076,-0.9433,-0.8369,-0.7727,-0.7432,-0.7693,-0.6839,-0.5497,0.0,0.0,0.0,0.0,0.0,0.0,0.0,-0.5664,-0.5723,0.0,0.0,0.0,-0.6953,-0.7021,-0.7038,-0.7573,-0.8015,0.0,0.0,0.0,0.0,0.0,0.0,0.0,0.0,0.0,0.0,0.0,0.0,0.0,0.0,0.0,0.0,-2.6522,-2.6779,-2.6519,-2.5778,-2.5828,-2.5585,-2.486,-2.4351,0.0,0.0,0.0,0.0,0.0,-2.3201,-2.3201,-2.3215,-2.3215,-2.3215,-2.3215,-2.3463,-2.3592,-2.3592,-2.3889,-2.4929,-2.6666,-2.6637,-2.688,-2.744,-2.8173,-2.8068,-2.7435,-2.7769,-2.7434,-2.6808,-2.76,-2.8157,-2.8487,-2.842,-2.8446,-2.8498,0.0,0.0,0.0,0.0,0.0,0.0,0.0,0.0,0.0,0.0,0.0,0.0,0.0,0.0,0.0,0.0,0.0,0.0,-0.6137,-0.6153,-0.6168,-0.6214,-0.6474,-0.6634,-0.6623,-0.681,-0.6868,-0.682,-0.7585,-0.8172,-0.8602,-0.9124,-0.9457,-0.9654,0.0,-1.0411,-0.9908,-0.9685,-0.9156,-0.8417,-0.7916,-0.7105,-0.6209,0.0,0.0,0.0,0.0,0.0,0.0,0.0,0.0,0.0,-0.617,0.0,0.0,-0.7506,-0.8132,-0.8727,-0.8692,-0.9352,0.0,0.0,0.0,0.0,0.0,0.0,0.0,0.0,0.0,0.0,0.0,0.0,0.0,-2.0969,-2.3337,-2.5412,-2.552,-2.59,-2.5941,-2.5287,-2.4868,-2.4557,-2.4325,0.0,0.0,0.0,0.0,0.0,0.0,-2.2158,-2.232,-2.3188,-2.3398,-2.3463,-2.3463,-2.3747,-2.3977,-2.4151,-2.424,-2.4702,-2.5457,-2.5892,-2.64,-2.6979,-2.8033,-2.8303,-2.8064,-2.8559,-2.8598,-2.8415,-2.8646,-2.8698,-2.8651,-2.8627,-2.852,-2.8368,0.0,0.0,0.0,0.0,0.0,0.0,0.0,0.0,0.0,0.0,-0.5796,-0.5827,0.0,0.0,0.0,-0.6106,-0.6029,0.0,-0.6428,-0.6353,-0.6383,-0.6573,-0.668,-0.6754,-0.6797,-0.751,-0.7745,-0.7467,-0.8211,-0.8754,-0.917,-0.9762,-1.0102,-1.0193,0.0,-1.1052,-1.0881,-1.0591,-1.0197,-0.9784,-0.9459,-0.8526,-0.7338,0.0,0.0,0.0,0.0,0.0,0.0,0.0,0.0,0.0,0.0,0.0,0.0,-0.7476,-0.8205,-0.9076,-0.935,0.0,0.0,0.0,0.0,0.0,0.0,0.0,0.0,0.0,0.0,0.0,0.0,0.0,0.0,-2.2432,-2.396,-2.5226,-2.5103,-2.4994,-2.4872,-2.4721,-2.4137,-2.3743,0.0,0.0,0.0,0.0,0.0,0.0,0.0,-2.0935,-2.1047,-2.1792,-2.227,-2.2542,-2.2542,-2.3147,-2.3528,-2.3683,-2.3755,-2.4061,-2.4554,-2.5639,-2.6445,-2.7031,-2.8242,-2.8592,-2.8404,-2.9132,-2.9123,-2.8688,-2.9102,-2.9098,-2.8842,-2.8732,-2.8629,-2.8407,0.0,0.0,-0.5951,-0.5904,0.0,0.0,0.0,0.0,0.0,-0.5811,-0.5811,-0.5874,0.0,0.0,0.0,-0.6299,-0.6229,-0.6328,-0.6684,-0.6482,-0.6536,-0.6957,-0.6759,-0.6847,-0.7273,-0.8363,-0.8727,-0.8347,-0.8892,-0.9361,-0.9792,0.0,-1.0822,-1.1134,0.0,-1.1173,-1.1916,-1.1153,-1.0969,-1.1194,-1.1518,-1.0443,-0.863,-0.8651,0.0,0.0,0.0,0.0,0.0,0.0,0.0,0.0,-0.5375,0.0,-0.7327,-0.7096,-0.7702,-0.8683,0.0,0.0,0.0,0.0,0.0,0.0,0.0,0.0,0.0,0.0,0.0,0.0,0.0,0.0,0.0,-2.466,-2.4504,-2.4422,-2.4984,-2.4094,-2.3616,-2.4163,-2.3566,0.0,0.0,0.0,0.0,0.0,0.0,0.0,-1.9641,-1.9619,-1.9646,-1.9744,-2.046,-2.0858,-2.0881,-2.1917,-2.248,-2.2552,-2.2733,-2.3171,-2.3862,-2.5579,-2.6701,-2.7404,-2.8504,-2.8767,-2.8425,-2.9318,-2.9052,-2.8161,-2.9074,-2.9262,-2.9004,-2.8834,-2.8685,-2.849,0.0,0.0,-0.5779,-0.5819,0.0,0.0,0.0,0.0,-0.5842,-0.5951,-0.5959,-0.6029,-0.6214,-0.636,0.0,-0.646,-0.6627,-0.6749,-0.6772,-0.6727,-0.6736,-0.6833,-0.7384,-0.8018,-0.8739,-0.8946,-0.9194,-0.9447,-0.9527,-0.985,0.0,0.0,0.0,-1.067,0.0,-1.1282,-1.0891,-1.1588,-1.1493,-1.0875,-1.0632,-0.9889,-0.8867,-0.8467,-0.7731,0.0,0.0,0.0,0.0,0.0,0.0,0.0,-0.5098,-0.6086,-0.7165,-0.7214,-0.8407,-0.9819,0.0,0.0,0.0,0.0,0.0,0.0,0.0,0.0,0.0,0.0,0.0,0.0,0.0,0.0,0.0,-2.3677,-2.3744,-2.3814,-2.3938,-2.3705,-2.3569,-2.3602,-2.3029,0.0,0.0,0.0,0.0,0.0,0.0,0.0,-1.9074,-1.901,-1.9293,-1.991,-2.0261,-2.0534,-2.0748,-2.114,-2.1606,0.0,-2.2171,-2.2504,-2.3171,-2.4529,-2.5737,-2.6823,-2.7812,-2.8218,-2.817,-2.8168,-2.8338,-2.8662,-2.8866,-2.8785,-2.8614,-2.9127,-2.8735,-2.7898,0.0,0.0,0.0,0.0,0.0,0.0,0.0,0.0,-0.6191,-0.6613,-0.6504,-0.6513,-0.6893,-0.6876,0.0,0.0,-0.7133,-0.7225,-0.7544,-0.7412,-0.7324,-0.7324,-0.7915,-0.8432,-0.8848,-0.902,-0.9327,-0.9804,0.0,0.0,0.0,0.0,0.0,-1.1132,0.0,-1.1251,-1.0853,-1.1301,-1.1216,-1.0781,-1.0601,-1.0159,-0.9555,-0.8894,-0.8249,0.0,0.0,0.0,0.0,0.0,0.0,0.0,0.0,0.0,-0.7144,-0.6858,-0.8168,-0.9775,0.0,0.0,0.0,0.0,0.0,0.0,0.0,0.0,0.0,0.0,0.0,0.0,0.0,0.0,-2.2654,-2.2721,-2.2831,-2.2992,-2.3278,-2.3032,-2.2895,-2.3034,0.0,0.0,0.0,0.0,0.0,0.0,0.0,-1.8481,-1.8426,-1.8385,-1.8604,-1.9128,-1.9621,-2.0005,-2.0276,-2.0755,-2.1177,-2.1525,-2.1844,-2.2316,-2.2931,-2.3911,-2.5088,-2.6371,-2.6947,-2.7286,-2.7475,-2.801,-2.8255,-2.8336,-2.9054,-2.9227,-2.915,-2.9409,-2.9112,-2.8413,0.0,0.0,0.0,0.0,0.0,0.0,0.0,0.0,0.0,-0.7243,-0.708,-0.7082,-0.7483,-0.7407,-0.7472,0.0,0.0,0.0,-0.8284,-0.8056,-0.7928,-0.7998,-0.8395,-0.8632,-0.8728,-0.9124,-0.9476,0.0,0.0,0.0,0.0,0.0,0.0,-1.1815,0.0,-1.1132,-1.1052,-1.0713,-1.0599,-1.0665,-1.0652,-1.0457,-1.0084,-0.9319,0.0,0.0,0.0,-0.6608,-0.6554,-0.5943,0.0,0.0,0.0,0.0,-0.698,-0.6276,-0.7446,-0.9025,0.0,0.0,0.0,0.0,0.0,0.0,0.0,0.0,0.0,0.0,0.0,0.0,0.0,0.0,-2.1572,-2.1684,-2.1865,-2.2141,-2.2652,-2.2248,-2.2024,-2.238,0.0,0.0,0.0,0.0,0.0,0.0,0.0,-1.818,-1.7826,-1.7779,-1.7879,-1.8096,-1.8753,-1.9296,-1.9678,-2.0341,-2.0727,-2.0843,-2.1511,-2.22,-2.288,-2.3229,-2.4236,-2.5681,-2.599,-2.6287,-2.6687,-2.7798,-2.8029,-2.7834,-2.9054,-2.9589,-2.9696,-2.9595,-2.9473,-2.9112,0.0,0.0,0.0,0.0,0.0,0.0,0.0,0.0,0.0,0.0,-0.722,-0.7361,-0.7265,-0.7835,-0.8137,-0.793,-0.8115,-0.8174,-0.7984,0.0,0.0,-0.8408,-0.8797,-0.9203,-0.9626,-1.0014,-1.0084,0.0,0.0,0.0,0.0,0.0,0.0,-1.1938,0.0,0.0,-1.0578,-1.016,-1.0041,-1.0076,-0.9746,-0.96,-0.9533,0.0,0.0,0.0,0.0,0.0,0.0,-0.6587,-0.6597,0.0,0.0,0.0,-0.6319,-0.569,-0.6569,0.0,0.0,0.0,0.0,0.0,0.0,0.0,0.0,0.0,0.0,0.0,0.0,0.0,0.0,-2.0415,-2.0504,-2.0511,-2.1068,-2.1524,-2.1591,-2.1485,-2.1366,0.0,0.0,0.0,0.0,0.0,0.0,0.0,-1.9501,-1.9052,-1.746,-1.7344,-1.7412,-1.7674,-1.7908,-1.8393,-1.9194,-1.9285,-1.9653,-2.0233,-2.0843,-2.1708,-2.2789,-2.183,-2.2319,-2.4003,-2.4933,-2.5627,-2.6089,-2.6044,-2.6701,-2.7721,-2.7931,-2.8385,-2.9038,-2.9632,-2.9317,-2.8574,0.0,0.0,0.0,0.0,0.0,0.0,0.0,0.0,0.0,0.0,0.0,-0.8372,-0.8477,-0.8631,-0.8638,-0.8425,-0.8359,-0.8496,-0.8824,-0.8642,-0.8707,-0.9144,-0.912,-0.9326,-0.9793,-0.9969,-1.0247,0.0,0.0,0.0,0.0,-1.2028,-1.1852,0.0,0.0,0.0,0.0,0.0,-1.0134,-0.9165,-0.9331,-0.9599,0.0,0.0,0.0,0.0,0.0,0.0,0.0,0.0,-0.7391,-0.7427,-0.651,0.0,0.0,0.0,0.0,0.0,0.0,0.0,0.0,0.0,0.0,0.0,0.0,0.0,0.0,0.0,0.0,0.0,-1.9724,-1.9684,-1.958,-1.958,-2.0117,-2.051,-2.051,-2.0704,-2.0804,0.0,0.0,0.0,0.0,0.0,0.0,0.0,-1.854,-1.8114,-1.7224,-1.7239,-1.7357,-1.7585,-1.8091,-1.8606,-1.9101,-1.9387,-1.9874,-2.0495,-2.0107,-2.059,-2.1758,-2.0895,-2.1595,-2.35,-2.3518,-2.4197,-2.5289,-2.5503,-2.6196,-2.7187,-2.7559,-2.8158,-2.8822,-2.9167,-2.9281,-2.914,0.0,0.0,0.0,0.0,0.0,0.0,0.0,0.0,0.0,0.0,0.0,-0.899,-0.9143,0.0,0.0,0.0,-0.8882,-0.9093,-0.9727,-0.9488,-0.9483,-0.9833,-0.9468,-0.9477,-0.9943,-0.9996,0.0,0.0,0.0,0.0,-1.2783,-1.2496,-1.2136,0.0,-1.2581,0.0,0.0,0.0,0.0,0.0,0.0,0.0,0.0,0.0,0.0,0.0,0.0,0.0,0.0,0.0,0.0,0.0,0.0,0.0,0.0,0.0,0.0,0.0,0.0,0.0,0.0,0.0,0.0,0.0,0.0,0.0,0.0,0.0,0.0,-1.8468,-1.9284,-1.921,-1.8987,-1.8987,-1.9337,-1.9597,-1.9597,-1.9773,0.0,0.0,0.0,0.0,0.0,0.0,0.0,0.0,-1.7946,-1.757,-1.7164,-1.7125,-1.7274,-1.7585,-1.8118,-1.8619,-1.9101,-1.9479,-1.9981,-2.0557,-1.9541,-1.973,-2.0932,-2.017,-2.0892,-2.2722,-2.2425,-2.3138,-2.4575,-2.5163,-2.5925,-2.6749,-2.7251,-2.7996,-2.8811,-2.8811,-2.9243,-2.9636,0.0,0.0,0.0,0.0,0.0,0.0,0.0,0.0,0.0,0.0,0.0,-0.8598,-0.829,-0.9046,-0.9557,-0.9559,-0.9957,-1.022,-1.0258,-1.0236,-1.0241,-1.0274,-0.9875,0.0,-1.0353,0.0,0.0,0.0,0.0,0.0,-1.1134,-1.1683,-1.1848,-1.1704,-1.1704,-1.1998,-1.2419,0.0,0.0,0.0,0.0,-1.1076,0.0,0.0,0.0,0.0,0.0,0.0,0.0,0.0,0.0,0.0,0.0,0.0,0.0,0.0,0.0,0.0,0.0,0.0,0.0,0.0,0.0,0.0,0.0,0.0,0.0,0.0,0.0,-1.8374,-1.8927,-1.9011,-1.8987,-1.8987,-1.9017,-1.9045,-1.9045,-1.8557,0.0,0.0,0.0,0.0,0.0,0.0,0.0,0.0,-1.8801,-1.8506,-1.7341,-1.687,-1.6926,-1.7589,-1.7383,-1.7864,-1.9087,-1.9065,-1.9353,-1.9953,-1.931,-1.9641,-2.0779,-1.9653,-1.9797,-2.1,-2.2108,-2.313,-2.4081,-2.4689,-2.5639,-2.6701,-2.6733,-2.7591,-2.8811,-2.8811,-2.9178,-2.9585,0.0,0.0,0.0,0.0,0.0,0.0,0.0,0.0,0.0,0.0,0.0,0.0,0.0,-0.9977,-1.0112,-0.9471,-0.9559,-0.9805,-1.0156,-1.0211,-1.027,-1.0292,-1.0208,-1.0117,-1.0015,0.0,0.0,0.0,0.0,-1.0783,-1.1126,-1.1254,-1.144,-1.1704,-1.3098,-1.2814,-1.1342,-1.2056,0.0,0.0,-1.1331,-1.1474,0.0,0.0,0.0,0.0,0.0,0.0,0.0,0.0,0.0,0.0,0.0,0.0,0.0,0.0,0.0,0.0,0.0,0.0,0.0,0.0,0.0,0.0,0.0,0.0,0.0,0.0,-1.6341,-1.7219,-1.7411,-1.7748,-1.7977,-1.7977,-1.7957,-1.7983,-1.7983,0.0,0.0,0.0,0.0,0.0,0.0,0.0,0.0,0.0,0.0,-1.6936,-1.7277,-1.6395,-1.6365,-1.7381,-1.7935,-1.8621,-1.9482,-1.9162,-1.9257,-1.9767,-1.9286,-1.9291,-1.971,-1.9285,-1.9329,-1.9754,-2.0522,-2.1839,-2.3472,-2.4044,-2.493,-2.6005,-2.6005,-2.6847,-2.8045,-2.7608,-2.8419,-2.952,0.0,0.0,0.0,0.0,0.0,0.0,0.0,0.0,0.0,0.0,0.0,0.0,0.0,0.0,-1.0529,-0.9863,-0.9798,-0.989,-1.0091,-1.0146,-1.0178,-1.0227,-1.014,-1.0051,-0.9947,0.0,0.0,0.0,0.0,0.0,0.0,-1.0816,-1.1007,-1.13,-1.3148,-1.3026,0.0,0.0,0.0,-1.1623,0.0,-1.2469,-1.2563,0.0,0.0,0.0,0.0,0.0,0.0,0.0,0.0,0.0,0.0,0.0,0.0,0.0,0.0,0.0,0.0,0.0,0.0,0.0,0.0,0.0,0.0,0.0,0.0,0.0,-1.5533,-1.6607,-1.6607,-1.6739,-1.7039,-1.7567,-1.7363,-1.7123,-1.7123,0.0,0.0,0.0,0.0,0.0,0.0,0.0,0.0,0.0,0.0,0.0,-1.7553,-1.6664,-1.652,-1.7343,-1.8295,-1.8959,-1.9353,-1.9046,-1.9099,-1.9452,-1.9152,-1.9026,-1.9101,-1.9101,-1.9082,-1.9088,-1.9652,-2.1024,-2.292,-2.3448,-2.4441,-2.5634,-2.5602,-2.6309,-2.7332,-2.7062,-2.7932,-2.9117,0.0,0.0,0.0,0.0,0.0,0.0,0.0,0.0,0.0,0.0,0.0,0.0,0.0,0.0,0.0,-1.0791,-1.078,-1.0589,-1.0135,-1.0102,-1.0091,-1.008,-0.9715,-0.9717,-1.0165,0.0,0.0,0.0,0.0,0.0,0.0,0.0,-1.0519,0.0,-1.1572,-1.2476,-1.3236,0.0,-1.4017,-1.4744,0.0,-1.4128,-1.4665,0.0,0.0,0.0,-1.4073,-1.3979,0.0,-1.3706,0.0,0.0,0.0,0.0,0.0,0.0,0.0,0.0,0.0,0.0,0.0,0.0,0.0,0.0,-1.0104,0.0,-1.4197,-1.4241,-1.5452,-1.6547,-1.6559,-1.6128,-1.6296,-1.7905,-1.7255,-1.6583,0.0,0.0,0.0,0.0,0.0,0.0,0.0,0.0,0.0,0.0,-1.804,-1.8218,-1.8189,-1.7708,-1.745,-1.752,-1.8271,-1.8673,-1.8692,-1.8692,-1.8803,-1.8993,-1.887,-1.8898,-1.9101,-1.9101,-1.9059,-1.9041,-1.9632,-2.0843,-2.242,-2.295,-2.4158,-2.566,-2.5589,-2.6015,-2.6746,-2.7251,-2.7838,-2.8414,0.0,0.0,0.0,0.0,0.0,0.0,0.0,0.0,0.0,0.0,0.0,0.0,0.0,0.0,0.0,-1.0791,-1.0491,-1.0245,-1.0102,-1.0102,-0.9981,-0.9686,-0.9879,-0.9786,-0.9345,0.0,0.0,0.0,0.0,0.0,0.0,0.0,0.0,0.0,-1.0491,-1.108,-1.1387,-1.3135,0.0,0.0,-1.4405,-1.4261,0.0,0.0,0.0,0.0,0.0,-1.4787,-1.4637,0.0,-1.3674,-1.2617,0.0,0.0,0.0,0.0,0.0,0.0,-0.7856,0.0,0.0,0.0,0.0,0.0,-0.9358,-1.087,-1.2216,-1.2491,-1.3828,-1.5052,-1.5394,-1.5592,-1.6023,-1.6907,-1.6475,-1.6008,0.0,0.0,0.0,0.0,0.0,0.0,0.0,0.0,0.0,0.0,-1.7022,-1.7028,-1.8127,-1.7918,-1.7836,-1.7999,-1.8066,-1.8262,-1.8556,-1.845,-1.8567,-1.8855,-1.8908,-1.9003,-1.9101,-1.9101,-1.9082,-1.9093,-1.919,-2.0284,-2.2004,-2.2378,-2.3353,-2.4575,-2.4842,-2.5389,-2.6073,-2.6101,-2.7102,-2.8334,0.0,0.0,0.0,0.0,0.0,0.0,0.0,0.0,0.0,0.0,0.0,0.0,0.0,0.0,0.0,-1.1118,-1.048,-1.0102,-1.0102,-0.99,-0.9659,-0.9431,-0.9684,-0.9536,-0.8886,0.0,0.0,0.0,0.0,0.0,0.0,0.0,0.0,0.0,0.0,0.0,0.0,0.0,0.0,0.0,-1.4461,0.0,0.0,-1.5137,-1.5118,0.0,0.0,0.0,-1.5348,-1.5326,-1.4288,0.0,0.0,0.0,0.0,0.0,0.0,0.0,0.0,0.0,0.0,0.0,0.0,0.0,-0.952,-1.0749,-1.1854,0.0,-1.3734,-1.4629,-1.4905,-1.4818,-1.4955,-1.5751,-1.548,-1.5331,0.0,0.0,0.0,0.0,0.0,0.0,0.0,-1.6315,-1.6603,-1.7063,-1.6844,-1.7142,-1.8141,-1.8029,-1.7989,-1.8063,-1.7963,-1.8043,-1.838,-1.8293,-1.8431,-1.876,-1.887,-1.8802,-1.8599,-1.8948,-1.8919,-1.8613,-1.8883,-1.9915,-2.1448,-2.1575,-2.261,-2.418,-2.4539,-2.4963,-2.539,-2.5821,-2.6844,-2.7961,0.0,0.0,-1.0113,-1.0168,-1.0223,0.0,0.0,0.0,0.0,0.0,0.0,0.0,0.0,0.0,0.0,0.0,-1.0775,-1.0212,-1.0102,-0.9606,-0.9304,-0.9304,-0.9304,-0.9174,-0.8866,0.0,0.0,0.0,0.0,0.0,0.0,0.0,0.0,0.0,-0.9678,-0.9896,0.0,0.0,0.0,-1.4462,-1.435,-1.5214,0.0,0.0,-1.5638,0.0,-1.6758,-1.6457,-1.5722,-1.6264,-1.4969,0.0,0.0,0.0,0.0,0.0,-1.0557,0.0,0.0,0.0,0.0,0.0,0.0,0.0,-0.9952,-1.1047,-1.2068,-1.3392,-1.409,-1.4472,-1.4596,-1.3828,-1.3503,-1.4456,-1.4319,-1.4441,0.0,0.0,0.0,0.0,0.0,0.0,-1.5715,-1.6032,-1.6225,-1.6136,-1.7146,-1.7882,-1.8169,-1.8062,-1.7962,-1.7882,-1.7882,-1.7983,-1.8169,-1.8169,-1.8361,-1.8692,-1.876,-1.8488,-1.7924,-1.8718,-1.8642,-1.7938,-1.8654,-1.9656,-2.0765,-2.064,-2.1939,-2.4056,-2.4393,-2.4532,-2.467,-2.5871,-2.6675,-2.7274,-0.9944,-1.0037,-1.0223,-1.06,0.0,0.0,0.0,0.0,0.0,0.0,0.0,0.0,0.0,0.0,0.0,0.0,0.0,-1.0911,-1.0146,-0.9606,-0.9304,-0.9304,-0.9304,-0.9491,-0.9892,-1.0018,0.0,0.0,0.0,0.0,0.0,0.0,0.0,0.0,-1.0217,-1.0431,0.0,0.0,0.0,-1.3148,-1.4917,0.0,-1.4719,-1.6039,-1.5436,-1.4132,-1.5913,-1.5973,-1.5234,-1.5349,-1.4821,-1.3921,0.0,0.0,0.0,0.0,0.0,0.0,0.0,0.0,0.0,0.0,0.0,0.0,-0.8507,-0.8937,-0.954,0.0,-1.131,-1.1863,-1.2731,-1.2627,-1.2531,-1.2839,-1.2869,-1.3227,0.0,0.0,0.0,0.0,0.0,0.0,-1.577,-1.5859,-1.5988,-1.6247,-1.7055,-1.7754,-1.8183,-1.8062,-1.7922,-1.774,-1.774,-1.7828,-1.8042,-1.8042,-1.8254,-1.8692,-1.8711,-1.8427,-1.7906,-1.8573,-1.8497,-1.7938,-1.8583,-1.9299,-1.9996,-1.9859,-2.1055,-2.2956,-2.3326,-2.3457,-2.3551,-2.4647,-2.5433,-2.6036,-1.0447,-1.0644,-1.0867,-1.1118,0.0,0.0,0.0,0.0,0.0,0.0,0.0,0.0,0.0,0.0,0.0,0.0,0.0,0.0,0.0,0.0,-0.9725,-0.9745,-0.9725,-0.9741,-0.9841,-1.011,-1.0297,0.0,0.0,0.0,0.0,0.0,0.0,0.0,0.0,0.0,0.0,0.0,-1.2374,-1.3775,-1.4653,0.0,-1.4495,-1.5892,-1.5635,-1.471,-1.5945,-1.6156,-1.5727,-1.4925,-1.4652,0.0,0.0,-1.2912,-1.233,0.0,-1.1354,-1.1036,0.0,0.0,0.0,-0.8786,0.0,0.0,0.0,-0.8768,-0.9275,-1.042,-1.0726,-1.1015,-1.1727,0.0,-1.0905,-1.1549,-1.1405,-1.1436,0.0,0.0,0.0,0.0,0.0,0.0,-1.4886,-1.4886,-1.5064,-1.5422,-1.6288,-1.6976,-1.7381,-1.7851,-1.7989,-1.7699,-1.7645,-1.7672,-1.7855,-1.7915,-1.8129,-1.8459,-1.8615,-1.8366,-1.777,-1.8475,-1.8422,-1.7829,-1.8512,-1.9175,-1.9789,-1.9729,-2.0435,-2.1633,-2.2367,-2.2842,-2.3201,-2.4012,-2.4859,-2.5654,-1.09,-1.1231,-1.1536,-1.1624,0.0,0.0,0.0,0.0,0.0,0.0,0.0,0.0,0.0,0.0,0.0,0.0,0.0,0.0,0.0,0.0,0.0,-1.0332,-1.0316,-1.0178,-0.9923,-1.0258,-1.0513,0.0,0.0,0.0,0.0,0.0,0.0,0.0,0.0,0.0,0.0,0.0,0.0,-1.4615,0.0,-1.4395,-1.489,-1.5557,-1.5644,-1.5447,-1.5971,-1.6202,-1.6057,-1.4676,0.0,-1.4552,-1.4297,-1.3454,0.0,0.0,0.0,0.0,0.0,0.0,0.0,0.0,0.0,-0.7467,0.0,0.0,0.0,-1.0204,-1.0402,0.0,0.0,0.0,0.0,0.0,0.0,0.0,0.0,0.0,0.0,0.0,0.0,0.0,-1.3411,-1.3655,-1.4034,-1.4568,-1.5515,-1.6228,-1.6572,-1.7509,-1.7929,-1.7699,-1.7625,-1.7625,-1.7699,-1.7821,-1.8003,-1.8202,-1.8478,-1.8252,-1.7618,-1.838,-1.8361,-1.7733,-1.8418,-1.9059,-1.9544,-1.9544,-1.9853,-2.0401,-2.139,-2.2178,-2.2826,-2.3357,-2.4277,-2.5284,-1.1253,-1.146,-1.1635,-1.2058,0.0,0.0,0.0,0.0,0.0,0.0,0.0,0.0,0.0,0.0,0.0,0.0,0.0,0.0,-1.2377,0.0,0.0,0.0,-1.0938,-1.1117,-1.1446,-1.104,-1.1122,-1.173,0.0,0.0,0.0,0.0,0.0,0.0,-1.2261,0.0,0.0,0.0,-1.3936,0.0,-1.435,-1.4769,0.0,-1.5215,-1.4778,-1.4283,-1.4983,-1.5177,-1.5005,0.0,-1.3885,-1.3504,0.0,-1.2898,-1.2176,0.0,0.0,0.0,0.0,0.0,0.0,0.0,-0.8499,0.0,0.0,0.0,-0.7685,-0.7866,0.0,0.0,0.0,0.0,0.0,0.0,0.0,0.0,-1.0013,0.0,0.0,0.0,0.0,0.0,0.0,-1.2418,-1.3532,-1.4523,-1.5466,-1.6174,-1.6579,-1.7103,-1.7482,-1.7699,-1.7801,-1.7801,-1.7699,-1.7821,-1.8003,-1.8202,-1.8242,-1.8021,-1.7618,-1.8256,-1.8199,-1.7651,-1.827,-1.8579,-1.8649,-1.8649,-1.8981,-1.9599,-2.0387,-2.1018,-2.1557,-2.2119,-2.3074,-2.4155,-1.0649,-1.1129,-1.1471,-1.1402,0.0,0.0,0.0,0.0,0.0,0.0,0.0,0.0,0.0,0.0,0.0,0.0,0.0,-1.4301,0.0,0.0,0.0,0.0,-1.1907,-1.1719,-1.1712,-1.1737,-1.1801,-1.1899,-1.1453,0.0,0.0,0.0,0.0,0.0,-1.248,0.0,-1.3408,0.0,0.0,0.0,0.0,0.0,0.0,-1.4727,-1.4767,-1.4878,-1.4868,-1.5253,-1.5572,0.0,-1.4058,0.0,0.0,0.0,0.0,0.0,0.0,0.0,0.0,0.0,0.0,0.0,0.0,0.0,-0.872,0.0,-0.7727,0.0,0.0,0.0,0.0,0.0,0.0,0.0,-0.792,0.0,0.0,0.0,-0.8805,0.0,0.0,0.0,0.0,0.0,0.0,0.0,-1.3094,-1.4029,-1.4423,-1.5998,-1.719,-1.7788,-1.7801,-1.772,-1.7604,-1.772,-1.7821,-1.7902,-1.8103,-1.8104,-1.7965,-1.8327,-1.8554,-1.8638,-1.854,-1.8694,-1.9003,-1.8638,-1.8652,-1.8905,-1.9232,-2.0133,-2.1338,-2.1554,-2.2606,-2.3921,-1.0349,0.0,0.0,0.0,0.0,0.0,0.0,0.0,0.0,0.0,0.0,0.0,-1.4814,-1.4615,0.0,0.0,-1.5716,-1.5488,0.0,0.0,-1.3641,0.0,0.0,0.0,0.0,-1.2346,-1.231,-1.2121,0.0,0.0,0.0,0.0,0.0,0.0,0.0,-1.3259,-1.3773,0.0,0.0,-1.5464,-1.4859,-1.4563,-1.4459,-1.4339,-1.4882,-1.5628,-1.5158,-1.5566,-1.6099,-1.4463,-1.4417,0.0,-1.4451,0.0,0.0,0.0,0.0,0.0,-1.1929,0.0,0.0,0.0,0.0,0.0,0.0,0.0,0.0,0.0,0.0,0.0,0.0,0.0,0.0,0.0,0.0,0.0,0.0,0.0,0.0,0.0,0.0,0.0,0.0,0.0,0.0,0.0,0.0,-1.2369,-1.2602,-1.5008,-1.6738,-1.7624,-1.772,-1.7699,-1.755,-1.7625,-1.7659,-1.7699,-1.7983,-1.8143,-1.8222,-1.842,-1.8736,-1.9143,-1.8694,-1.875,-1.9129,-1.868,-1.8498,-1.8498,-1.8498,-1.9431,-2.0801,-2.0984,-2.2033,-2.3453,-1.078,-1.1166,0.0,0.0,0.0,0.0,0.0,0.0,0.0,0.0,0.0,0.0,0.0,0.0,0.0,0.0,0.0,-1.6693,-1.7274,0.0,-1.5408,0.0,0.0,-1.3276,0.0,0.0,0.0,0.0,0.0,0.0,0.0,0.0,0.0,0.0,0.0,-1.3983,-1.4709,-1.5707,-1.5987,-1.5789,-1.5764,-1.5206,-1.4377,0.0,-1.491,-1.6143,-1.5796,0.0,0.0,-1.5446,-1.4885,0.0,0.0,0.0,0.0,0.0,0.0,0.0,0.0,0.0,0.0,-1.143,0.0,0.0,0.0,0.0,-0.785,0.0,0.0,0.0,0.0,0.0,0.0,0.0,0.0,0.0,0.0,0.0,0.0,0.0,0.0,0.0,0.0,0.0,0.0,0.0,0.0,0.0,-1.1936,-1.4357,-1.6144,-1.7008,-1.7583,-1.7821,-1.7699,-1.757,-1.757,-1.7699,-1.7842,-1.8003,-1.8222,-1.842,-1.8512,-1.8526,-1.8512,-1.8512,-1.8526,-1.8512,-1.8498,-1.8498,-1.8498,-1.8891,-1.955,-2.0203,-2.1155,-2.2319,0.0,0.0,0.0,0.0,0.0,0.0,0.0,-1.3513,0.0,0.0,0.0,0.0,0.0,-1.9599,-1.916,0.0,0.0,-1.9452,-1.8025,-1.7684,0.0,0.0,0.0,-1.4695,0.0,0.0,0.0,0.0,0.0,0.0,0.0,0.0,0.0,0.0,0.0,-1.4258,0.0,0.0,0.0,0.0,0.0,-1.5601,-1.5775,0.0,0.0,-1.6092,-1.6346,-1.6488,0.0,-1.5587,-1.5312,-1.5315,-1.5215,-1.4706,-1.425,-1.4716,-1.3794,0.0,0.0,0.0,-1.2111,-1.2629,0.0,0.0,0.0,0.0,0.0,0.0,0.0,0.0,0.0,0.0,0.0,0.0,0.0,0.0,0.0,0.0,0.0,0.0,0.0,0.0,0.0,0.0,0.0,0.0,0.0,0.0,0.0,-1.268,-1.4804,-1.6027,-1.7265,-1.7889,-1.7895,-1.7618,-1.757,-1.7699,-1.7666,-1.7794,-1.8062,-1.8228,-1.8589,-1.9073,-1.8666,-1.8736,-1.9073,-1.8666,-1.8498,-1.8498,-1.8498,-1.8624,-1.8891,-1.9508,-2.074,-2.2332,-1.306,0.0,0.0,0.0,0.0,0.0,0.0,0.0,0.0,0.0,-1.9604,0.0,-2.3118,0.0,-2.1984,0.0,-2.1307,-2.0736,-1.9193,-1.8447,0.0,-1.7632,-1.6479,0.0,0.0,0.0,0.0,0.0,0.0,-1.3687,0.0,0.0,0.0,0.0,0.0,0.0,0.0,0.0,-1.598,0.0,0.0,-1.5854,0.0,0.0,-1.6306,-1.6505,0.0,-1.6509,-1.666,-1.5766,-1.5625,-1.5749,-1.5466,-1.5124,-1.4868,-1.499,-1.4085,-1.3209,-1.3971,-1.3542,0.0,-1.3246,-1.2865,0.0,-1.1438,0.0,0.0,0.0,0.0,0.0,0.0,0.0,0.0,0.0,0.0,0.0,0.0,0.0,0.0,0.0,0.0,0.0,0.0,0.0,0.0,0.0,0.0,0.0,0.0,0.0,-1.4076,-1.5207,-1.7032,-1.7933,-1.7746,-1.7686,-1.7578,-1.7417,-1.7518,-1.7693,-1.7915,-1.8369,-1.887,-1.9355,-1.9309,-1.9343,-1.9443,-1.9049,-1.8734,-1.8498,-1.8498,-1.8498,-1.8596,-1.9452,-2.0912,-2.2634,-1.4116,0.0,0.0,0.0,-1.3563,0.0,0.0,0.0,-1.9552,0.0,-2.3219,-2.4168,-2.5014,-2.4264,-2.3573,-2.3223,-2.1664,-2.071,-2.0698,-1.8917,0.0,0.0,-1.6824,-1.6451,-1.6989,0.0,0.0,0.0,0.0,0.0,0.0,0.0,0.0,0.0,-1.4615,0.0,-1.4867,-1.5793,-1.6041,-1.5833,-1.5953,-1.603,-1.6066,-1.6311,-1.6853,-1.7318,-1.5897,-1.5974,-1.6645,-1.6015,-1.5811,-1.5749,-1.5416,-1.5297,-1.5246,-1.5003,-1.4418,-1.4029,-1.4784,-1.438,-1.3691,-1.334,0.0,0.0,0.0,0.0,-1.0545,0.0,0.0,0.0,0.0,0.0,0.0,0.0,0.0,0.0,0.0,0.0,0.0,0.0,0.0,0.0,0.0,0.0,0.0,0.0,0.0,0.0,0.0,0.0,-1.3857,-1.4584,-1.6821,-1.7782,-1.7346,-1.7642,-1.7509,-1.6962,-1.7437,-1.7679,-1.7733,-1.8776,-1.9259,-1.9356,-2.0238,-2.0279,-1.9636,-1.9622,-1.9194,-1.8559,-1.8512,-1.854,-1.8736,-1.995,-2.1505,-2.3106,-1.4778,-1.4631,-1.4552,0.0,-1.4983,-1.5797,0.0,0.0,0.0,0.0,-2.374,-2.5111,-2.6764,-2.6666,-2.5661,-2.3584,-2.3536,0.0,0.0,0.0,0.0,-1.9741,-1.9097,-1.8284,-1.7261,-1.6907,0.0,-1.5794,0.0,0.0,-1.5339,0.0,0.0,0.0,0.0,0.0,-1.4843,-1.5684,-1.6177,-1.6306,-1.6188,-1.6328,0.0,0.0,-1.6905,-1.7544,-1.6834,-1.6343,-1.6026,-1.5854,-1.5811,-1.5749,-1.5416,-1.5297,-1.5337,-1.5467,-1.5137,-1.495,-1.5847,-1.5425,-1.4651,-1.4321,-1.3711,-1.303,0.0,0.0,0.0,0.0,0.0,0.0,0.0,0.0,0.0,0.0,0.0,0.0,0.0,0.0,0.0,0.0,0.0,0.0,0.0,0.0,0.0,0.0,0.0,0.0,0.0,0.0,0.0,-1.4755,-1.5097,-1.6126,-1.801,-1.6911,-1.6796,-1.773,-1.7558,-1.761,-1.7862,-1.8146,-1.8631,-1.9321,-1.9702,-2.0101,-2.0385,-1.9833,-1.9488,-1.925,-1.872,-1.9073,-1.995,-2.0288,-2.0973,-2.1979,-1.5382,0.0,0.0,-1.6037,0.0,0.0,-1.9119,-2.0278,0.0,-2.4767,-2.547,0.0,-2.7802,-2.8049,-2.7262,-2.5035,-2.4479,0.0,-2.1607,0.0,0.0,-2.027,-1.9892,-1.9122,-1.7952,-1.7514,0.0,-1.6554,0.0,0.0,-1.5711,0.0,0.0,0.0,0.0,-1.4822,0.0,-1.5672,-1.6258,-1.6651,-1.6532,0.0,0.0,-1.6959,-1.7103,-1.7434,-1.7179,-1.6569,-1.5811,-1.5345,-1.5203,-1.5148,-1.4982,-1.4918,-1.4918,-1.5026,-1.5015,-1.5148,-1.5751,-1.5701,-1.5383,-1.5073,-1.4402,-1.3666,-1.3109,-1.2484,-1.1876,0.0,0.0,0.0,0.0,0.0,0.0,0.0,0.0,0.0,0.0,0.0,0.0,0.0,0.0,0.0,0.0,0.0,0.0,0.0,0.0,0.0,0.0,0.0,0.0,-1.307,-1.4779,-1.5879,-1.6292,-1.5616,-1.5801,-1.6825,-1.6531,-1.6889,-1.7835,-1.8242,-1.8907,-1.9719,-2.0309,-2.0805,-2.1119,-2.0385,-1.989,-1.9537,-1.8796,-1.9296,-2.045,-2.0421,-2.1131,-2.227,0.0,0.0,0.0,0.0,0.0,0.0,0.0,-2.2339,0.0,-2.719,0.0,-2.7548,-2.8246,-2.8746,-2.8348,-2.6702,0.0,-2.3473,-2.2617,-2.1045,-2.0153,-2.0282,-1.9918,-1.9388,-1.8698,-1.7824,-1.7372,0.0,0.0,0.0,0.0,0.0,0.0,0.0,0.0,0.0,0.0,-1.565,-1.628,-1.6886,-1.6912,-1.7276,-1.78,-1.7558,-1.7405,-1.7311,-1.7217,-1.6628,-1.5761,-1.4816,-1.4474,-1.4396,-1.4396,-1.4396,-1.4406,-1.4397,-1.4655,-1.5027,-1.5305,-1.5663,-1.5867,-1.5488,-1.506,-1.4532,-1.3759,-1.3308,-1.289,-1.2416,-1.2314,-1.191,0.0,0.0,0.0,0.0,0.0,0.0,0.0,0.0,0.0,0.0,0.0,0.0,0.0,0.0,0.0,0.0,0.0,0.0,0.0,0.0,0.0,-1.1181,-1.4943,-1.6072,-1.4219,0.0,-1.4913,-1.5784,-1.5331,-1.6022,-1.7754,-1.8591,-1.9412,-2.0279,-2.1233,-2.1765,-2.1873,-2.1026,-2.0222,-1.9403,-1.8852,-1.945,-2.0621,-2.0649,-2.1743,-2.3312,0.0,0.0,0.0,0.0,0.0,-2.0653,-2.3735,-2.5216,-2.5904,-2.5636,-2.7482,-2.8588,-2.8048,-2.8626,-2.8326,-2.6444,-2.548,0.0,0.0,0.0,0.0,-2.1354,-2.0665,-1.9761,-1.8709,-1.8163,-1.7682,0.0,0.0,0.0,0.0,0.0,0.0,0.0,0.0,0.0,-1.5781,-1.5532,0.0,-1.6824,-1.6934,-1.7123,-1.738,-1.7805,-1.7958,-1.7885,-1.7395,-1.6429,-1.5401,-1.52,-1.4819,-1.4396,-1.4396,-1.4396,-1.4537,-1.516,-1.5309,-1.5381,-1.614,-1.6284,-1.5993,-1.5008,-1.506,-1.4952,-1.3392,-1.3392,-1.3447,-1.2497,-1.2696,-1.2686,-1.1523,0.0,0.0,0.0,0.0,0.0,0.0,0.0,0.0,0.0,0.0,0.0,0.0,0.0,0.0,0.0,0.0,0.0,0.0,0.0,0.0,0.0,-1.3373,0.0,0.0,0.0,-1.5293,-1.8417,-1.6168,-1.6077,-1.7862,-1.8091,-1.8982,-2.0387,-2.0748,-2.1585,-2.2597,-2.1255,-1.9904,-1.8734,-1.9222,-2.0189,-2.1367,-2.1814,-2.2827,-2.3937,0.0,0.0,0.0,0.0,0.0,0.0,0.0,-2.6499,-2.7748,-2.6901,-2.7261,-2.7594,-2.7545,-2.7742,-2.741,-2.6265,-2.5205,-2.4116,-2.2925,-2.2077,-2.1495,-2.1244,-2.0852,0.0,-1.9091,-1.86,-1.813,-1.7649,0.0,0.0,0.0,0.0,0.0,0.0,0.0,-1.538,0.0,0.0,0.0,-1.6877,-1.7214,-1.7434,-1.7591,-1.7965,-1.8084,-1.805,-1.7767,-1.7066,-1.6191,-1.5517,-1.5123,-1.4863,-1.4863,-1.5112,-1.5386,-1.5382,-1.5635,-1.5927,-1.5925,-1.6179,-1.6303,-1.5698,-1.5526,-1.5199,-1.4031,-1.3796,-1.3581,-1.2787,-1.2608,-1.2295,-1.1191,-1.0383,0.0,0.0,0.0,0.0,0.0,0.0,0.0,0.0,0.0,0.0,0.0,0.0,0.0,0.0,0.0,0.0,0.0,0.0,0.0,0.0,0.0,0.0,0.0,0.0,0.0,-1.7669,-1.6105,-1.6313,-1.8063,-1.8135,-1.88,-1.9943,-2.0068,-2.0741,-2.1679,-2.0577,-1.9713,-1.9131,-1.9834,-2.0706,-2.1625,-2.2147,-2.2741,-2.3302,0.0,-1.9477,0.0,0.0,-2.1856,0.0,-2.4512,-2.698,-2.8587,-2.8313,-2.7385,-2.6895,-2.7256,-2.6925,-2.6459,-2.5887,-2.4821,-2.3686,-2.2624,-2.1965,-2.1408,-2.0973,-2.0697,-2.0194,-1.943,-1.8938,-1.8469,0.0,0.0,0.0,0.0,0.0,0.0,0.0,0.0,0.0,0.0,0.0,-1.682,-1.7049,-1.7489,-1.7744,-1.7897,-1.803,-1.8084,-1.8084,-1.8084,-1.771,-1.7043,-1.6028,-1.5619,-1.5506,-1.5506,-1.5872,-1.6182,-1.5629,-1.588,-1.6245,-1.5725,-1.6001,-1.6406,-1.6257,-1.5948,-1.5468,-1.4592,-1.413,-1.37,-1.3037,-1.248,-1.185,-1.1085,-1.0709,0.0,0.0,0.0,0.0,0.0,0.0,0.0,0.0,0.0,0.0,0.0,0.0,0.0,0.0,0.0,0.0,0.0,0.0,0.0,0.0,0.0,-1.5055,-1.475,0.0,-1.5557,-1.6992,-1.6045,-1.6514,-1.8228,-1.8279,-1.8747,-1.9512,-1.9573,-1.9918,-2.0428,-1.9989,-1.9792,-1.9883,-2.055,-2.1326,-2.2061,-2.2335,-2.2502,-2.2703,0.0,0.0,0.0,0.0,0.0,0.0,-2.639,-2.6812,-2.7193,-2.785,-2.8505,-2.8587,-2.776,-2.7028,-2.6166,-2.5003,-2.4754,-2.399,-2.2525,-2.1882,-2.1432,-2.1096,-2.0106,-1.9506,-1.9387,-1.8938,-1.8469,0.0,0.0,-1.6862,0.0,0.0,0.0,0.0,0.0,0.0,0.0,-1.6678,-1.7003,-1.7457,-1.7512,-1.7661,-1.7897,-1.7897,-1.7991,-1.8084,-1.8084,-1.771,-1.7183,-1.7055,-1.6664,-1.6204,-1.6204,-1.6252,-1.63,-1.6343,-1.6138,-1.5951,-1.636,-1.6217,-1.59,-1.5632,-1.5948,-1.5858,-1.416,-1.4166,-1.4212,-1.3121,-1.248,-1.223,-1.2594,-1.1663,-1.0646,0.0,0.0,0.0,0.0,0.0,0.0,0.0,0.0,0.0,0.0,-0.8506,0.0,0.0,0.0,0.0,0.0,0.0,0.0,-1.1513,0.0,-1.4218,-1.5474,-1.5027,-1.6218,-1.8994,-1.6707,-1.6536,-1.8299,-1.8299,-1.8773,-1.9594,-1.9594,-1.9636,-1.9741,-2.021,-2.0465,-2.0564,-2.1233,-2.2298,-2.3345,-2.2792,-2.2842,-2.3217,0.0,0.0,0.0,0.0,0.0,0.0,0.0,-2.7463,-2.7912,-2.8223,-2.8302,-2.7944,-2.6966,-2.6141,-2.5351,-2.4599,-2.4033,-2.3181,-2.1996,-2.1721,-2.1277,-2.0522,-2.0052,-1.9824,-1.9824,-1.9344,-1.9037,0.0,0.0,0.0,0.0,0.0,0.0,0.0,0.0,-1.7003,-1.73,-1.7148,-1.7175,-1.7407,-1.7479,-1.7551,-1.7661,-1.7755,-1.7854,-1.7991,-1.7991,-1.7877,-1.7744,-1.7744,-1.7349,-1.6836,-1.6836,-1.7081,-1.7338,-1.7168,-1.6574,-1.6069,-1.6476,-1.6078,-1.5605,-1.5948,-1.6211,-1.6138,-1.5033,-1.4982,-1.4797,-1.3615,-1.2958,-1.2728,-1.3288,-1.2667,-1.1842,0.0,0.0,0.0,0.0,0.0,0.0,0.0,0.0,0.0,0.0,0.0,0.0,0.0,0.0,0.0,0.0,0.0,0.0,-1.3358,0.0,-1.5729,-1.768,-1.6882,-1.7277,-1.8809,-1.7814,-1.773,-1.8411,-1.8411,-1.8624,-1.897,-1.9235,-1.941,-1.9528,-2.0091,-2.0888,-2.1818,-2.2008,-2.268,-2.3483,-2.3098,-2.2819,-2.2673,-2.5767,0.0,-2.4886,0.0,-2.6164,-2.6745,-2.702,-2.7857,-2.8342,-2.7861,-2.7753,-2.732,-2.6391,-2.5509,-2.4708,-2.4041,-2.3371,-2.2634,-2.1717,-2.1616,-2.1255,-2.0413,-2.0216,0.0,-2.0118,-1.978,-1.9529,-1.9387,-1.8931,0.0,0.0,0.0,0.0,0.0,-1.8208,-1.8007,-1.812,-1.795,-1.7731,-1.757,-1.7661,-1.7629,-1.7496,-1.7617,-1.7728,-1.7854,-1.7881,-1.7963,-1.8057,-1.8084,-1.7828,-1.7463,-1.7463,-1.7756,-1.803,-1.7755,-1.7049,-1.6432,-1.6645,-1.6133,-1.567,-1.6167,-1.6374,-1.6249,-1.5646,-1.5461,-1.5127,-1.403,-1.3568,-1.3411,-1.3604,-1.3372,-1.2792,-1.1726,0.0,0.0,0.0,0.0,0.0,0.0,-1.1237,-1.1023,-1.1637,0.0,0.0,0.0,0.0,0.0,0.0,0.0,0.0,0.0,0.0,0.0,-1.8325,-1.7665,-1.781,-1.8705,-1.8562,-1.8498,-1.8498,-1.8498,-1.8576,-1.8733,-1.9065,-1.9343,-1.9628,-2.0207,-2.1251,-2.2477,-2.2615,-2.298,-2.3411,-2.3271,-2.2804,-2.2263,-2.7096,-2.7397,-2.781,-2.8338,-2.8474,-2.8086,-2.7066,-2.7798,-2.7933,-2.6334,-2.7055,-2.732,-2.6391,-2.5509,-2.4434,-2.3026,-2.2985,-2.267,-2.1869,-2.1686,-2.1466,0.0,0.0,-2.0118,-2.0118,-2.0107,-1.9867,-1.9387,0.0,0.0,-1.8209,0.0,-1.8762,-1.9395,-1.9227,-1.9179,-1.9168,-1.9179,-1.8788,-1.8198,-1.8198,-1.791,-1.7496,-1.7496,-1.759,-1.7711,-1.7854,-1.7897,-1.7936,-1.8057,-1.8084,-1.8084,-1.8084,-1.8084,-1.8084,-1.8084,-1.7567,-1.7,-1.6972,-1.656,-1.6075,-1.6114,-1.6249,-1.6249,-1.5646,-1.5395,-1.5072,-1.4272,-1.4247,-1.4199,-1.361,-1.3608,-1.3259,-1.1908,0.0,0.0,0.0,0.0,0.0,0.0,-1.0263,-1.0174,-1.1119,0.0,0.0,0.0,0.0,0.0,0.0,0.0,0.0,-1.2828,-1.2548,0.0,-1.6496,-1.6652,-1.7544,-1.919,-1.8733,-1.8498,-1.8498,-1.8498,-1.8741,-1.919,-1.9204,-1.9495,-2.0061,-2.0804,-2.1531,-2.2287,-2.3003,-2.3291,-2.3291,-2.3291,-2.2823,-2.2231,-2.7238,-2.7753,-2.8198,-2.8005,-2.827,-2.8402,-2.8026,-2.8294,-2.833,-2.7813,-2.8041,-2.7675,-2.6143,-2.5396,-2.456,0.0,-2.2994,-2.2545,0.0,-2.1589,-2.1172,-2.0951,-2.0107,-1.968,-1.9764,-1.9669,-1.9678,-1.9743,0.0,0.0,0.0,-1.9459,-1.9767,-2.0404,-1.9798,-1.9683,-1.9863,-1.9385,-1.9071,-1.8833,-1.8371,-1.8109,-1.7944,-1.7528,-1.7462,-1.7562,-1.7606,-1.7744,-1.7909,-1.7936,-1.803,-1.8084,-1.8084,-1.8084,-1.8084,-1.8084,-1.7306,-1.647,-1.6886,-1.6189,-1.5483,-1.5975,-1.6066,-1.6017,-1.594,-1.5497,-1.5169,-1.5403,-1.4889,-1.4414,-1.4385,-1.4011,-1.3234,-1.1866,-1.2116,0.0,0.0,0.0,0.0,0.0,-1.134,-1.1164,0.0,-1.1261,0.0,0.0,0.0,0.0,0.0,0.0,0.0,0.0,-1.5755,0.0,-1.8735,-1.8423,-1.8418,-1.8733,-1.8896,-1.9014,-1.9143,-1.9488,-1.974,-1.9886,-2.0128,-2.0373,-2.0661,-2.1315,-2.209,-2.2865,-2.2649,-2.2852,-2.3225,-2.262,-2.2329,-2.2208,-2.7726,-2.8132,-2.8402,-2.8077,-2.8294,-2.8287,-2.7774,-2.8127,-2.8287,-2.7762,-2.81,-2.7775,-2.6155,-2.5482,0.0,-2.3464,-2.2996,-2.2608,-2.2324,-2.184,-2.1369,-2.0905,-2.0314,-1.9931,-1.9903,-1.9819,0.0,-2.021,-2.021,-2.0272,-2.0461,-2.0272,-2.0461,-2.0892,-2.0333,-2.023,-2.0435,-2.0017,-1.9587,-1.9168,-1.8725,-1.8433,-1.8125,-1.7537,-1.7489,-1.775,-1.7562,-1.7606,-1.7772,-1.7799,-1.7909,-1.8002,-1.792,-1.7975,-1.8084,-1.8084,-1.7301,-1.6502,-1.6897,-1.621,-1.5554,-1.6199,-1.6228,-1.6087,-1.6038,-1.5625,-1.5392,-1.5862,-1.5405,-1.4897,-1.4759,-1.4397,-1.3706,-1.2411,-1.2665,-1.2857,-1.2461,0.0,0.0,0.0,0.0,0.0,0.0,-1.1962,-1.1555,0.0,0.0,0.0,0.0,0.0,0.0,-1.6031,-1.6692,0.0,-1.9699,-1.8776,-1.8638,-1.9315,-1.9503,-1.9656,-1.9789,-2.0069,-2.0297,-2.0468,-2.0616,-2.0849,-2.1129,-2.1547,-2.2114,-2.265,-2.2268,-2.2433,-2.28,-2.223,-2.2091,-2.2184,-2.8402,-2.8371,-2.8407,0.0,-2.8407,0.0,-2.6553,-2.751,-2.7913,-2.6579,-2.738,-2.7621,-2.6412,-2.5712,-2.4689,-2.3152,0.0,0.0,0.0,-2.2302,-2.1901,-2.1016,-2.0917,-2.072,-2.0399,-2.0355,-2.0474,-2.0701,-2.0733,-2.0786,-2.0903,-2.0754,-2.0754,-2.0871,-2.0722,-2.0754,-2.0903,-2.0903,-2.0308,-1.934,-1.9287,-1.8885,-1.8209,-1.7592,-1.7698,-1.8098,-1.7678,-1.7551,-1.7579,-1.7773,-1.7889,-1.7938,-1.7695,-1.785,-1.8141,-1.8141,-1.7601,-1.7022,-1.7086,-1.6633,-1.6238,-1.6756,-1.6658,-1.6329,-1.5982,-1.5798,-1.5711,-1.573,-1.5827,-1.5652,-1.4821,-1.4734,-1.4455,-1.3423,-1.3238,-1.3222,-1.3304,0.0,0.0,0.0,0.0,0.0,0.0,-1.2594,-1.2615,0.0,0.0,0.0,0.0,0.0,-1.3563,-1.5949,-1.5944,-1.711,-1.962,-1.8106,-1.846,-2.0712,-2.0418,-2.0342,-2.0435,-2.034,-2.0537,-2.0942,-2.0804,-2.1002,-2.1423,-2.1544,-2.1688,-2.1793,-2.1926,-2.2067,-2.2161,-2.2044,-2.2067,-2.2137,0.0,0.0,-2.7435,-2.717,-2.7335,-2.7389,-2.7025,-2.7267,-2.751,-2.754,-2.7177,-2.663,-2.5993,-2.5146,-2.4178,-2.3093,-2.2831,-2.2732,-2.2826,-2.2399,-2.1985,-2.1614,-2.1041,-2.0581,-2.0245,-2.0086,-2.0297,-2.0839,-2.0999,-2.1031,-2.0903,-2.0754,-2.0733,-2.0733,-2.054,-2.0625,-2.0903,-2.0903,-2.083,-2.0685,-2.0163,-1.9558,-1.8896,-1.8231,-1.7803,-1.7559,-1.7915,-1.8118,-1.8345,-1.8843,-1.8862,-1.8669,-1.8697,-1.8736,-1.8656,-1.847,-1.7727,-1.719,-1.8053,-1.7417,-1.6647,-1.7379,-1.7122,-1.6553,-1.6013,-1.5798,-1.5759,-1.5941,-1.5961,-1.58,-1.5492,-1.5092,-1.4593,-1.3997,-1.3488,-1.3,-1.2491,-1.2291,0.0,0.0,-1.2079,-1.2741,-1.3082,-1.3577,-1.3778,0.0,0.0,0.0,0.0,-1.5338,-1.6262,-1.8105,-1.81,-1.8728,-2.0117,-1.9678,-1.9926,-2.085,-2.0983,-2.1002,-2.0941,-2.1287,-2.1438,-2.1421,-2.1278,-2.1287,-2.1423,-2.1544,-2.1616,-2.1664,-2.1793,-2.1864,-2.1902,-2.1864,-2.1864,-2.1902,-2.6901,-2.7087,-2.7267,-2.699,-2.7082,-2.7144,-2.6899,-2.7062,-2.7226,-2.7249,-2.6938,-2.6411,-2.5707,-2.5068,-2.435,-2.3364,-2.3066,-2.2896,-2.2809,-2.2575,-2.2179,-2.1653,-2.1219,-2.0867,-2.0529,-2.0401,-2.0588,-2.1031,-2.1063,-2.0999,-2.0903,-2.0658,-2.0572,-2.0572,-2.0443,-2.054,-2.0818,-2.0871,-2.083,-2.0717,-2.0349,-1.9984,-1.958,-1.8907,-1.8636,-1.8632,-1.8647,-1.8728,-1.8879,-1.9208,-1.9118,-1.8879,-1.8851,-1.8781,-1.8762,-1.8717,-1.8253,-1.7875,-1.8345,-1.7807,-1.7226,-1.7657,-1.7606,-1.7328,-1.6878,-1.6597,-1.6507,-1.6826,-1.6573,-1.625,-1.6056,-1.5388,-1.4738,-1.4276,-1.3426,-1.2689,-1.2294,-1.1934,0.0,-1.1944,-1.2633,-1.3368,-1.402,-1.441,-1.4546,-1.4407,-1.3924,0.0,-1.6504,-1.667,-1.752,-1.9264,-1.9164,-1.9567,-2.0556,-2.0686,-2.0687,-2.0584,-2.123,-2.1356,-2.1014,-2.1507,-2.1688,-2.1592,-2.1471,-2.1399,-2.1423,-2.1496,-2.1544,-2.1616,-2.1688,-2.1746,-2.1793,-2.1722,-2.1746,-2.1793,-2.7441,-2.736,-2.7237,-2.7062,-2.7021,-2.6857,-2.6487,-2.6775,-2.694,-2.661,-2.6648,-2.646,-2.5638,-2.5284,-2.474,-2.3783,-2.3594,-2.3272,-2.2772,-2.2894,-2.2562,-2.17,-2.1688,-2.1496,-2.106,-2.0969,-2.1031,-2.119,-2.1031,-2.0935,-2.0871,-2.0593,-2.0476,-2.0521,-2.0521,-2.0685,-2.0947,-2.0997,-2.0799,-2.0463,-2.0384,-2.0304,-2.0128,-1.9569,-1.9655,-1.9996,-1.9505,-1.9351,-1.9362,-1.9482,-1.9298,-1.9,-1.8814,-1.872,-1.8752,-1.8903,-1.8879,-1.8783,-1.8528,-1.8186,-1.7916,-1.7823,-1.8111,-1.8275,-1.7874,-1.7616,-1.7553,-1.7729,-1.7266,-1.6745,-1.6521,-1.567,-1.4873,-1.452,-1.3247,-1.2309,-1.2425,0.0,-1.1752,-1.2958,-1.3355,-1.3983,-1.5091,-1.518,-1.52,-1.53,-1.4924,-1.5647,-1.7833,-1.7633,-1.8204,-1.9893,-1.9608,-1.9851,-2.0718,-2.1153,-2.0984,-2.0237,-2.1149,-2.1258,-2.0694,-2.1182,-2.1407,-2.1383,-2.1407,-2.1399,-2.1399,-2.1399,-2.1471,-2.1568,-2.1568,-2.164,-2.1722,-2.1616,-2.164,-2.1712,-2.7044,-2.6685,-2.6396,-2.6354,-2.6229,-2.6063,-2.6021,-2.6188,-2.6479,-2.6809,-2.6314,-2.6079,-2.6279,-2.5605,-2.4886,-2.4303,-2.4408,-2.4205,-2.3478,-2.3627,-2.3451,-2.2874,-2.2992,-2.2674,-2.1758,-2.1355,-2.1158,-2.119,-2.1158,-2.101,-2.0733,-2.0669,-2.0784,-2.1086,-2.1086,-2.1476,-2.2105,-2.1742,-2.1614,-2.1587,-2.1215,-2.0717,-2.0193,-2.0094,-1.9765,-1.9437,-1.9886,-2.003,-2.0128,-2.0685,-2.0393,-1.9758,-1.9821,-1.9595,-1.924,-1.9121,-1.9249,-1.949,-1.9587,-1.9359,-1.8938,-1.8414,-1.8749,-1.894,-1.7947,-1.803,-1.8195,-1.7812,-1.7236,-1.6837,-1.6894,-1.5877,-1.5055,-1.5194,-1.3265,-1.1923,-1.2489,0.0,-1.2382,-1.3098,-1.4538,-1.5648,-1.6138,-1.6026,-1.6131,-1.6652,-1.6627,-1.7164,-1.8481,-1.8865,-1.9496,-2.0518,-1.9913,-1.9692,-1.9976,-2.0804,-2.0941,-2.0369,-2.0535,-2.0236,-1.9566,-2.0276,-2.0536,-2.0445,-2.111,-2.1399,-2.1399,-2.1399,-2.1423,-2.1423,-2.1423,-2.1447,-2.1471,-2.1447,-2.1447,-2.1471,-2.6768,-2.6437,-2.6199,-2.6199,-2.6104,-2.6115,-2.6229,-2.6354,-2.6479,-2.6727,-2.6442,-2.6235,-2.6274,-2.5916,-2.5498,-2.5126,-2.5207,-2.4979,-2.4354,-2.3868,-2.3505,-2.3278,-2.3109,-2.2685,-2.1906,-2.1697,-2.1433,-2.119,-2.1094,-2.1115,-2.1236,-2.0857,-2.1072,-2.1721,-2.1565,-2.1677,-2.2014,-2.2195,-2.1953,-2.1514,-2.156,-2.1229,-2.074,-2.074,-2.054,-2.0318,-2.064,-2.074,-2.0785,-2.1089,-2.0669,-2.0036,-2.0214,-2.002,-1.968,-1.9318,-1.9274,-1.9341,-1.944,-1.9341,-1.9123,-1.8839,-1.9008,-1.9159,-1.8805,-1.8847,-1.8908,-1.8763,-1.8249,-1.7729,-1.743,-1.6291,-1.5506,-1.5882,-1.3951,0.0,0.0,-1.3598,-1.3584,-1.4637,-1.5664,-1.6434,-1.6839,-1.669,-1.6651,-1.6768,-1.6778,-1.73,-1.8528,-1.8859,-1.9553,-2.0649,-2.0363,-2.0268,-2.045,-2.0875,-2.0836,-2.0355,-2.0677,-2.0493,-1.9896,-2.0533,-2.0849,-2.0863,-2.1229,-2.1399,-2.1399,-2.1399,-2.1399,-2.1399,-2.1399,-2.1399,-2.1399,-2.1399,-2.1399,-2.1423,-2.6644,-2.6479,-2.6324,-2.624,-2.6229,-2.6354,-2.6561,-2.6644,-2.6685,-2.6685,-2.6727,-2.6651,-2.6376,-2.6371,-2.6217,-2.5934,-2.5888,-2.567,-2.513,-2.4347,-2.3831,-2.3602,-2.3133,-2.2673,-2.2261,-2.2123,-2.1858,-2.1374,-2.1213,-2.1253,-2.1493,-2.0978,-2.1294,-2.2228,-2.1879,-2.1844,-2.2105,-2.2376,-2.2086,-2.1397,-2.164,-2.1514,-2.119,-2.119,-2.119,-2.119,-2.119,-2.119,-2.1213,-2.1264,-2.0801,-2.0205,-2.0434,-2.0279,-1.9904,-1.9479,-1.9308,-1.9208,-1.9175,-1.9108,-1.9129,-1.9333,-1.9364,-1.9442,-1.9709,-1.9675,-1.961,-1.9593,-1.9114,-1.8532,-1.802,-1.686,-1.6143,-1.6553,0.0,0.0,0.0,-1.4835,-1.4761,-1.621,-1.6697,-1.7061,-1.7518,-1.7381,-1.7205,-1.7032,-1.7288,-1.7818,-1.8631,-1.9092,-1.9756,-2.0637,-2.0687,-2.0683,-2.0662,-2.0843,-2.06,-1.9957,-2.0553,-2.0564,-2.0044,-2.0676,-2.1003,-2.1089,-2.148,-2.1651,-2.1602,-2.1602,-2.1602,-2.1589,-2.144,-2.1399,-2.1412,-2.1548,-2.1507,-2.1412,-2.6715,-2.6727,-2.6727,-2.6282,-2.6396,-2.6561,-2.6603,-2.6768,-2.6891,-2.6891,-2.7026,-2.7138,-2.7133,-2.7133,-2.6926,-2.649,-2.6455,-2.6198,-2.5681,-2.5589,-2.5119,-2.4177,-2.3625,-2.3338,-2.3304,-2.2868,-2.2375,-2.1837,-2.1837,-2.1521,-2.096,-2.0926,-2.1403,-2.2389,-2.1901,-2.2298,-2.3212,-2.233,-2.1906,-2.1791,-2.142,-2.1224,-2.119,-2.119,-2.119,-2.119,-2.119,-2.119,-2.1238,-2.148,-2.1039,-2.0423,-2.0764,-2.0289,-1.9625,-1.9583,-1.9572,-1.9506,-1.9341,-1.9208,-1.9279,-2.0022,-2.0196,-2.023,-2.023,-2.0366,-2.0339,-1.9734,-1.9114,-1.8669,-1.8627,-1.7677,-1.7002,-1.7299,0.0,0.0,-1.6377,-1.5624,-1.5481,-1.704,-1.7567,-1.7953,-1.83,-1.8199,-1.8158,-1.8257,-1.9358,-1.9759,-1.9193,-2.0511,-2.1043,-2.0524,-2.0637,-2.0388,-1.9718,-2.0374,-2.01,-1.8913,-1.9445,-1.9432,-1.8949,-1.9863,-2.021,-2.0181,-2.1738,-2.2337,-2.2237,-2.2237,-2.2237,-2.2183,-2.1616,-2.1399,-2.1467,-2.2034,-2.1898,-2.148,-2.6685,-2.6644,-2.6644,-2.6479,-2.6644,-2.6809,-2.6933,-2.7026,-2.7108,-2.7108,-2.7149,-2.719,-2.719,-2.719,-2.711,-2.6955,-2.6932,-2.6726,-2.6209,-2.6175,-2.5716,-2.4682,-2.4177,-2.3728,-2.3419,-2.3224,-2.2903,-2.2398,-2.2398,-2.2421,-2.2434,-2.2148,-2.2537,-2.3485,-2.2994,-2.2982,-2.3384,-2.2995,-2.2467,-2.1883,-2.1709,-2.1445,-2.119,-2.119,-2.1385,-2.1594,-2.1305,-2.1397,-2.1631,-2.1628,-2.1072,-2.0455,-2.0897,-2.0651,-2.022,-2.022,-2.0119,-1.9988,-1.9756,-1.9539,-1.9556,-2.0167,-2.0283,-2.0318,-2.0454,-2.0556,-2.046,-1.9909,-1.9597,-1.9329,-1.8903,-1.8216,-1.7879,-1.8256,0.0,-1.7013,-1.8858,-1.7883,-1.7539,-1.8987,-1.8659,-1.8375,-1.8511,-1.8386,-1.827,-1.8099,-1.9056,-1.9633,-1.9673,-2.0749,-2.1264,-2.0992,-2.0604,-2.0319,-2.0149,-2.0445,-2.0316,-1.9851,-2.0059,-2.0227,-2.0357,-2.0716,-2.108,-2.1459,-2.2101,-2.2339,-2.23,-2.23,-2.2432,-2.2589,-2.2361,-2.237,-2.251,-2.2334,-2.2388,-2.2497,-2.6408,-2.6449,-2.6587,-2.6693,-2.685,-2.7026,-2.719,-2.719,-2.719,-2.719,-2.719,-2.719,-2.719,-2.719,-2.719,-2.719,-2.719,-2.7041,-2.6726,-2.6593,-2.6042,-2.4958,-2.4751,-2.4361,-2.3659,-2.3797,-2.3545,-2.2926,-2.2926,-2.3018,-2.3155,-2.2846,-2.3144,-2.3936,-2.3396,-2.3258,-2.3396,-2.3235,-2.2765,-2.2157,-2.2157,-2.195,-2.165,-2.1436,-2.1623,-2.191,-2.1303,-2.1329,-2.1641,-2.1563,-2.1039,-2.0489,-2.1006,-2.1011,-2.0816,-2.0919,-2.0816,-2.0672,-2.0474,-2.032,-2.0263,-2.0445,-2.0454,-2.0454,-2.0658,-2.0572,-2.0344,-2.0041,-1.9944,-1.9771,-1.9308,-1.886,-1.868,-1.9073,-1.8521,-1.8553,-1.998,-1.9221,-1.8839,-1.9809,-1.9224,-1.8771,-1.8804,-1.8696,-1.8529,-1.8344,-1.9082,-1.9848,-2.0592,-2.0974,-2.1197,-2.125,-2.0476,-2.0156,-2.0334,-2.0372,-2.0295,-2.0102,-2.0488,-2.0888,-2.1249,-2.1496,-2.1835,-2.2238,-2.253,-2.2635,-2.258,-2.258,-2.2718,-2.2908,-2.2723,-2.2764,-2.2911,-2.2774,-2.2868,-2.3043,-2.5902,-2.6183,-2.6582,-2.683,-2.7044,-2.7179,-2.7179,-2.7179,-2.7179,-2.7179,-2.7179,-2.719,-2.7179,-2.719,-2.719,-2.719,-2.719,-2.719,-2.719,-2.6749,-2.6042,-2.4969,-2.5429,-2.5245,-2.4235,-2.4671,-2.4393,-2.3419,-2.3419,-2.3155,-2.273,-2.273,-2.296,-2.3396,-2.2914,-2.2972,-2.3384,-2.2903,-2.2719,-2.2719,-2.2719,-2.2719,-2.2627,-2.1945,-2.1857,-2.1991,-2.1201,-2.0983,-2.1129,-2.133,-2.0963,-2.0522,-2.1114,-2.1312,-2.1347,-2.1557,-2.1592,-2.1592,-2.1592,-2.1592,-2.1483,-2.1025,-2.077,-2.0668,-2.0871,-2.0511,-2.0129,-2.0129,-2.002,-1.9922,-1.9922,-1.9593,-1.9395,-1.9593,-1.9318,-1.9142,-1.9295,-1.9185,-1.9108,-1.9119,-1.9108,-1.9142,-1.9285,-1.9175,-1.9175,-1.9285,-1.9933,-2.0808,-2.1942,-2.131,-2.0985,-2.1105,-2.0256,-1.9875,-2.0003,-2.0144,-1.9863,-1.9242,-2.0488,-2.109,-2.1142,-2.1937,-2.2211,-2.2153,-2.3031,-2.3323,-2.3195,-2.3195,-2.3195,-2.3143,-2.2541,-2.2306,-2.2425,-2.336,-2.3337,-2.2938,-2.5582,-2.5739,-2.5902,-2.5853,-2.6006,-2.6163,-2.6163,-2.6473,-2.6565,-2.6209,-2.6743,-2.7093,-2.6726,-2.7013,-2.719,-2.719,-2.719,-2.719,-2.719,-2.7082,-2.6703,-2.6065,-2.5819,-2.5566,-2.5268,-2.5027,-2.4763,-2.4439,-2.4131,-2.389,-2.3741,-2.3741,-2.3821,-2.3971,-2.381,-2.3833,-2.3936,-2.3396,-2.3178,-2.3155,-2.2823,-2.2719,-2.2662,-2.2173,-2.2249,-2.2492,-2.1638,-2.1554,-2.1955,-2.2366,-2.1927,-2.1222,-2.1424,-2.1522,-2.1522,-2.1592,-2.1832,-2.2029,-2.168,-2.2073,-2.2466,-2.1996,-2.1852,-2.1816,-2.1887,-2.2018,-2.2051,-2.1699,-2.1849,-2.2078,-2.2078,-2.1428,-2.0978,-2.1231,-2.0379,-1.9979,-2.0864,-1.9994,-1.9607,-2.0603,-1.9757,-1.9233,-1.9633,-1.9328,-1.9108,-1.9175,-1.9857,-2.0957,-2.2478,-2.1898,-2.1754,-2.227,-2.1665,-2.1236,-2.1046,-2.0396,-2.0168,-2.0409,-2.0778,-2.131,-2.1945,-2.2195,-2.2474,-2.2837,-2.3077,-2.3183,-2.3124,-2.3124,-2.3271,-2.3463,-2.3267,-2.3376,-2.3566,-2.3386,-2.3508,-2.3736,-2.5176,-2.5241,-2.5425,-2.5515,-2.5627,-2.5716,-2.5716,-2.5968,-2.606,-2.575,-2.6244,-2.6508,-2.6198,-2.6439,-2.6594,-2.6594,-2.6806,-2.7013,-2.7179,-2.719,-2.7093,-2.6783,-2.6473,-2.6129,-2.5716,-2.5589,-2.5429,-2.5233,-2.4935,-2.4797,-2.4797,-2.4797,-2.4682,-2.4487,-2.4487,-2.4372,-2.4177,-2.3831,-2.3705,-2.3682,-2.3408,-2.3155,-2.2937,-2.2665,-2.2475,-2.2302,-2.2106,-2.1905,-2.1801,-2.2335,-2.2015,-2.1463,-2.1775,-2.1961,-2.2042,-2.2113,-2.2357,-2.2564,-2.2466,-2.2848,-2.3274,-2.3198,-2.275,-2.2313,-2.2313,-2.2531,-2.2652,-2.2379,-2.2684,-2.3001,-2.3001,-2.2506,-2.2139,-2.2375,-2.1363,-2.0813,-2.1573,-2.0562,-2.0052,-2.0886,-2.018,-1.9644,-1.9793,-1.9544,-1.9429,-1.9551,-2.0608,-2.1678,-2.2743,-2.2625,-2.261,-2.2795,-2.2365,-2.1903,-2.1493,-2.0909,-2.0772,-2.1152,-2.134,-2.1794,-2.2421,-2.2636,-2.2913,-2.321,-2.3258,-2.3228,-2.3108,-2.3198,-2.33,-2.3407,-2.3407,-2.3526,-2.3682,-2.3434,-2.3583,-2.3917,-2.4679,-2.4742,-2.5004,-2.5497,-2.5578,-2.5578,-2.5578,-2.5612,-2.5624,-2.5578,-2.5658,-2.5693,-2.5647,-2.5716,-2.5761,-2.5716,-2.6129,-2.66,-2.703,-2.7098,-2.7121,-2.7121,-2.7167,-2.6754,-2.5865,-2.6255,-2.6283,-2.5784,-2.5739,-2.5716,-2.5716,-2.5716,-2.5451,-2.4981,-2.4981,-2.474,-2.4326,-2.4326,-2.4326,-2.4326,-2.4281,-2.3923,-2.3416,-2.336,-2.2655,-2.1762,-2.2603,-2.2187,-2.1264,-2.1732,-2.1732,-2.1596,-2.2176,-2.2516,-2.2777,-2.2964,-2.3001,-2.3099,-2.3509,-2.3662,-2.3814,-2.4366,-2.3493,-2.251,-2.251,-2.2542,-2.2575,-2.2575,-2.2936,-2.3263,-2.3263,-2.3096,-2.3015,-2.3149,-2.2253,-2.1618,-2.1834,-2.1042,-2.0498,-2.0659,-2.056,-2.041,-2.0072,-2.0,-2.0102,-2.0402,-2.1776,-2.2683,-2.2844,-2.3379,-2.3454,-2.2949,-2.2685,-2.2275,-2.1672,-2.1722,-2.1685,-2.1568,-2.2071,-2.2434,-2.2655,-2.3175,-2.3403,-2.3403,-2.3539,-2.342,-2.3138,-2.333,-2.3271,-2.3108,-2.3108,-2.3108,-2.3138,-2.3437,-2.3569,-2.3586,-2.4313,-2.4313,-2.4395,-2.4499,-2.4533,-2.4533,-2.4533,-2.4843,-2.4946,-2.4568,-2.5222,-2.5555,-2.513,-2.5807,-2.614,-2.575,-2.5807,-2.5922,-2.6037,-2.6416,-2.6634,-2.6634,-2.7013,-2.7087,-2.6869,-2.6611,-2.6455,-2.6341,-2.5911,-2.5716,-2.5716,-2.5716,-2.5647,-2.5543,-2.5543,-2.5486,-2.5383,-2.5383,-2.5383,-2.5348,-2.4935,-2.4317,-2.3663,-2.3798,-2.3171,-2.2291,-2.2868,-2.2917,-2.2739,-2.2785,-2.2961,-2.3144,-2.2936,-2.2888,-2.2927,-2.3001,-2.3001,-2.3023,-2.3132,-2.3438,-2.3814,-2.4366,-2.4257,-2.4017,-2.4017,-2.4301,-2.4552,-2.4552,-2.4934,-2.5273,-2.5273,-2.4632,-2.4211,-2.4451,-2.2885,-2.2009,-2.2977,-2.1866,-2.1373,-2.2459,-2.1952,-2.1611,-2.188,-2.1569,-2.1395,-2.1466,-2.218,-2.2834,-2.3323,-2.3875,-2.4136,-2.4055,-2.4433,-2.4116,-2.2989,-2.3406,-2.3119,-2.2133,-2.2246,-2.2535,-2.2992,-2.328,-2.3403,-2.3403,-2.3539,-2.3509,-2.333,-2.3373,-2.3271,-2.3108,-2.3108,-2.3108,-2.3108,-2.3198,-2.3198,-2.3258,-2.42,-2.42,-2.42,-2.42,-2.42,-2.42,-2.42,-2.4407,-2.4487,-2.4235,-2.4659,-2.4877,-2.4602,-2.5061,-2.5371,-2.5337,-2.5337,-2.544,-2.5693,-2.5957,-2.6209,-2.6501,-2.6726,-2.6978,-2.7179,-2.6967,-2.6829,-2.6829,-2.6565,-2.6313,-2.6071,-2.6071,-2.5945,-2.5716,-2.5716,-2.5588,-2.5383,-2.5588,-2.5588,-2.536,-2.5077,-2.4566,-2.4007,-2.404,-2.3253,-2.2301,-2.3232,-2.3356,-2.3066,-2.2937,-2.2891,-2.2885,-2.274,-2.2777,-2.2852,-2.2852,-2.2927,-2.3099,-2.358,-2.3897,-2.4203,-2.4694,-2.4989,-2.5098,-2.4869,-2.504,-2.5215,-2.5215,-2.5557,-2.5895,-2.5895,-2.5502,-2.5199,-2.5357,-2.4068,-2.3246,-2.3879,-2.2885,-2.2377,-2.3101,-2.2973,-2.2825,-2.2809,-2.2513,-2.2304,-2.2413,-2.3192,-2.3707,-2.3873,-2.4802,-2.5099,-2.4623,-2.5312,-2.5243,-2.4233,-2.4531,-2.4298,-2.3471,-2.3238,-2.3432,-2.3991,-2.3849,-2.3766,-2.3783,-2.3756,-2.3611,-2.3403,-2.345,-2.339,-2.3241,-2.3138,-2.3108,-2.3108,-2.3108,-2.3108,-2.3138,-2.42,-2.42,-2.42,-2.42,-2.42,-2.42,-2.42,-2.42,-2.42,-2.42,-2.42,-2.42,-2.42,-2.4269,-2.4522,-2.5004,-2.4969,-2.5107,-2.5543,-2.5578,-2.5761,-2.6226,-2.6409,-2.6668,-2.7093,-2.7144,-2.719,-2.719,-2.719,-2.7013,-2.6639,-2.6639,-2.637,-2.5968,-2.5968,-2.5677,-2.5184,-2.5558,-2.5508,-2.5122,-2.4876,-2.462,-2.4309,-2.4096,-2.3197,-2.2179,-2.3509,-2.3524,-2.2863,-2.2762,-2.2434,-2.2101,-2.2312,-2.2515,-2.2665,-2.2665,-2.2777,-2.3074,-2.3889,-2.4211,-2.4414,-2.4796,-2.5295,-2.5557,-2.5193,-2.5185,-2.5292,-2.5128,-2.5437,-2.5753,-2.5624,-2.5614,-2.5635,-2.5681,-2.4938,-2.4424,-2.4542,-2.3865,-2.337,-2.3412,-2.3831,-2.3935,-2.3566,-2.3431,-2.3479,-2.3647,-2.4694,-2.5192,-2.4878,-2.5974,-2.6151,-2.5148,-2.5883,-2.5921,-2.516,-2.5346,-2.5301,-2.5023,-2.4589,-2.4596,-2.4956,-2.452,-2.4298,-2.4171,-2.4047,-2.3761,-2.3403,-2.3509,-2.348,-2.333,-2.3168,-2.3158,-2.3246,-2.3246,-2.3195,-2.3108,-2.42,-2.42,-2.42,-2.42,-2.42,-2.42,-2.42,-2.42,-2.42,-2.42,-2.42,-2.42,-2.42,-2.4568,-2.5027,-2.5566,-2.5187,-2.4946,-2.5015,-2.5027,-2.505,-2.5119,-2.603,-2.6536,-2.6605,-2.7001,-2.719,-2.719,-2.719,-2.7156,-2.7128,-2.7128,-2.7093,-2.6984,-2.6984,-2.653,-2.579,-2.583,-2.583,-2.5672,-2.4459,-2.4183,-2.443,-2.3923,-2.3199,-2.253,-2.3253,-2.3052,-2.2504,-2.2727,-2.2586,-2.2355,-2.2381,-2.2402,-2.244,-2.244,-2.2478,-2.251,-2.2638,-2.3133,-2.3571,-2.3636,-2.4183,-2.4661,-2.4596,-2.5218,-2.5579,-2.4749,-2.4956,-2.5101,-2.4556,-2.444,-2.4489,-2.4643,-2.423,-2.4117,-2.4777,-2.4388,-2.4138,-2.4312,-2.4655,-2.485,-2.4745,-2.54,-2.5848,-2.587,-2.686,-2.7396,-2.7155,-2.7343,-2.7132,-2.6463,-2.6565,-2.6205,-2.5275,-2.5807,-2.6063,-2.5997,-2.5921,-2.5535,-2.482,-2.4861,-2.4621,-2.4196,-2.4292,-2.3968,-2.3403,-2.3433,-2.33,-2.3138,-2.3108,-2.3409,-2.3879,-2.3879,-2.3534,-2.3108,-2.42,-2.42,-2.42,-2.42,-2.42,-2.42,-2.42,-2.42,-2.42,-2.42,-2.42,-2.42,-2.42,-2.4384,-2.4602,-2.4843,-2.4648,-2.451,-2.451,-2.451,-2.4636,-2.49,-2.536,-2.5876,-2.649,-2.6404,-2.6617,-2.719,-2.719,-2.7082,-2.6806,-2.6806,-2.6806,-2.6795,-2.6257,-2.5846,-2.5477,-2.5241,-2.4948,-2.4665,-2.4043,-2.4083,-2.4387,-2.3549,-2.3129,-2.305,-2.2902,-2.2659,-2.2397,-2.2418,-2.2317,-2.2214,-2.2101,-2.2138,-2.2214,-2.2214,-2.2327,-2.2466,-2.2722,-2.2994,-2.3232,-2.3232,-2.3791,-2.4165,-2.3468,-2.4357,-2.5155,-2.4732,-2.4643,-2.4621,-2.4543,-2.4554,-2.4578,-2.4661,-2.4541,-2.4513,-2.484,-2.4576,-2.4504,-2.4879,-2.5243,-2.5557,-2.5875,-2.6393,-2.6737,-2.6737,-2.7462,-2.7738,-2.7355,-2.768,-2.7611,-2.7033,-2.71,-2.6922,-2.6419,-2.6777,-2.6928,-2.699,-2.686,-2.6545,-2.6036,-2.5784,-2.5459,-2.5141,-2.4969,-2.467,-2.4272,-2.3956,-2.3829,-2.3816,-2.3676,-2.3966,-2.4387,-2.3979,-2.3661,-2.338]},{"header":{"parameterUnit":"m.s-1","parameterCategory":1,"la1":30.6,"la2":28.766,"lo1":-90.7593,"lo2":-88.6598,"dy":0.0162,"dx":0.0183,"nx":116,"ny":114,"refTime":"2024-03-10T12:00:00:Z","depth":0,"parameterNumber":3,"parameterNumberName":"V-component_of_WINDS"},"data":[0.0,0.0,0.0,0.0,0.0,0.0,0.0,0.0,0.0,0.0,0.0,0.0,0.0,0.0,0.0,0.0,0.0,0.0,0.0,0.0,0.0,0.0,0.0,0.0,0.0,0.0,0.0,0.0,0.0,0.0,0.0,0.0,0.0,0.0,0.0,0.0,0.0,0.0,0.0,0.0,0.0,0.0,0.0,0.0,0.0,0.0,0.0,0.0,0.0,0.0,0.0,0.0,0.0,0.0,0.0,0.0,0.0,0.0,0.0,0.0,0.0,0.0,0.0,0.0,0.0,0.0,0.0,0.0,0.0,0.0,0.0,0.0,0.0,0.0,0.0,0.0,0.0,0.0,0.0,0.0,0.0,0.0,0.0,0.0,0.0,0.0,0.0,0.0,0.0,0.0,0.0,0.0,0.0,0.0,0.0,0.0,0.0,0.0,0.0,0.0,0.0,0.0,0.0,0.0,0.0,0.0,0.0,0.0,0.0,0.0,0.0,0.0,0.0,0.0,0.0,0.0,0.0,0.0,0.0,0.0,0.0,0.0,0.0,0.0,0.0,0.0,0.0,0.0,0.0,0.0,0.0,0.0,0.0,0.0,0.0,0.0,0.0,0.0,0.0,0.0,0.0,0.0,0.0,0.0,0.0,0.0,0.0,0.0,0.0,0.0,0.0,0.0,0.0,0.0,0.0,0.0,0.0,0.0,0.0,0.0,0.0,0.0,0.0,0.0,0.0,0.0,0.0,0.0,0.0,0.0,0.0,0.0,0.0,0.0,0.0,0.0,0.0,0.0,0.0,0.0,0.0,0.0,0.0,0.0,0.0,0.0,0.0,0.0,0.0,0.0,0.0,0.0,0.0,0.0,0.0,0.0,0.0,0.0,0.0,0.0,0.0,0.0,0.0,0.0,0.0,0.0,0.0,0.0,0.0,0.0,0.0,0.0,0.0,0.0,0.0,0.0,0.0,0.0,0.0,0.0,0.0,0.0,0.0,0.0,0.0,0.0,0.0,0.0,0.0,0.0,0.0,0.0,0.0,0.0,0.0,0.0,0.0,0.0,0.0,0.0,0.0,0.0,0.0,0.0,0.0,0.0,0.0,0.0,0.0,0.0,0.0,0.0,0.0,0.0,0.0,0.0,0.0,0.0,0.0,0.0,0.0,0.0,0.0,0.0,0.0,0.0,0.0,0.0,0.0,0.0,0.0,0.0,0.0,0.0,0.0,0.0,0.0,0.0,0.0,0.0,0.0,0.0,0.0,0.0,0.0,0.0,0.0,0.0,0.0,0.0,0.0,0.0,0.0,0.0,0.0,0.0,0.0,0.0,0.0,0.0,0.0,0.0,0.0,0.0,0.0,0.0,0.0,0.0,0.0,0.0,0.0,0.0,0.0,0.0,0.0,0.0,0.0,0.0,0.0,0.0,0.0,0.0,0.0,0.0,0.0,0.0,0.0,0.0,0.0,0.0,0.0,0.0,0.0,0.0,0.0,0.0,0.0,0.0,0.0,0.0,0.0,0.0,0.0,0.0,0.0,0.0,0.0,0.0,0.0,0.0,0.0,0.0,0.0,0.0,0.0,0.0,0.0,0.0,0.0,0.0,0.0,0.0,0.0,0.0,0.0,0.0,0.0,0.0,0.0,0.0,0.0,0.0,0.0,0.0,0.0,0.0,0.0,0.0,0.0,0.0,0.0,0.0,0.0,0.0,0.0,0.0,0.0,0.0,0.0,0.0,0.0,0.0,0.0,0.0,0.0,0.0,0.0,0.0,0.0,0.0,0.0,0.0,0.0,0.0,0.0,0.0,0.0,0.0,0.0,0.0,0.0,0.0,0.0,0.0,0.0,0.0,0.0,0.0,0.0,0.0,0.0,0.0,0.0,0.0,0.0,0.0,0.0,0.0,0.0,0.0,0.0,0.0,0.0,0.0,0.0,0.0,0.0,0.0,0.0,0.0,0.0,0.0,0.0,0.0,0.0,0.0,0.0,0.0,0.0,0.0,0.0,0.0,0.0,0.0,0.0,0.0,0.0,0.0,0.0,0.0,0.0,0.0,0.0,0.0,0.0,0.0,0.0,0.0,0.0,0.0,0.0,0.0,0.0,0.0,0.0,0.0,0.0,0.0,0.0,0.0,0.0,0.0,0.0,0.0,0.0,0.0,0.0,0.0,0.0,0.0,0.0,0.0,0.0,0.0,0.0,0.0,0.0,0.0,0.0,0.0,0.0,0.0,0.0,0.0,0.0,0.0,0.0,0.0,0.0,0.0,0.0,0.0,0.0,0.0,0.0,0.0,0.0,0.0,0.0,0.0,0.0,0.0,0.0,0.0,0.0,0.0,0.0,0.0,0.0,0.0,0.0,0.0,0.0,0.0,0.0,0.0,0.0,0.0,0.0,0.0,0.0,0.0,0.0,0.0,0.0,0.0,0.0,0.0,0.0,0.0,0.0,0.0,0.0,0.0,0.0,0.0,0.0,0.0,0.0,0.0,0.0,0.0,0.0,0.0,0.0,0.0,0.0,0.0,0.0,0.0,0.0,0.0,0.0,0.0,0.0,0.0,0.0,0.0,0.0,0.0,0.0,0.0,0.0,0.0,0.0,0.0,0.0,0.0,0.0,0.0,0.0,0.0,0.0,0.0,0.0,0.0,0.0,0.0,0.0,0.0,0.0,0.0,0.0,0.0,0.0,0.0,0.0,0.0,0.0,0.0,0.0,0.0,0.0,0.0,0.0,0.0,0.0,0.0,0.0,0.0,0.0,0.0,0.0,0.0,0.0,0.0,0.0,0.0,0.0,0.0,0.0,0.0,0.0,0.0,0.0,0.0,0.0,0.0,0.0,0.0,0.0,0.0,0.0,0.0,0.0,0.0,0.0,0.0,0.0,0.0,0.0,0.0,0.0,0.0,0.0,0.0,0.0,0.0,0.0,0.0,0.0,0.0,0.0,0.0,0.0,0.0,0.0,0.0,0.0,0.0,0.0,0.0,0.0,0.0,0.0,0.0,0.0,0.0,0.0,0.0,0.0,0.0,0.0,0.0,0.0,0.0,0.0,0.0,0.0,0.0,0.0,0.0,0.0,0.0,0.0,0.0,0.0,0.0,0.0,0.0,0.0,0.0,0.0,0.0,0.0,0.0,0.0,0.0,0.0,0.0,0.0,0.0,0.0,0.0,0.0,0.0,0.0,0.0,0.0,0.0,0.0,0.0,0.0,0.0,0.0,0.0,0.0,0.0,0.0,0.0,0.0,0.0,0.0,0.0,0.0,0.0,0.0,0.0,0.0,0.0,0.0,0.0,0.0,0.0,0.0,0.0,0.0,0.0,0.0,0.0,0.0,0.0,0.0,0.0,0.0,0.0,0.0,0.0,0.0,0.0,0.0,0.0,0.0,0.0,0.0,0.0,0.0,0.0,0.0,0.0,0.0,0.0,0.0,0.0,0.0,0.0,0.0,0.0,0.0,0.0,0.0,0.0,0.0,0.0,0.0,0.0,0.0,0.0,0.0,0.0,0.0,0.0,0.0,0.0,0.0,0.0,0.0,0.0,0.0,0.0,0.0,0.0,0.0,0.0,0.0,0.0,0.0,0.0,0.0,0.0,0.0,0.0,0.0,0.0,0.0,0.0,0.0,0.0,0.0,0.0,0.0,0.0,0.0,0.0,0.0,0.0,0.0,0.0,0.0,0.0,0.0,0.0,0.0,0.0,0.0,0.0,0.0,0.0,0.0,0.0,0.0,0.0,0.0,0.0,0.0,0.0,0.0,0.0,0.0,0.0,0.0,0.0,0.0,0.0,0.0,0.0,0.0,0.0,0.0,0.0,0.0,0.0,0.0,0.0,0.0,0.0,0.0,0.0,0.0,0.0,0.0,0.0,0.0,0.0,0.0,0.0,0.0,0.0,0.0,0.0,0.0,0.0,0.0,0.0,0.0,0.0,0.0,0.0,0.0,0.0,0.0,0.0,0.0,0.0,0.0,0.0,0.0,0.0,0.0,0.0,0.0,0.0,0.0,0.0,0.0,0.0,0.0,0.0,0.0,0.0,0.0,0.0,0.0,0.0,0.0,0.0,0.0,0.0,0.0,0.0,0.0,0.0,0.0,0.0,0.0,0.0,0.0,0.0,0.0,0.0,0.0,0.0,0.0,0.0,0.0,0.0,0.0,0.0,0.0,0.0,0.0,0.0,0.0,0.0,0.0,0.0,0.0,0.0,0.0,0.0,0.0,0.0,0.0,0.0,0.0,0.0,0.0,0.0,0.0,0.0,0.0,0.0,0.0,0.0,0.0,0.0,0.0,0.0,0.0,0.0,0.0,0.0,0.0,0.0,0.0,0.0,0.0,0.0,0.0,0.0,0.0,0.0,0.0,0.0,0.0,0.0,0.0,0.0,0.0,0.0,0.0,0.0,0.0,0.0,0.0,0.0,0.0,0.0,0.0,0.0,0.0,0.0,0.0,0.0,0.0,0.0,0.0,0.0,0.0,0.0,0.0,0.0,0.0,0.0,0.0,0.0,0.0,0.0,0.0,0.0,0.0,0.0,0.0,0.0,0.0,0.0,0.0,0.0,0.0,0.0,0.0,0.0,0.0,0.0,0.0,0.0,0.0,0.0,0.0,0.0,0.0,0.0,0.0,0.0,0.0,0.0,0.0,0.0,0.0,0.0,0.0,0.0,0.0,0.0,0.0,0.0,0.0,0.0,0.0,0.0,0.0,0.0,0.0,0.0,0.0,0.0,0.0,0.0,0.0,0.0,0.0,0.0,0.0,0.0,0.0,0.0,0.0,0.0,0.0,0.0,0.0,0.0,0.0,0.0,0.0,0.0,0.0,0.0,0.0,0.0,0.0,0.0,0.0,0.0,0.0,0.0,0.0,0.0,0.0,0.0,0.0,0.0,0.0,0.0,0.0,0.0,0.0,0.0,0.0,0.0,0.0,0.0,0.0,0.0,0.0,0.0,0.0,0.0,0.0,0.0,0.0,0.0,0.0,0.0,0.0,0.0,0.0,0.0,0.0,0.0,0.0,0.0,0.0,0.0,0.0,0.0,0.0,0.0,0.0,0.0,0.0,0.0,0.0,0.0,0.0,0.0,0.0,0.0,0.0,0.0,0.0,0.0,0.0,0.0,0.0,0.0,0.0,0.0,0.0,0.0,0.0,0.0,0.0,0.0,0.0,0.0,0.0,0.0,0.0,0.0,0.0,0.0,0.0,0.0,0.0,0.0,0.0,0.0,0.0,0.0,0.0,0.0,0.0,0.0,0.0,0.0,0.0,0.0,0.0,0.0,0.0,0.0,0.0,0.0,0.0,0.0,0.0,0.0,0.0,0.0,0.0,0.0,0.0,0.0,0.0,0.0,0.0,0.0,0.0,0.0,0.0,0.0,0.0,0.0,0.0,0.0,0.0,0.0,0.0,0.0,0.0,0.0,0.0,0.0,0.0,0.0,0.0,0.0,0.0,0.0,0.0,0.0,0.0,0.0,0.0,0.0,0.0,0.0,0.0,0.0,0.0,0.0,0.0,0.0,0.0,0.0,0.0,0.0,0.0,0.0,0.0,0.0,0.0,0.0,0.0,0.0,0.0,0.0,0.0,0.0,0.0,0.0,0.0,0.0,0.0,0.0,0.0,0.0,0.0,0.0,0.0,0.0,0.0,0.0,0.0,0.0,0.0,0.0,0.0,0.0,0.0,0.0,0.0,0.0,0.0,0.0,0.0,0.0,0.0,0.0,0.0,0.0,0.0,0.0,0.0,0.0,0.0,0.0,0.0,0.0,0.0,0.0,0.0,0.0,0.0,0.0,0.0,0.0,0.0,0.0,0.0,0.0,0.0,0.0,0.0,0.0,0.0,0.0,0.0,0.0,0.0,0.0,0.0,0.0,0.0,0.0,0.0,0.0,0.0,0.0,0.0,0.0,0.0,0.0,0.0,0.0,0.0,0.0,0.0,0.0,0.0,0.0,0.0,0.0,0.0,0.0,0.0,0.0,0.0,0.0,0.0,0.0,0.0,0.0,0.0,0.0,0.0,0.0,0.0,0.0,0.0,0.0,0.0,0.0,0.0,0.0,0.0,0.0,0.0,0.0,0.0,0.0,0.0,0.0,0.0,0.0,0.0,0.0,0.0,0.0,1.4694,0.0,0.0,0.0,0.0,0.0,0.0,0.0,0.0,0.0,0.0,0.0,0.0,0.0,0.0,0.0,0.0,0.0,0.0,0.0,0.0,0.0,0.0,0.0,0.0,0.0,0.0,0.0,1.2801,1.263,1.26,1.2269,1.1741,1.1019,1.1305,1.1045,1.0047,1.0687,1.1048,1.1089,1.1904,1.2898,1.4008,1.4165,0.0,0.0,0.0,0.0,0.0,0.0,0.0,0.0,0.0,0.0,0.0,0.0,0.0,0.0,0.0,0.0,0.0,0.0,0.0,0.0,0.0,0.0,0.0,0.0,0.0,0.0,0.0,0.0,0.0,0.0,0.0,0.0,0.0,0.0,0.0,0.0,0.0,0.0,0.0,0.0,0.0,0.0,0.0,0.0,0.0,0.0,0.0,0.0,0.0,0.0,0.0,0.0,0.0,0.0,0.0,0.0,0.0,0.0,0.0,0.0,0.0,0.0,0.0,0.0,0.0,0.0,0.0,0.0,0.0,0.0,0.0,0.0,0.0,1.619,0.0,0.0,0.0,0.0,0.0,0.0,0.0,0.0,0.0,0.0,0.0,0.0,0.0,0.0,0.0,0.0,0.0,0.0,0.0,0.0,0.0,0.0,0.0,1.2862,1.2825,1.2804,1.2738,1.2662,1.26,1.2077,1.1684,1.1512,1.1614,1.1395,1.0768,1.1364,1.1796,1.2001,1.3146,1.4846,1.7063,0.0,0.0,0.0,0.0,0.0,0.0,0.0,0.0,0.0,0.0,0.0,0.0,0.0,0.0,0.0,0.0,0.0,0.0,0.0,0.0,0.0,0.0,0.0,0.0,0.0,0.0,0.0,0.0,0.0,0.0,0.0,0.0,0.0,0.0,0.0,0.0,0.0,0.0,0.0,0.0,0.0,0.0,0.0,0.0,0.0,0.0,0.0,0.0,0.0,0.0,0.0,0.0,0.0,0.0,0.0,0.0,0.0,0.0,0.0,0.0,0.0,0.0,0.0,0.0,0.0,0.0,0.0,1.7732,1.8193,1.8432,1.8421,1.811,1.7602,1.7644,1.7813,1.792,1.6393,0.0,0.0,0.0,0.0,0.0,0.0,0.0,0.0,0.0,0.0,0.0,0.0,0.0,0.0,0.0,0.0,0.0,0.0,0.0,0.0,0.0,1.2703,1.2681,1.279,1.269,1.26,1.2593,1.2514,1.2189,1.1528,1.2053,1.2053,1.1403,1.2021,1.2651,1.3267,1.5416,1.7408,1.9217,2.0534,2.1199,2.1234,1.9055,0.0,0.0,0.0,0.0,0.0,0.0,0.0,0.0,0.0,0.0,0.0,0.0,0.0,0.0,0.0,0.0,0.0,0.0,0.0,0.0,0.0,0.0,0.0,0.0,0.0,0.0,0.0,0.0,0.0,0.0,0.0,0.0,0.0,0.0,0.0,0.0,0.0,0.0,0.0,0.0,0.0,0.0,0.0,1.6372,1.7782,0.0,0.0,0.0,0.0,0.0,0.0,0.0,0.0,0.0,0.0,0.0,0.0,0.0,1.5978,1.7218,1.7982,1.8444,1.8621,1.9173,1.9803,2.0502,2.0438,2.0711,2.1114,1.921,0.0,1.7788,1.8223,0.0,0.0,0.0,0.0,0.0,0.0,0.0,0.0,0.0,0.0,0.0,0.0,0.0,0.0,0.0,0.0,0.0,0.0,0.0,0.0,0.0,1.3448,1.3897,1.387,1.4888,1.501,1.3796,1.4076,1.3621,1.2132,1.2341,1.2356,1.2069,1.2341,1.3701,1.6144,1.8769,2.0878,2.2535,2.3539,2.4149,2.4364,2.3272,2.191,2.0391,2.0004,0.0,0.0,0.0,0.0,0.0,0.0,0.0,0.0,0.0,0.0,0.0,0.0,0.0,0.0,0.0,0.0,0.0,0.0,0.0,0.0,0.0,0.0,0.0,0.0,0.0,0.0,0.0,0.0,0.0,0.0,0.0,0.0,0.0,0.0,0.0,0.0,0.0,0.0,0.0,1.5818,1.7216,1.7838,1.7608,1.6642,0.0,0.0,0.0,0.0,0.0,0.0,0.0,0.0,0.0,1.4727,1.6187,1.7461,1.8466,1.9747,2.0886,2.1833,2.2435,2.292,2.3266,2.3219,2.3171,2.3021,2.2014,2.1066,2.0113,1.8735,1.8588,1.9134,0.0,0.0,0.0,0.0,1.5887,1.6142,0.0,0.0,0.0,0.0,0.0,0.0,0.0,0.0,0.0,0.0,0.0,0.0,1.3519,1.4781,1.5723,1.598,1.7255,1.7225,1.5241,1.5256,1.4462,1.2477,1.2399,1.2487,1.267,1.3636,1.5715,1.8945,2.1811,2.3924,2.536,2.6381,2.6934,2.703,2.7174,2.531,2.1963,2.1539,2.0527,0.0,0.0,0.0,0.0,0.0,0.0,0.0,0.0,0.0,0.0,0.0,0.0,0.0,0.0,0.0,0.0,0.0,0.0,0.0,0.0,0.0,0.0,0.0,0.0,0.0,0.0,0.0,0.0,0.0,0.0,0.0,0.0,0.0,0.0,0.0,0.0,0.0,0.0,1.664,1.8098,1.8059,1.8356,1.7629,0.0,0.0,0.0,0.0,0.0,0.0,1.4031,1.5094,1.5688,1.5661,1.7716,1.9104,1.9708,2.1211,2.2541,2.3686,2.4157,2.4498,2.4679,2.4499,2.4204,2.3862,2.3666,2.309,2.2112,1.9759,1.9226,1.9839,1.881,1.855,1.8546,1.7092,1.6999,1.7486,0.0,0.0,0.0,0.0,0.0,0.0,0.0,0.0,0.0,0.0,0.0,1.4218,1.5416,1.6741,1.8092,1.942,1.9054,1.8119,1.6601,1.5339,1.389,1.2194,1.2123,1.2457,1.3149,1.6712,1.936,2.0959,2.3905,2.5832,2.6828,2.8853,2.9594,2.9257,2.9832,2.8293,2.5159,2.3546,2.2483,2.1599,0.0,0.0,0.0,0.0,0.0,0.0,0.0,0.0,0.0,0.0,0.0,0.0,0.0,0.0,0.0,0.0,0.0,0.0,0.0,0.0,0.0,0.0,0.0,0.0,0.0,0.0,0.0,0.0,0.0,0.0,0.0,0.0,0.0,0.0,0.0,0.0,0.0,0.0,0.0,1.9005,2.0105,0.0,0.0,0.0,0.0,1.5188,1.5073,1.5721,1.7194,1.6806,1.7472,1.9541,2.0369,2.1052,2.1654,2.2115,2.2449,2.2588,2.2499,2.2835,2.3561,2.2867,2.2898,2.3498,2.277,2.2527,2.2543,2.2144,2.1422,2.0442,1.9458,1.9065,1.888,1.7286,1.7634,1.8755,0.0,0.0,0.0,0.0,0.0,0.0,0.0,0.0,1.2681,1.2607,1.4052,1.5411,1.6308,1.8843,2.0829,2.1725,2.2022,2.1237,1.9059,1.7302,1.5512,1.3659,1.2879,1.3347,1.5151,1.8762,2.148,2.3209,2.6189,2.826,2.9491,3.0138,3.0703,3.1144,3.1277,3.0517,2.8926,2.6254,2.4099,2.2412,2.111,1.9671,0.0,0.0,0.0,0.0,0.0,0.0,0.0,0.0,0.0,0.0,0.0,0.0,0.0,0.0,0.0,0.0,0.0,0.0,0.0,0.0,0.0,0.0,0.0,0.0,0.0,0.0,0.0,0.0,0.0,0.0,0.0,0.0,0.0,0.0,0.0,0.0,0.0,1.9833,2.0338,0.0,1.8979,1.8597,1.7948,1.6768,1.8069,1.8788,1.8531,1.9229,1.9767,2.0074,2.0944,2.1746,2.2448,2.2809,2.3503,2.4498,2.4454,2.4558,2.4833,2.4583,2.438,2.4193,2.3924,2.3389,2.2688,2.2245,2.2027,2.1884,2.1324,2.1232,2.1282,2.0279,2.0397,2.0971,0.0,0.0,0.0,0.0,0.0,0.0,0.0,0.0,1.2683,1.291,1.4993,1.6921,1.8089,2.1515,2.3915,2.4379,2.4451,2.3193,2.0198,1.796,1.5745,1.3489,1.3534,1.4769,1.7258,2.0661,2.3354,2.5277,2.7945,2.9839,3.0988,3.1533,3.2143,3.2772,3.2821,3.2547,3.1878,2.9271,2.6613,2.4048,2.2666,2.1171,1.9624,0.0,0.0,0.0,0.0,0.0,0.0,0.0,0.0,0.0,0.0,0.0,0.0,0.0,0.0,0.0,0.0,0.0,0.0,0.0,0.0,0.0,0.0,0.0,0.0,0.0,0.0,0.0,0.0,0.0,0.0,0.0,0.0,0.0,0.0,0.0,1.9528,1.9991,2.1019,2.1376,2.0559,2.0544,2.012,1.8929,2.0637,2.1166,1.9801,2.0868,2.1237,2.0592,2.145,2.2148,2.2628,2.303,2.372,2.4689,2.4689,2.4689,2.4689,2.4689,2.4301,2.3671,2.3977,2.3495,2.253,2.2465,2.2621,2.282,2.1969,2.1889,2.2228,2.1601,2.1773,2.2273,0.0,0.0,0.0,0.0,0.0,0.0,0.0,1.2614,1.2856,1.35,1.6085,1.8681,2.0834,2.4687,2.7184,2.742,2.6153,2.3697,1.9889,1.716,1.4424,1.1638,1.406,1.6709,1.9361,2.2486,2.5057,2.7089,2.9107,3.0472,3.1196,3.3029,3.3965,3.4147,3.4557,3.445,3.3866,3.2482,3.0058,2.6869,2.3861,2.2639,2.2264,0.0,0.0,0.0,0.0,0.0,0.0,0.0,0.0,0.0,0.0,0.0,0.0,0.0,0.0,0.0,0.0,0.0,0.0,0.0,0.0,0.0,0.0,0.0,0.0,0.0,0.0,0.0,0.0,0.0,0.0,0.0,0.0,0.0,1.488,1.836,2.0558,1.9587,2.2336,2.3716,2.2213,2.3533,2.3667,2.1709,2.2589,2.26,2.1141,2.1662,2.1797,2.1327,2.1957,2.2281,2.2281,2.2812,2.3037,2.2902,2.2917,2.2917,2.2902,2.2917,2.2517,2.1873,2.2731,2.2688,2.2098,2.2908,2.3268,2.3105,2.1272,2.0971,2.1505,2.0963,2.1511,2.2557,0.0,0.0,0.0,0.0,0.0,0.0,0.0,1.2738,1.2948,1.351,1.6945,2.0131,2.2218,2.5354,2.7543,2.8079,2.5309,2.2701,2.0733,1.7123,1.4806,1.4238,1.6017,1.8619,2.2054,2.4499,2.6759,2.8897,2.9751,3.0859,3.2196,3.29,3.3724,3.462,3.5227,3.5401,3.5214,3.4462,3.3297,3.1634,2.7928,2.5511,2.3993,0.0,0.0,0.0,0.0,0.0,0.0,0.0,0.0,0.0,0.0,0.0,0.0,0.0,0.0,0.0,0.0,0.0,0.0,0.0,0.0,0.0,0.0,0.0,0.0,0.0,0.0,0.0,0.0,0.0,0.0,0.0,1.6492,1.8099,1.8299,2.0194,2.1944,2.3023,2.4006,2.4299,2.3534,2.377,2.3725,2.308,2.3264,2.3237,2.2817,2.2301,2.1945,2.1813,2.1988,2.2033,2.1932,2.2621,2.291,2.2841,2.3055,2.3064,2.2855,2.3186,2.3066,2.2619,2.2838,2.2846,2.2635,2.2505,2.2717,2.3069,2.2253,2.2373,2.2899,2.2362,2.2631,2.3163,0.0,0.0,0.0,0.0,0.0,0.0,0.0,1.2811,1.309,1.3918,1.7277,2.0471,2.2742,2.5226,2.6765,2.6925,2.4258,2.1475,1.896,1.6053,1.511,0.0,0.0,2.0812,2.4177,2.6173,2.8064,2.9891,3.0567,3.1563,3.2841,3.3529,3.426,3.4946,3.587,3.6096,3.5779,3.5692,3.5321,3.4552,3.1931,2.9459,2.7208,2.5745,2.4502,2.3437,2.2751,2.2264,2.1569,1.9228,0.0,0.0,0.0,0.0,0.0,0.0,0.0,0.0,0.0,0.0,0.0,0.0,0.0,0.0,0.0,0.0,0.0,0.0,0.0,0.0,0.0,0.0,0.0,0.0,1.837,2.0876,2.2055,2.2743,2.363,2.4976,2.5706,2.5843,2.5279,2.5364,2.5152,2.441,2.4543,2.44,2.3777,2.3329,2.2772,2.2069,2.261,2.2692,2.2182,2.3069,2.3506,2.3478,2.3668,2.3702,2.3563,2.3851,2.3592,2.2976,2.3476,2.3281,2.2651,2.3148,2.3442,0.0,0.0,0.0,0.0,0.0,2.3295,2.3468,0.0,0.0,0.0,0.0,0.0,0.0,0.0,1.282,1.3251,1.4445,1.727,2.0118,2.2592,2.4438,2.5294,2.4794,2.29,2.0006,1.5997,1.4813,0.0,1.8911,2.0777,2.3083,2.5917,2.7582,2.9084,3.0467,3.146,3.2366,3.3183,3.4437,3.5049,3.5156,3.6306,3.6531,3.5998,3.6482,3.6534,3.6238,3.5626,3.3742,3.105,2.9043,2.8186,2.7883,2.6614,2.5401,2.4185,2.2718,0.0,0.0,0.0,0.0,0.0,0.0,0.0,0.0,0.0,0.0,0.0,0.0,0.0,0.0,0.0,0.0,0.0,0.0,0.0,0.0,0.0,0.0,0.0,0.0,2.0461,2.3489,2.5593,2.5644,2.5614,2.6159,2.7258,2.7713,2.7067,2.7478,2.7195,2.5747,2.6094,2.5775,2.4394,0.0,0.0,0.0,0.0,2.3686,2.2775,2.3865,2.4401,2.4376,2.4376,2.4422,2.4499,2.4499,2.397,2.3096,2.4185,2.3751,2.2468,2.4279,2.4811,2.4486,2.3919,2.3688,2.3635,2.3596,2.3678,2.3804,0.0,0.0,0.0,0.0,0.0,0.0,0.0,1.285,1.3294,1.4456,1.7142,1.9767,2.1869,2.3022,2.3652,2.3762,2.0673,1.7917,1.599,0.0,1.7899,2.106,2.2534,2.4669,2.7653,2.9143,3.0401,3.145,3.1933,3.2612,3.3516,3.4194,3.473,3.5143,3.6073,3.6721,3.7107,3.7212,3.7498,3.7926,3.7797,3.6033,3.3347,3.2289,3.1214,3.0172,2.9324,2.945,2.9551,2.6381,2.5679,2.5732,2.3638,0.0,0.0,0.0,0.0,0.0,0.0,0.0,0.0,0.0,0.0,0.0,0.0,0.0,0.0,0.0,0.0,0.0,0.0,0.0,0.0,2.1886,2.429,2.6281,2.7115,2.7755,2.8157,2.8142,2.7981,2.7795,2.7634,2.774,2.7585,2.7055,2.6909,2.6516,2.5668,2.4712,2.39,2.3258,2.3507,2.3483,2.3193,2.4006,2.4351,2.4237,0.0,0.0,2.3875,2.3923,2.3691,2.3246,2.3496,2.3393,2.3172,2.4078,2.5071,2.5946,2.5277,2.4759,2.4306,2.3666,2.4186,2.5038,0.0,0.0,0.0,0.0,0.0,0.0,0.0,1.2763,1.3109,1.3998,1.5763,1.7749,1.986,1.9784,1.9878,2.0595,1.7834,1.6386,0.0,1.8158,2.0355,2.3933,2.5457,2.7313,2.9703,3.0805,3.1649,3.2307,3.2701,3.322,3.3868,3.4137,3.4369,3.4658,3.577,3.6275,3.6306,3.7012,3.7535,3.7902,3.7902,3.7239,3.6173,3.5408,3.4471,3.355,3.3186,3.2738,3.2023,2.9924,2.8834,2.8113,2.667,2.4646,2.2322,0.0,0.0,0.0,0.0,0.0,0.0,0.0,0.0,0.0,0.0,0.0,0.0,0.0,0.0,1.7731,1.847,0.0,2.1717,2.4022,2.5932,2.7475,2.8546,2.9629,2.9939,2.8865,2.8535,2.8364,2.8313,2.7735,2.7394,2.7397,2.6459,2.5931,2.6035,2.5034,2.4196,2.3679,2.4337,2.441,2.3762,2.4682,2.5006,2.4731,2.4942,2.4796,2.4346,2.4582,2.4398,2.3866,2.4138,2.3947,2.351,2.4451,2.566,2.6877,2.6525,2.6078,2.5501,2.4775,2.4977,2.5486,0.0,0.0,0.0,0.0,0.0,0.0,0.0,1.2642,1.2893,1.35,1.4365,1.5652,1.7568,1.6713,1.6289,1.7,1.5654,1.5843,0.0,2.0096,2.2708,2.6513,2.815,2.9756,3.1401,3.2122,3.267,3.2944,3.3451,3.3833,3.4094,3.4128,3.4162,3.4196,3.5332,3.5593,3.524,3.6384,3.6982,3.7193,3.7147,3.7578,3.8124,3.7343,3.6786,3.6411,3.6066,3.4555,3.2684,3.2252,3.0782,2.9123,2.8858,2.78,2.5815,2.1648,2.0799,0.0,0.0,0.0,0.0,0.0,0.0,0.0,0.0,0.0,1.7212,1.7942,1.8903,1.9991,2.1219,2.175,2.2921,2.5714,2.7257,2.8461,2.9497,3.0702,3.0732,2.8727,2.8682,2.8778,2.877,2.7548,2.6922,2.7291,2.5956,2.5491,2.6358,2.5606,2.4974,2.4534,2.5467,2.548,2.4402,2.5425,2.5705,2.5291,2.5659,2.5554,2.5009,2.5361,2.5043,2.4268,2.4686,2.4534,2.4014,2.4901,2.6029,2.7193,2.7085,2.6862,2.6542,2.6138,2.5989,2.5989,0.0,0.0,0.0,0.0,0.0,0.0,0.0,0.0,1.2828,1.3431,1.4162,1.4968,1.5808,1.5747,1.5319,1.4491,1.5873,0.0,1.8584,2.1545,2.4557,2.7512,2.9118,3.0566,3.1872,3.2521,3.2944,3.3159,3.3758,3.4059,3.4094,3.4264,3.438,3.438,3.4534,3.4872,3.54,3.5514,3.5961,3.6508,3.6322,3.6753,3.7427,3.6477,3.6524,3.6784,3.5186,3.331,3.1606,3.1662,3.0819,2.9957,3.0907,3.012,2.803,2.3917,0.0,1.9308,1.3858,1.1386,1.0773,1.2403,1.4268,1.5919,0.0,0.0,2.1765,2.1936,2.3245,2.4743,2.6065,2.7291,2.8269,2.8773,3.0084,3.0593,2.9262,2.9997,2.9808,2.7655,2.7795,2.8253,2.8599,2.6988,2.6252,2.6979,2.653,2.6608,2.7469,2.6852,2.6657,2.7068,2.6565,2.5865,2.5105,2.5744,2.5799,2.5216,2.5509,2.542,2.5019,2.5179,2.4678,2.3693,2.3746,2.4328,2.5167,2.482,2.5408,2.6466,2.5992,2.6114,2.6647,2.718,2.7375,2.7375,0.0,0.0,0.0,0.0,0.0,0.0,0.0,0.0,0.0,1.2888,1.3189,1.3577,1.4089,1.4148,1.3752,1.2803,0.0,0.0,1.9154,2.1718,2.5087,2.942,3.1004,3.2202,3.3102,3.3748,3.3912,3.3632,3.393,3.4317,3.4677,3.489,3.499,3.5037,3.5785,3.5881,3.5464,3.6212,3.6723,3.6966,3.689,3.706,3.7222,3.6014,3.4952,3.3982,3.2918,3.1268,0.0,0.0,2.7964,2.7545,2.8768,2.7609,2.5302,2.2909,2.0478,0.0,1.5108,1.4314,1.4598,0.0,1.8016,1.9975,2.075,2.2701,2.4469,2.4993,2.5941,2.7065,2.8325,2.7947,2.7983,0.0,2.969,2.9339,2.9194,2.969,2.9156,2.6626,2.5771,2.5648,2.6318,2.6341,2.6252,2.6135,2.6159,2.6563,2.7479,2.6894,2.6667,2.7019,2.6866,2.6474,2.5849,2.625,2.6143,2.554,2.5566,2.5259,2.4661,2.4637,2.4466,2.4171,2.4171,2.4641,2.5411,2.5569,2.594,2.6382,2.6158,2.6578,2.7279,2.71,2.727,2.76,0.0,0.0,0.0,0.0,0.0,0.0,0.0,0.0,0.0,0.0,1.2479,1.2597,1.2907,1.2926,1.2676,0.0,0.0,0.0,0.0,2.1579,2.5123,2.9953,3.175,3.2966,3.3786,3.4365,3.452,3.423,3.4128,3.4423,3.5109,3.5073,3.5041,3.5088,3.6118,3.6024,3.5187,3.6087,3.6492,3.6477,3.6261,3.6158,3.5982,3.4175,3.2249,3.0382,2.9809,2.8192,0.0,0.0,2.4004,2.4086,2.5106,2.4338,2.2755,2.122,1.8348,1.5721,1.5965,0.0,0.0,1.9077,2.1155,2.3046,2.4249,2.5329,2.6419,2.7484,2.7939,2.845,2.9363,2.8197,2.7725,2.974,2.9143,2.8605,2.8968,2.9119,2.8182,2.5382,2.3807,2.2891,2.2763,2.4373,2.5565,2.5873,2.5926,2.6551,2.7899,2.6941,2.6587,2.7153,2.696,2.6553,2.5942,2.6657,2.6631,2.5796,2.6092,2.5675,2.4606,2.4405,2.4616,2.5096,2.494,2.5201,2.5771,2.6262,2.6574,2.6738,2.6738,2.7171,2.773,2.715,2.7125,2.738,0.0,0.0,0.0,0.0,0.0,0.0,0.0,0.0,0.0,0.0,0.0,0.0,0.0,0.0,1.251,0.0,0.0,0.0,0.0,2.1305,2.4813,2.8226,3.0397,3.2201,3.3591,3.3825,3.4283,3.5044,3.4438,3.4423,3.5077,3.4438,3.4128,3.4162,3.4399,3.4481,3.4414,3.4264,3.4196,3.4138,3.3351,3.3132,3.3034,3.0326,2.8142,2.6488,2.5809,0.0,0.0,0.0,1.9238,1.9959,2.0381,2.1404,0.0,1.9424,1.5457,1.254,0.0,0.0,1.5497,1.9991,2.2105,2.3695,2.6058,2.6982,2.7818,2.9391,2.9362,2.9112,2.9361,2.9348,2.916,2.8726,2.9318,2.9501,2.8468,2.7956,2.6628,2.38,2.2337,2.0497,0.0,2.0396,2.3559,2.6718,2.6239,2.6861,2.9301,2.7395,2.6874,2.8292,2.6978,2.584,2.5058,2.693,2.7158,2.5832,2.7173,2.6909,2.5167,2.4766,2.5237,2.6332,2.5798,2.5959,2.6557,2.6587,2.6976,2.757,2.757,2.766,2.779,2.7775,2.7368,2.6817,0.0,0.0,0.0,0.0,0.0,0.0,0.0,0.0,0.0,0.0,0.0,0.0,0.0,0.0,0.0,0.0,0.0,0.0,0.0,1.9339,2.2072,2.5439,2.8752,3.0858,3.1589,3.3155,3.3818,3.3512,3.3352,3.3657,3.4301,3.4177,3.4573,3.5462,3.595,3.6136,3.6087,3.6477,3.5811,3.4543,3.4253,3.315,3.1246,2.7721,2.5409,2.3547,0.0,0.0,0.0,0.0,1.4952,1.5095,1.6131,1.6438,1.5997,1.3855,1.4017,1.5027,1.5646,0.0,2.0224,2.255,2.4812,2.6773,2.7911,2.8596,2.9022,2.9155,2.7343,2.562,2.5289,2.3736,2.3066,2.4797,2.4782,2.5324,2.7579,2.5649,2.3946,2.3762,2.2024,0.0,0.0,0.0,0.0,2.2793,2.5614,2.7658,2.8464,2.7998,2.7969,2.8525,2.7775,2.7106,2.6453,2.7739,2.8039,2.7398,2.7063,2.6396,2.5458,2.4858,2.536,2.6651,2.6474,2.6585,2.6907,2.7352,2.7619,2.774,2.774,2.8087,2.8475,2.7484,2.6753,2.6394,0.0,0.0,0.0,0.0,0.0,0.0,0.0,0.0,0.0,0.0,0.0,0.0,0.0,0.0,0.0,0.0,0.0,0.0,0.0,0.0,1.9605,2.2509,2.5566,2.7404,2.7871,2.9536,3.0293,3.006,3.0306,3.0829,3.1567,3.1505,3.2074,3.3157,3.3466,3.3684,3.3741,3.3706,3.2779,3.132,3.0721,2.9068,2.6588,2.341,2.1058,0.0,0.0,0.0,0.0,1.1803,1.171,1.1926,1.2279,1.2359,1.237,1.2619,1.4318,1.6438,1.7927,2.0832,2.3812,2.5408,2.7315,2.8793,2.8889,2.9013,2.887,2.8066,2.6003,2.3901,2.2447,2.0741,2.0169,2.2062,2.1841,2.2764,2.6652,2.4572,2.3032,2.3971,2.2169,2.1152,0.0,0.0,0.0,2.1825,2.505,2.7121,2.731,2.7121,2.7437,2.8246,2.7923,2.7434,2.6868,2.8461,2.9185,2.8993,2.748,2.6748,2.6705,2.5781,2.5753,2.6464,2.6995,2.7007,2.6753,2.8091,2.8505,2.8349,2.869,2.9044,2.9223,2.8283,2.7616,2.7204,0.0,0.0,0.0,0.0,0.0,0.0,0.0,0.0,0.0,0.0,0.0,0.0,0.0,0.0,0.0,0.0,0.0,0.0,0.0,0.0,0.0,1.945,2.1076,2.2221,2.2836,2.3488,2.4238,2.5124,2.5571,2.6264,2.7126,2.6743,2.6948,2.7612,2.7335,2.7492,2.7854,2.6572,2.5647,2.4889,2.3252,2.1513,1.9648,1.7713,0.0,0.0,0.0,0.0,0.0,0.0,0.0,0.0,0.9283,0.9687,1.1389,1.5416,1.6198,1.6899,2.2087,2.4469,2.6062,2.845,2.9397,2.9622,2.8999,2.8288,2.7398,2.6113,2.5156,2.3586,0.0,0.0,2.0096,2.0448,2.0569,2.1904,2.5685,2.4629,2.3716,0.0,0.0,0.0,0.0,0.0,0.0,2.3745,0.0,2.5629,2.6201,2.5259,2.5649,2.7724,2.7463,2.6956,2.6287,2.9041,3.0447,3.0477,2.8431,2.7942,2.8785,2.7459,2.6533,2.6044,2.744,2.7321,2.6343,2.8792,2.9607,2.9358,3.0344,3.0422,3.0027,3.0027,2.9677,2.8971,0.0,0.0,0.0,0.0,0.0,0.0,0.0,0.0,0.0,0.0,0.0,0.0,0.0,0.0,0.0,0.0,0.0,0.0,0.0,0.0,0.0,0.0,0.0,0.0,0.0,0.0,0.0,0.0,0.0,2.3219,2.3597,2.3442,2.3967,2.5046,2.4963,2.5265,2.5773,2.5435,2.4307,2.2635,0.0,1.9919,1.7884,0.0,0.0,0.0,0.0,0.0,0.0,0.0,0.0,0.0,0.0,1.3195,1.3888,1.5748,1.8431,2.1338,2.401,2.6512,2.8713,3.0154,3.0187,2.9509,2.8329,2.7552,2.6147,2.3035,2.0055,1.7176,0.0,0.0,0.0,1.7391,1.8608,0.0,2.4531,2.401,0.0,2.4373,0.0,2.4366,2.5065,2.6126,0.0,0.0,2.6784,2.7953,2.7955,2.8494,2.8871,2.9102,2.841,2.7906,2.7627,2.8583,2.9564,3.0492,2.9014,2.8682,2.936,2.8101,2.7765,2.8197,2.8571,2.8601,2.8458,2.9522,3.0083,3.0332,3.0609,3.0626,3.0531,3.0531,2.9818,2.8879,0.0,0.0,0.0,0.0,0.0,0.0,0.0,0.0,0.0,0.0,0.0,0.0,0.0,0.0,0.0,0.0,0.0,0.0,0.0,0.0,0.0,0.0,0.0,0.0,0.0,0.0,0.0,0.0,0.0,0.0,0.0,1.9366,2.0083,2.1107,2.0905,2.1107,2.1584,0.0,0.0,0.0,0.0,0.0,0.0,0.0,0.0,0.0,0.0,0.0,0.0,0.0,0.0,1.2952,1.5485,1.6491,1.7221,1.9688,0.0,2.4798,2.6978,2.8915,3.0444,3.1025,3.0354,2.8876,2.6424,2.5049,2.3164,1.9167,1.6396,0.0,0.0,0.0,0.0,0.0,0.0,0.0,2.3134,2.3298,2.3568,0.0,2.5493,0.0,2.7414,2.811,2.7995,0.0,2.7641,2.8111,2.7967,2.8541,2.9142,2.9675,2.9143,2.9098,2.9589,2.9498,2.9953,3.0941,2.9924,2.9651,3.0036,2.9094,2.8585,2.8521,0.0,2.9097,2.8667,2.9822,3.0344,3.0407,3.0611,3.0689,3.0689,3.0689,3.025,2.9626,0.0,0.0,0.0,0.0,0.0,0.0,0.0,0.0,0.0,0.0,0.0,0.0,0.0,0.0,0.0,0.0,0.0,0.0,0.0,0.0,0.0,0.0,0.0,0.0,0.0,0.0,0.0,0.0,0.0,0.0,0.0,0.0,0.0,0.0,0.0,0.0,0.0,0.0,0.0,0.0,0.0,0.0,0.0,0.0,0.0,0.0,0.0,0.0,0.0,0.0,1.4872,1.4714,1.8158,1.9689,2.0948,2.4731,2.6347,2.7461,2.9956,3.1147,3.1594,3.1466,3.0264,2.8126,2.448,2.2142,1.9587,1.5476,0.0,1.2485,1.0374,1.0611,1.1833,1.3984,0.0,1.7662,2.1482,2.2638,2.3846,2.5893,2.6338,2.6955,2.8283,2.8653,2.8819,2.8848,2.8152,2.7641,2.7442,2.7442,2.8124,2.9586,2.9562,3.009,3.1275,3.0632,3.0705,3.1467,3.0808,3.0608,3.0781,3.0205,2.9271,2.8258,2.955,2.9357,2.8318,3.0087,3.0576,3.0246,3.0641,3.0797,3.0797,3.0797,3.0797,3.0734,0.0,0.0,0.0,0.0,0.0,0.0,0.0,0.0,0.0,0.0,1.3119,1.2665,0.0,0.0,0.0,0.0,0.0,0.0,0.0,0.0,0.0,0.0,0.0,0.0,0.0,0.0,0.0,0.0,0.0,0.0,0.0,0.0,0.0,0.0,0.0,0.0,0.0,0.0,0.0,0.0,0.0,0.0,0.0,0.0,0.0,0.0,0.0,0.0,0.0,0.0,1.5172,1.693,2.086,2.2904,2.4173,2.5616,2.7493,2.9305,3.053,3.1562,3.2275,3.2147,3.028,2.7825,2.5438,2.1761,0.0,0.0,1.2111,1.0485,1.0004,1.092,1.2591,1.5161,0.0,0.0,0.0,0.0,2.468,0.0,0.0,0.0,0.0,0.0,0.0,0.0,2.9826,2.9721,2.9169,2.928,2.9135,2.867,2.9014,2.9478,3.0074,2.9584,3.0005,3.1336,3.078,3.0806,3.133,3.0784,3.0431,3.022,3.0488,0.0,3.0253,3.1042,3.1314,3.1267,3.1315,3.136,3.136,3.136,3.136,3.1299,0.0,0.0,0.0,0.0,0.0,0.0,0.0,1.3613,1.3772,1.4478,1.3854,1.3261,1.3091,1.2841,1.2575,0.0,0.0,0.0,0.0,0.0,0.0,0.0,0.0,0.0,0.0,0.0,0.0,0.0,0.0,0.0,0.0,0.0,0.0,0.0,0.0,0.0,0.0,0.0,0.0,0.0,0.0,0.0,0.0,0.0,0.0,0.0,0.0,0.0,0.0,0.0,1.422,1.6087,2.124,2.4404,2.6277,2.6613,2.8814,3.11,3.1031,3.19,3.2717,3.2037,2.9763,2.6572,2.2266,0.0,0.0,0.0,0.9192,0.8406,0.8444,0.0,0.0,0.0,0.0,0.0,0.0,0.0,0.0,0.0,0.0,0.0,0.0,0.0,0.0,0.0,2.8762,2.9268,2.9685,2.9806,2.9832,2.9759,2.973,3.0084,3.0776,3.0308,3.0511,3.1307,3.1109,3.1182,3.1496,3.1224,3.1102,3.1102,3.1102,0.0,2.9705,3.0971,3.0898,3.0073,3.0803,3.1254,3.1466,3.1192,3.1254,3.1435,0.0,0.0,0.0,0.0,0.0,0.0,0.0,1.4228,1.4276,1.511,1.4496,1.3852,1.3537,1.3138,1.2712,0.0,0.0,0.0,0.0,0.0,0.0,0.0,0.0,0.0,0.0,0.0,0.0,0.0,0.0,0.0,0.0,0.0,0.0,0.0,0.0,0.0,0.0,0.0,0.0,0.0,0.0,0.0,0.0,0.0,0.0,0.0,0.0,0.0,0.0,0.0,1.294,1.4257,1.9767,2.3571,2.6143,2.6826,2.9231,3.1635,3.1475,3.2331,3.2973,3.1751,2.9101,2.5294,1.9606,1.6208,0.0,0.0,0.7332,0.7299,0.7833,0.0,1.0585,0.0,0.0,0.0,0.0,0.0,0.0,0.0,0.0,0.0,0.0,0.0,0.0,0.0,2.7762,2.844,2.9506,2.9749,3.0109,3.0671,3.0325,3.0598,3.1495,3.1128,3.1014,3.1205,3.1409,3.1511,3.1511,3.1511,3.1511,3.1511,3.1511,0.0,0.0,3.0688,3.0283,2.8595,3.009,3.0964,3.1284,3.0857,3.1041,3.1436,0.0,0.0,0.0,0.0,0.0,0.0,0.0,1.3973,1.3971,1.5131,1.4691,1.4077,1.3558,1.3079,1.2726,0.0,0.0,0.0,0.0,0.0,0.0,0.0,0.0,0.0,0.0,0.0,0.0,0.0,0.0,0.0,0.0,0.0,0.0,0.0,0.0,0.0,0.0,0.0,0.0,0.0,0.0,0.0,0.0,0.0,0.0,0.0,0.0,0.0,0.0,0.0,0.0,1.2551,1.5937,1.8954,2.1882,2.5164,0.0,0.0,3.1913,3.302,3.3133,3.1685,2.8469,2.4719,2.114,0.0,0.0,1.0201,0.8707,0.8454,1.0306,1.0743,1.1852,0.0,0.0,0.0,0.0,0.0,0.0,0.0,0.0,0.0,0.0,0.0,0.0,0.0,2.8886,2.8661,2.879,2.9338,2.9662,2.9718,2.9693,3.0055,3.0867,3.0719,3.0702,3.0851,3.1292,3.1511,3.1511,3.1511,3.1511,3.1511,3.1511,0.0,0.0,3.0717,3.0108,2.8147,2.9976,3.0734,3.0779,3.0719,3.1041,3.1496,0.0,0.0,0.0,0.0,0.0,0.0,1.474,1.4536,1.4735,1.6034,1.5155,1.4634,1.519,1.4027,1.2983,1.2433,0.0,0.0,0.0,0.0,0.0,0.0,0.0,0.0,0.0,0.0,0.0,0.0,0.0,0.0,0.0,0.0,0.0,0.0,0.0,0.0,0.0,0.0,0.0,0.0,0.0,0.0,0.0,0.0,0.0,0.0,0.0,0.0,0.0,0.0,0.0,0.0,1.2572,1.4095,0.0,0.0,2.4291,2.7214,2.8835,3.0942,3.2237,3.0126,2.7438,2.3946,1.8764,0.0,1.2102,0.8776,0.769,0.7722,0.9026,0.9578,1.0657,0.0,0.0,0.0,0.0,0.0,0.0,0.0,0.0,0.0,0.0,0.0,0.0,0.0,2.8282,2.8464,2.9195,2.9125,2.9392,3.0105,2.9799,3.0006,3.0786,3.0473,3.0371,3.0507,3.0807,3.0969,3.0969,3.0969,3.0969,3.0969,3.1131,0.0,0.0,2.9939,2.9305,2.6874,2.9327,3.0467,3.0689,3.0689,3.1041,3.1511,0.0,0.0,0.0,0.0,0.0,1.4246,1.4995,1.4798,1.4975,1.6088,1.5284,1.49,1.5714,1.4626,1.3573,1.297,1.2936,0.0,0.0,0.0,0.0,0.0,0.0,0.0,0.0,0.0,0.0,0.0,0.0,0.0,0.0,0.0,0.0,0.0,0.0,0.0,0.0,0.0,0.0,0.0,0.0,0.0,0.0,0.0,0.0,0.0,0.0,0.0,0.0,0.0,0.0,0.0,0.0,0.0,0.0,0.0,2.0967,2.4472,2.6024,2.8711,3.0612,2.8627,2.615,2.2663,0.0,0.0,1.1556,0.769,0.7218,0.7673,0.8282,0.8778,0.9883,0.0,0.0,0.0,0.0,0.0,0.0,0.0,0.0,0.0,0.0,0.0,0.0,2.8352,2.831,2.8689,2.956,2.9195,2.9448,3.0455,2.9926,2.996,3.0708,3.0301,3.0142,3.0235,3.0477,3.0424,3.0104,3.0497,3.0556,3.0381,3.0778,0.0,0.0,2.9729,2.8929,2.635,2.9104,3.0313,3.0516,3.0641,3.1041,3.1511,0.0,0.0,0.0,0.0,0.0,0.0,1.4995,1.4477,1.422,1.4843,1.4845,1.4693,1.4453,1.4517,1.4535,1.4392,1.3594,0.0,0.0,0.0,0.0,0.0,0.0,0.0,0.0,0.0,0.0,0.0,0.0,0.0,0.0,0.0,0.0,0.0,0.0,0.0,0.0,0.0,0.0,0.0,0.0,0.0,0.0,0.0,0.0,0.0,0.0,0.0,0.0,0.0,0.0,0.0,0.0,0.0,0.0,0.0,1.777,2.1143,2.4278,2.677,2.8353,2.7524,2.4504,2.0634,0.0,0.0,1.1686,0.7708,0.7957,0.8927,0.9058,0.9101,1.015,1.3361,0.0,0.0,0.0,0.0,0.0,0.0,0.0,0.0,0.0,0.0,0.0,2.9588,2.9588,0.0,2.9602,2.9602,2.9883,3.0469,2.9926,2.9897,3.0484,3.0239,3.008,3.0111,3.0431,3.0017,2.8962,3.0236,3.0441,2.9842,0.0,0.0,0.0,3.0338,2.9305,2.6954,2.9651,3.0407,3.0057,3.0546,3.1041,3.1511,0.0,0.0,0.0,0.0,0.0,0.0,0.0,1.4253,1.4332,1.5079,1.4692,1.4629,1.5462,1.4787,1.4368,1.465,1.3795,0.0,0.0,0.0,0.0,0.0,0.0,0.0,0.0,0.0,0.0,1.2236,1.2205,0.0,0.0,0.0,0.0,0.0,0.0,0.0,0.0,0.0,0.0,0.0,0.0,0.0,0.0,0.0,0.0,0.0,0.0,0.0,0.0,0.0,0.0,0.0,0.0,0.0,0.0,1.2095,1.4428,1.706,1.9237,2.1441,2.2803,2.1532,2.0062,1.7946,1.4337,0.0,1.0705,0.8174,0.7628,0.7906,0.892,0.9101,1.0033,1.2893,1.3488,0.0,0.0,0.0,0.0,0.0,0.0,0.0,0.0,0.0,2.8703,2.9546,2.883,2.8717,2.956,2.9602,2.9701,2.9897,2.9715,2.9701,2.9897,2.9794,2.9772,2.9772,2.996,2.9411,2.8254,2.9557,2.9513,0.0,0.0,0.0,0.0,3.0104,2.9459,2.763,2.9407,3.0122,3.0242,3.0713,3.1157,3.1511,0.0,0.0,0.0,0.0,0.0,0.0,0.0,1.4138,1.4285,1.4774,1.441,1.4513,1.5647,1.4768,1.4324,1.4892,1.4045,0.0,0.0,0.0,0.0,0.0,0.0,0.0,0.0,1.2246,1.2339,1.2617,1.2344,1.2593,1.3319,1.264,0.0,0.0,0.0,0.0,0.0,0.0,0.0,0.0,0.0,0.0,1.095,0.0,0.0,0.0,0.0,0.0,0.0,0.0,0.0,0.0,0.0,0.0,0.0,0.0,1.2151,1.3515,0.0,1.7885,1.9248,1.8368,1.7341,0.0,0.0,0.0,1.0295,0.8397,0.8443,0.8892,0.9077,0.9717,1.0697,1.2127,1.3812,0.0,0.0,0.0,0.0,0.0,0.0,0.0,0.0,2.8647,2.8788,2.9546,2.89,2.8802,2.956,2.9602,2.9602,2.9602,2.9602,2.9602,2.9602,2.9602,2.949,2.9265,2.9329,2.8727,2.7598,2.8976,2.9118,0.0,0.0,0.0,0.0,3.0171,2.9726,2.8562,2.9653,3.0104,3.0159,3.0661,3.1043,3.1307,0.0,0.0,0.0,0.0,0.0,0.0,0.0,1.4107,1.4107,1.4114,1.4114,1.4378,1.5046,1.4531,1.4378,1.5074,0.0,0.0,0.0,0.0,0.0,0.0,0.0,0.0,0.0,1.2323,1.2562,1.325,1.2629,1.2697,1.3435,1.2671,1.2076,0.0,0.0,0.0,0.0,0.0,0.0,0.0,1.0751,1.041,0.0,0.0,0.0,0.0,0.0,0.0,0.0,0.0,0.0,0.0,0.0,0.0,0.0,0.0,0.0,0.0,0.0,1.578,1.7138,1.7192,1.5905,1.4291,0.0,0.0,0.0,0.0,1.0184,1.1327,0.964,1.0917,1.203,1.136,1.4318,0.0,0.0,0.0,0.0,0.0,0.0,0.0,0.0,2.883,2.9602,2.9602,2.9602,2.9602,2.9602,2.9602,2.9602,2.9602,2.956,2.9546,2.9546,2.9546,2.9195,2.8493,2.8607,2.8005,2.6862,2.8396,2.9039,0.0,0.0,0.0,0.0,3.0461,2.9995,2.958,3.0261,3.0249,2.9886,3.0394,3.0747,3.097,0.0,0.0,0.0,0.0,0.0,0.0,0.0,0.0,0.0,0.0,1.4186,1.4244,1.4414,1.4286,1.4248,0.0,0.0,0.0,0.0,0.0,0.0,0.0,0.0,0.0,0.0,1.2449,1.2542,1.2758,1.3215,1.3567,1.3844,1.3557,1.3372,1.3235,1.2661,1.2427,1.2468,0.0,0.0,0.0,1.1515,1.088,0.0,0.0,0.0,0.0,0.8219,0.8202,0.0,0.0,0.0,0.0,0.0,0.0,0.0,0.0,1.0573,1.0279,1.1821,0.0,1.2536,1.2523,1.224,1.1848,0.0,0.0,0.0,0.0,0.0,0.0,0.0,1.266,1.3427,1.2813,1.5038,1.6511,0.0,0.0,0.0,0.0,0.0,0.0,0.0,2.8324,2.9602,2.9602,2.9602,2.9602,2.9602,2.9602,2.9602,2.9602,2.9153,2.89,2.89,2.89,2.8113,2.6568,2.7654,2.7003,2.4937,2.7244,2.7982,0.0,0.0,0.0,2.995,3.0291,3.0097,2.9608,2.9763,2.9919,3.0033,3.0176,3.0431,3.0687,0.0,0.0,0.0,0.0,0.0,0.0,0.0,0.0,0.0,0.0,0.0,0.0,0.0,0.0,0.0,0.0,0.0,0.0,0.0,0.0,0.0,0.0,0.0,0.0,1.2741,1.2759,1.2902,1.3151,1.3648,1.4096,1.4445,1.39,1.373,1.3806,1.2986,1.269,1.2778,1.2426,1.2122,1.18,1.0986,0.0,0.0,0.0,0.0,0.0,0.8274,0.8373,0.0,0.9374,1.0053,1.0636,0.0,0.0,0.0,0.0,1.0571,1.0185,1.1514,1.1546,1.1341,1.18,1.1567,1.1322,1.1678,0.0,0.0,0.0,0.0,0.0,0.0,0.0,0.0,0.0,1.4666,0.0,0.0,0.0,0.0,0.0,0.0,0.0,0.0,0.0,2.9602,2.9602,2.9602,2.9602,2.9602,2.935,2.9195,2.9195,2.8591,2.8408,2.8689,2.8422,2.7326,2.5486,2.6835,2.6453,2.4645,2.6663,2.7542,0.0,0.0,0.0,2.9395,2.8839,2.9035,2.9682,2.9634,2.971,2.9865,2.9865,3.0066,3.0371,0.0,0.0,0.0,0.0,0.0,0.0,0.0,0.0,0.0,0.0,0.0,0.0,0.0,0.0,0.0,0.0,0.0,0.0,0.0,0.0,0.0,0.0,0.0,1.3193,1.3055,1.3224,1.3519,1.3936,1.4137,1.444,1.4786,1.4068,1.3775,1.3828,1.3312,1.3032,1.2882,1.2257,1.1618,1.0965,1.0127,0.0,0.0,0.0,0.0,0.0,0.0,0.0,0.0,0.9785,1.044,1.0977,1.1155,0.0,0.0,0.0,0.0,0.0,1.1759,1.1906,1.1876,1.2981,1.2359,1.1765,0.0,0.0,0.0,0.0,0.0,0.0,0.0,0.0,0.0,0.0,0.0,0.0,0.0,0.0,0.0,0.0,0.0,0.0,2.7313,2.8774,2.956,2.9476,2.9462,2.942,2.9336,2.883,2.8549,2.8549,2.7988,2.7874,2.8394,2.7888,2.6722,2.488,2.609,2.602,2.4908,2.6368,2.7329,2.7739,0.0,0.0,2.9008,2.752,2.8038,2.9761,2.962,2.9602,2.9602,2.9602,2.9772,3.0019,0.0,0.0,0.0,0.0,0.0,0.0,0.0,0.0,0.0,0.0,0.0,0.0,0.0,0.0,0.0,0.0,0.0,0.0,0.0,0.0,0.0,0.0,1.3713,1.3452,1.3253,1.393,1.4382,1.4554,1.5084,1.4866,1.3903,1.45,1.4368,1.3668,1.3894,1.3768,1.3328,1.2397,1.2028,1.194,1.0403,0.0,0.0,0.0,0.0,0.0,0.0,0.0,0.0,0.9034,0.9704,1.0274,1.0368,0.0,0.0,0.0,0.0,0.0,1.1289,1.1855,1.2467,1.3651,1.2928,1.216,0.0,0.0,0.0,0.0,0.0,0.0,0.0,0.0,0.0,0.0,0.0,0.0,0.0,0.0,0.0,0.0,0.0,2.8535,2.6399,2.8254,2.9392,2.8872,2.883,2.8605,2.8115,2.8002,2.7946,2.7946,2.7298,2.7003,2.7102,2.7003,2.6034,2.4247,2.5444,2.5428,2.4289,2.6033,2.6891,2.7032,0.0,2.8452,2.8808,2.901,2.9305,2.9634,2.9602,2.9602,2.9602,2.9602,2.9634,2.9741,0.0,0.0,0.0,0.0,0.0,0.0,0.0,0.0,0.0,0.0,0.0,0.0,0.0,0.0,0.0,0.0,0.0,0.0,0.0,0.0,0.0,1.4107,1.4373,1.4201,1.3542,1.3979,1.4146,1.3948,1.4654,1.468,1.411,1.4896,1.4828,1.4028,1.3915,1.3514,1.2843,1.2038,1.1496,1.1153,0.0,0.0,0.0,0.0,0.0,0.0,0.0,0.0,0.0,0.0,0.9812,1.0563,0.9846,0.0,0.0,0.0,0.0,0.0,1.1183,1.1863,1.277,1.4578,1.344,0.0,0.0,0.0,0.0,0.0,0.0,0.0,0.0,0.0,0.0,0.0,0.0,0.0,0.0,0.0,0.0,0.0,0.0,2.7369,2.6975,2.824,2.8998,2.8717,2.8394,2.8101,2.7819,2.7453,2.7256,2.7256,2.6638,2.6315,2.6315,2.6315,2.5556,2.4092,2.533,2.5274,2.4134,2.5626,2.6315,2.6301,0.0,2.6845,2.7634,2.733,2.7975,2.908,2.8681,2.8952,2.9602,2.9602,2.9602,2.9602,0.0,0.0,0.0,0.0,0.0,0.0,0.0,0.0,0.0,0.0,0.0,0.0,0.0,0.0,0.0,0.0,0.0,0.0,0.0,0.0,1.4259,1.4123,1.4709,1.4641,1.3781,1.4236,1.4241,1.3733,1.4084,1.4303,1.4353,1.4787,1.4967,1.4892,1.3965,1.3248,1.2677,1.1597,1.0818,1.0273,0.0,0.0,0.0,0.0,0.0,0.0,0.0,0.0,0.0,0.0,0.0,0.0,0.0,0.0,0.0,1.0291,1.0321,1.0407,1.1003,1.1763,1.2859,1.4888,0.0,0.0,0.0,0.0,0.0,0.0,0.0,0.0,0.0,0.0,0.0,0.0,0.0,0.0,0.0,0.0,0.0,2.5765,2.6005,2.6539,2.7722,2.8227,2.8408,2.8268,2.7818,2.7481,2.7369,2.6863,2.6596,2.6596,2.6132,2.5893,2.5893,2.5893,2.5456,2.4528,2.5497,2.5455,2.4556,2.5666,2.6061,2.5852,2.5163,2.5619,2.6722,2.5907,2.674,2.8448,2.7875,2.8278,2.9129,2.916,2.916,2.9188,0.0,0.0,0.0,0.0,0.0,0.0,0.0,0.0,0.0,0.0,0.0,0.0,0.0,0.0,0.0,0.0,0.0,0.0,0.0,0.0,1.4267,1.421,1.4239,1.4186,1.3977,1.5279,1.5649,1.5056,1.4061,1.3785,1.4193,1.3705,1.4571,1.6442,1.4338,1.3556,1.3647,1.1348,1.0349,1.0232,0.9554,0.0,0.0,0.0,0.0,0.0,0.0,0.0,0.0,0.0,0.0,0.0,0.0,0.0,0.9398,1.0027,1.0221,1.0247,1.0412,1.1367,1.2624,1.3898,0.0,0.0,0.0,0.0,0.0,0.0,0.0,0.0,0.0,0.0,0.0,0.0,0.0,0.0,0.0,0.0,2.9577,2.8729,2.8989,2.8947,2.8079,2.7906,2.7622,2.6989,2.6905,0.0,2.6062,2.5992,2.595,2.595,2.5921,2.5893,2.5893,2.5893,2.5851,2.5767,2.5987,2.5987,2.5781,2.6552,2.6552,2.5922,2.6413,2.6693,2.6792,2.6729,2.715,2.7876,2.7817,2.7778,2.775,2.7816,2.7799,2.7925,0.0,0.0,0.0,0.0,0.0,0.0,0.0,0.0,0.0,0.0,0.0,0.0,0.0,0.0,0.0,0.0,0.0,0.0,0.0,0.0,1.4292,1.426,1.5181,1.5178,1.4086,1.4631,1.4697,1.4267,1.4282,1.4332,1.4416,1.5345,1.5953,1.6226,1.5399,1.4864,1.444,1.2043,1.1052,1.0942,0.969,0.9194,0.0,0.0,0.0,0.0,0.0,0.0,0.0,0.0,0.9474,0.9865,0.0,0.9475,0.9312,0.9515,0.9896,1.0281,1.0372,1.1668,1.3334,1.4837,0.0,0.0,0.0,0.0,0.0,0.0,0.0,0.0,0.0,0.0,0.0,0.0,0.0,0.0,0.0,0.0,2.9099,2.8315,2.8354,2.8312,2.7906,2.744,2.7074,0.0,0.0,0.0,2.5879,2.5528,2.55,2.5879,2.5893,2.5893,2.5893,2.5893,2.5825,2.5647,2.588,2.5948,2.5907,2.6187,2.6173,2.5908,2.6152,2.6034,2.567,2.569,2.5842,2.6104,2.6469,2.6295,2.5901,2.6387,2.6556,2.6658,0.0,0.0,0.0,0.0,0.0,0.0,0.0,0.0,0.0,0.0,0.0,0.0,0.0,0.0,0.0,0.0,0.0,0.0,0.0,1.43,1.4281,1.4267,1.5271,1.5408,1.4495,1.4264,1.406,1.3785,1.4519,1.4899,1.5027,1.6223,1.6728,1.6576,1.5783,1.5293,1.4934,1.2892,1.1892,1.1586,1.0792,1.0082,0.0,0.0,0.0,0.0,0.0,0.0,0.0,0.0,0.9224,0.9601,0.0,0.0,0.0,0.9126,0.9546,1.0039,1.0292,1.1552,1.3241,0.0,0.0,0.0,0.0,0.0,0.0,0.0,0.0,0.0,0.0,0.0,0.0,0.0,0.0,0.0,0.0,2.8171,2.8199,2.7609,2.7496,2.7426,2.7286,2.6638,2.6231,0.0,0.0,0.0,0.0,2.495,2.4908,2.533,2.5344,2.5344,2.5344,2.5237,2.5103,2.4942,2.5022,2.5148,2.5314,2.5744,2.5605,2.4992,2.5183,2.4941,2.435,2.4287,2.4425,2.4704,2.4809,2.4726,2.4596,2.5112,2.5299,2.5387,0.0,0.0,0.0,0.0,0.0,0.0,0.0,0.0,0.0,0.0,0.0,0.0,0.0,0.0,0.0,0.0,0.0,0.0,0.0,1.4293,1.4274,1.4198,1.421,1.4542,1.5282,1.4498,1.4078,1.4016,1.4671,1.5373,1.6098,1.5852,1.6499,1.7772,1.5332,1.4596,1.5133,1.3792,1.2765,1.2099,1.2899,1.1996,1.0283,0.0,0.0,0.0,0.0,0.0,0.0,0.0,0.938,0.8813,0.0,0.0,0.0,0.8919,0.9212,0.9468,1.0141,1.0907,0.0,0.0,0.0,0.0,0.0,0.0,0.0,0.0,0.0,0.0,0.0,0.0,0.0,0.0,0.0,0.0,2.7524,2.7791,2.7581,2.7046,2.6863,2.661,2.614,2.5438,0.0,0.0,0.0,0.0,0.0,2.4078,2.4078,2.4092,2.4092,2.4092,2.4092,2.3824,2.3695,2.3695,2.3424,2.3554,2.4063,2.5443,2.4957,2.3025,2.364,2.3552,2.297,2.2688,2.3122,2.3875,2.2955,2.3108,2.3904,2.3953,2.3922,2.4072,0.0,0.0,0.0,0.0,0.0,0.0,0.0,0.0,0.0,0.0,0.0,0.0,0.0,0.0,0.0,0.0,0.0,0.0,1.4157,1.415,1.4143,1.4123,1.4627,1.4727,1.4324,1.4646,1.4813,1.4836,1.5423,1.5739,1.5843,1.6893,1.6888,1.6028,0.0,1.6824,1.6011,1.5574,1.5051,1.4468,1.3607,1.272,1.1895,0.0,0.0,0.0,0.0,0.0,0.0,0.0,0.0,0.0,0.8936,0.0,0.0,0.9849,1.0574,1.1398,1.1693,1.2639,0.0,0.0,0.0,0.0,0.0,0.0,0.0,0.0,0.0,0.0,0.0,0.0,0.0,2.1809,2.4219,2.6315,2.6427,2.6821,2.6863,2.63,2.5808,2.5485,2.5355,0.0,0.0,0.0,0.0,0.0,0.0,2.2995,2.3164,2.4064,2.3914,2.3824,2.3824,2.354,2.3306,2.3069,2.3003,2.3339,2.4105,2.495,2.4727,2.3712,2.3837,2.3331,2.2323,2.1815,2.1796,2.2002,2.1733,2.1922,2.2335,2.2366,2.2534,2.2818,0.0,0.0,0.0,0.0,0.0,0.0,0.0,0.0,0.0,0.0,1.43,1.4287,0.0,0.0,0.0,1.417,1.4161,0.0,1.3984,1.4061,1.4047,1.3938,1.4448,1.4608,1.4372,1.4981,1.5365,1.5481,1.6071,1.6249,1.6085,1.7299,1.7193,1.6039,0.0,1.7182,1.6478,1.627,1.5967,1.5581,1.4955,1.3879,1.2678,0.0,0.0,0.0,0.0,0.0,0.0,0.0,0.0,0.0,0.0,0.0,0.0,0.9921,1.079,1.2016,1.2665,0.0,0.0,0.0,0.0,0.0,0.0,0.0,0.0,0.0,0.0,0.0,0.0,0.0,0.0,2.3382,2.4757,2.5951,2.5825,2.5713,2.5587,2.5488,2.4994,2.4641,0.0,0.0,0.0,0.0,0.0,0.0,0.0,2.1678,2.1842,2.2615,2.2613,2.2591,2.2591,2.2451,2.2279,2.2085,2.2007,2.2339,2.3098,2.4225,2.4074,2.2934,2.2819,2.2188,2.121,2.0876,2.0821,2.0891,2.0951,2.119,2.1537,2.1651,2.1819,2.2044,0.0,0.0,1.4236,1.4298,0.0,0.0,0.0,0.0,0.0,1.4293,1.4293,1.4268,0.0,0.0,0.0,1.4107,1.4074,1.4008,1.382,1.398,1.3977,1.3728,1.3936,1.4435,1.5249,1.5483,1.5663,1.5824,1.6419,1.6673,1.6582,0.0,1.7235,1.6942,0.0,1.6257,1.6402,1.6152,1.5923,1.5766,1.6374,1.5124,1.2885,1.2706,0.0,0.0,0.0,0.0,0.0,0.0,0.0,0.0,0.8686,0.0,1.0367,0.9546,1.0385,1.187,0.0,0.0,0.0,0.0,0.0,0.0,0.0,0.0,0.0,0.0,0.0,0.0,0.0,0.0,0.0,2.5873,2.5209,2.4907,2.5423,2.4572,2.4084,2.4642,2.4297,0.0,0.0,0.0,0.0,0.0,0.0,0.0,2.0294,2.0316,2.0344,2.0357,2.064,2.0767,2.0744,2.0798,2.0826,2.0892,2.0695,2.0909,2.1485,2.3285,2.3109,2.1362,2.114,2.0614,1.9949,1.9962,2.0107,2.032,2.0452,2.0728,2.1121,2.1482,2.1616,2.1615,0.0,0.0,1.4349,1.4312,0.0,0.0,0.0,0.0,1.4281,1.4236,1.4211,1.4203,1.4123,1.4037,0.0,1.4012,1.3934,1.3875,1.3886,1.3908,1.3925,1.3856,1.43,1.5159,1.6479,1.5853,1.5416,1.5193,1.5396,1.5724,0.0,0.0,0.0,1.5203,0.0,1.6038,1.5094,1.606,1.6225,1.5823,1.5397,1.4627,1.3687,1.3132,1.2373,0.0,0.0,0.0,0.0,0.0,0.0,0.0,0.8897,0.967,1.0598,1.0303,1.1492,1.3119,0.0,0.0,0.0,0.0,0.0,0.0,0.0,0.0,0.0,0.0,0.0,0.0,0.0,0.0,0.0,2.567,2.4695,2.397,2.4095,2.3913,2.3828,2.407,2.3537,0.0,0.0,0.0,0.0,0.0,0.0,0.0,1.9538,1.96,1.9761,2.0085,1.9954,1.9786,1.9647,1.9456,1.9583,0.0,2.0007,2.0308,2.0909,2.2232,2.2521,2.1964,2.0958,2.0408,2.014,1.936,1.925,1.9607,1.9654,1.9876,2.0223,2.0681,2.0925,2.107,0.0,0.0,0.0,0.0,0.0,0.0,0.0,0.0,1.4453,1.5164,1.4913,1.4802,1.5125,1.4745,0.0,0.0,1.3924,1.3589,1.3437,1.351,1.3559,1.3559,1.417,1.4865,1.5639,1.5087,1.4854,1.4989,0.0,0.0,0.0,0.0,0.0,1.5715,0.0,1.5846,1.5146,1.5448,1.5438,1.5149,1.4726,1.4177,1.3552,1.2941,1.2317,0.0,0.0,0.0,0.0,0.0,0.0,0.0,0.0,0.0,1.0542,1.0216,1.1399,1.303,0.0,0.0,0.0,0.0,0.0,0.0,0.0,0.0,0.0,0.0,0.0,0.0,0.0,0.0,2.6061,2.5456,2.4323,2.3602,2.3895,2.3234,2.2845,2.3286,0.0,0.0,0.0,0.0,0.0,0.0,0.0,1.8806,1.8915,1.8955,1.9014,1.9128,1.9156,1.9068,1.8866,1.8894,1.9068,1.9381,1.9669,2.0137,2.0738,2.1577,2.1809,2.1498,2.0771,1.9962,1.9194,1.9072,1.9058,1.9113,1.9551,1.9853,2.0034,2.045,2.0669,2.0738,0.0,0.0,0.0,0.0,0.0,0.0,0.0,0.0,0.0,1.5802,1.549,1.5317,1.5776,1.5314,1.4825,0.0,0.0,0.0,1.2971,1.3114,1.326,1.3377,1.3937,1.4295,1.4419,1.4219,1.4316,0.0,0.0,0.0,0.0,0.0,0.0,1.6834,0.0,1.5642,1.5459,1.4644,1.4291,1.4218,1.4008,1.3566,1.2966,1.2395,0.0,0.0,0.0,0.9843,0.9856,0.9042,0.0,0.0,0.0,0.0,1.0252,0.9688,1.0809,1.2394,0.0,0.0,0.0,0.0,0.0,0.0,0.0,0.0,0.0,0.0,0.0,0.0,0.0,0.0,2.6285,2.5222,2.3966,2.3281,2.3766,2.2443,2.1643,2.2283,0.0,0.0,0.0,0.0,0.0,0.0,0.0,1.85,1.8299,1.8291,1.8193,1.7978,1.8228,1.8311,1.819,1.8477,1.8662,1.8767,1.9368,2.0033,2.0737,2.0962,2.0883,2.0611,2.0443,1.954,1.817,1.8794,1.8905,1.8774,1.9551,1.9911,2.003,2.0387,2.0494,2.0432,0.0,0.0,0.0,0.0,0.0,0.0,0.0,0.0,0.0,0.0,1.4601,1.4684,1.4031,1.4281,1.4201,1.3463,1.3146,1.3018,1.3158,0.0,0.0,1.4133,1.4079,1.4307,1.4894,1.4707,1.4302,0.0,0.0,0.0,0.0,0.0,0.0,1.6699,0.0,0.0,1.4694,1.3888,1.3538,1.3463,1.2758,1.2427,1.2257,0.0,0.0,0.0,0.0,0.0,0.0,0.9928,0.985,0.0,0.0,0.0,0.9683,0.9019,1.0312,0.0,0.0,0.0,0.0,0.0,0.0,0.0,0.0,0.0,0.0,0.0,0.0,0.0,0.0,2.5838,2.5039,2.4882,2.3449,2.2386,2.2456,2.1438,2.0724,0.0,0.0,0.0,0.0,0.0,0.0,0.0,1.9501,1.9093,1.7536,1.7458,1.7336,1.7068,1.6994,1.7076,1.7358,1.7403,1.7695,1.8218,1.8767,1.9675,2.0837,1.9743,1.9487,1.9919,1.9921,1.9443,1.8652,1.7899,1.801,1.8698,1.884,1.9146,1.954,1.9987,2.0102,2.0008,0.0,0.0,0.0,0.0,0.0,0.0,0.0,0.0,0.0,0.0,0.0,1.53,1.5332,1.5178,1.4701,1.3781,1.3248,1.3113,1.3459,1.3088,1.3186,1.388,1.3426,1.3474,1.4149,1.4073,1.4234,0.0,0.0,0.0,0.0,1.7138,1.6927,0.0,0.0,0.0,0.0,0.0,1.3664,1.2218,1.2215,1.2453,0.0,0.0,0.0,0.0,0.0,0.0,0.0,0.0,1.0081,1.0176,0.9319,0.0,0.0,0.0,0.0,0.0,0.0,0.0,0.0,0.0,0.0,0.0,0.0,0.0,0.0,0.0,0.0,0.0,2.588,2.5195,2.4506,2.4506,2.3658,2.2979,2.2979,2.1818,2.0986,0.0,0.0,0.0,0.0,0.0,0.0,0.0,1.85,1.8153,1.7413,1.7315,1.7169,1.6908,1.7056,1.7162,1.7199,1.761,1.8092,1.8657,1.8184,1.858,1.9764,1.8855,1.898,1.985,1.8875,1.8484,1.8458,1.7651,1.7711,1.8338,1.8589,1.8993,1.9441,1.9627,1.9843,1.998,0.0,0.0,0.0,0.0,0.0,0.0,0.0,0.0,0.0,0.0,0.0,1.5377,1.5718,0.0,0.0,0.0,1.3678,1.3609,1.3956,1.3456,1.3388,1.3882,1.3183,1.3104,1.378,1.3789,0.0,0.0,0.0,0.0,1.8087,1.7764,1.7372,0.0,1.7967,0.0,0.0,0.0,0.0,0.0,0.0,0.0,0.0,0.0,0.0,0.0,0.0,0.0,0.0,0.0,0.0,0.0,0.0,0.0,0.0,0.0,0.0,0.0,0.0,0.0,0.0,0.0,0.0,0.0,0.0,0.0,0.0,0.0,0.0,2.3691,2.4962,2.4698,2.4302,2.4302,2.3773,2.3355,2.3355,2.196,0.0,0.0,0.0,0.0,0.0,0.0,0.0,0.0,1.7907,1.7647,1.739,1.7125,1.6975,1.6908,1.697,1.7061,1.7199,1.7771,1.835,1.8878,1.7789,1.7843,1.893,1.8201,1.8565,1.9708,1.8363,1.7875,1.7978,1.766,1.7693,1.8043,1.8381,1.8884,1.9387,1.9387,1.9725,2.0084,0.0,0.0,0.0,0.0,0.0,0.0,0.0,0.0,0.0,0.0,0.0,1.3996,1.3267,1.4407,1.4823,1.3812,1.432,1.4732,1.4753,1.4721,1.4693,1.4742,1.3972,0.0,1.4615,0.0,0.0,0.0,0.0,0.0,1.5975,1.6569,1.6882,1.6911,1.703,1.7254,1.7411,0.0,0.0,0.0,0.0,1.4935,0.0,0.0,0.0,0.0,0.0,0.0,0.0,0.0,0.0,0.0,0.0,0.0,0.0,0.0,0.0,0.0,0.0,0.0,0.0,0.0,0.0,0.0,0.0,0.0,0.0,0.0,0.0,2.3517,2.4225,2.4333,2.4302,2.4302,2.3379,2.2646,2.2646,2.116,0.0,0.0,0.0,0.0,0.0,0.0,0.0,0.0,1.8597,1.8506,1.7379,1.6578,1.6381,1.6875,1.6068,1.612,1.7186,1.7355,1.7734,1.8323,1.7695,1.7998,1.9041,1.7812,1.7943,1.9117,1.8924,1.8234,1.7296,1.7855,1.8036,1.801,1.8032,1.8611,1.9387,1.9387,1.982,2.0333,0.0,0.0,0.0,0.0,0.0,0.0,0.0,0.0,0.0,0.0,0.0,0.0,0.0,1.5109,1.5206,1.3943,1.4072,1.4401,1.4847,1.4857,1.4839,1.4801,1.4478,1.4183,1.3944,0.0,0.0,0.0,0.0,1.4979,1.5743,1.6035,1.6453,1.703,1.8749,1.8089,1.5828,1.6902,0.0,0.0,1.574,1.5829,0.0,0.0,0.0,0.0,0.0,0.0,0.0,0.0,0.0,0.0,0.0,0.0,0.0,0.0,0.0,0.0,0.0,0.0,0.0,0.0,0.0,0.0,0.0,0.0,0.0,0.0,2.0916,2.2089,2.2336,2.2717,2.3009,2.3009,2.2677,2.2406,2.2406,0.0,0.0,0.0,0.0,0.0,0.0,0.0,0.0,0.0,0.0,1.69,1.7277,1.6253,1.6117,1.7117,1.6908,1.7175,1.797,1.7597,1.7723,1.8352,1.7634,1.7484,1.7864,1.7403,1.7442,1.7904,1.8276,1.8244,1.7889,1.7711,1.7619,1.754,1.754,1.8108,1.8916,1.8622,1.9304,2.0289,0.0,0.0,0.0,0.0,0.0,0.0,0.0,0.0,0.0,0.0,0.0,0.0,0.0,0.0,1.5609,1.4692,1.4594,1.4697,1.4891,1.4901,1.4879,1.4846,1.4549,1.4254,1.3945,0.0,0.0,0.0,0.0,0.0,0.0,1.5268,1.5683,1.6288,1.8475,1.8178,0.0,0.0,0.0,1.6035,0.0,1.74,1.7332,0.0,0.0,0.0,0.0,0.0,0.0,0.0,0.0,0.0,0.0,0.0,0.0,0.0,0.0,0.0,0.0,0.0,0.0,0.0,0.0,0.0,0.0,0.0,0.0,0.0,1.9837,2.1304,2.1304,2.1473,2.1858,2.2536,2.2274,2.1966,2.1966,0.0,0.0,0.0,0.0,0.0,0.0,0.0,0.0,0.0,0.0,0.0,1.7553,1.6592,1.6377,1.7155,1.7437,1.7757,1.8166,1.7722,1.7693,1.806,1.7549,1.7282,1.7199,1.7199,1.722,1.73,1.7929,1.8357,1.856,1.7952,1.7798,1.7907,1.7473,1.7787,1.8436,1.8383,1.9152,2.0152,0.0,0.0,0.0,0.0,0.0,0.0,0.0,0.0,0.0,0.0,0.0,0.0,0.0,0.0,0.0,1.5998,1.5982,1.5662,1.4956,1.4907,1.4891,1.4875,1.4202,1.4106,1.4722,0.0,0.0,0.0,0.0,0.0,0.0,0.0,1.4544,0.0,1.5927,1.737,1.8772,0.0,1.9606,2.0719,0.0,1.9671,2.0655,0.0,0.0,0.0,1.9638,1.9417,0.0,1.865,0.0,0.0,0.0,0.0,0.0,0.0,0.0,0.0,0.0,0.0,0.0,0.0,0.0,0.0,1.4598,0.0,1.813,1.8146,1.9777,2.1227,2.1242,2.0736,2.0952,2.2917,2.2135,2.1273,0.0,0.0,0.0,0.0,0.0,0.0,0.0,0.0,0.0,0.0,1.8198,1.802,1.8189,1.7592,1.7186,1.703,1.749,1.772,1.7699,1.7699,1.761,1.7404,1.7481,1.7393,1.7199,1.7199,1.7274,1.741,1.795,1.8562,1.9191,1.8585,1.8663,1.9074,1.7835,1.763,1.8083,1.8729,1.9357,1.9896,0.0,0.0,0.0,0.0,0.0,0.0,0.0,0.0,0.0,0.0,0.0,0.0,0.0,0.0,0.0,1.5998,1.5517,1.5117,1.4907,1.4907,1.4659,1.4127,1.4374,1.4106,1.3223,0.0,0.0,0.0,0.0,0.0,0.0,0.0,0.0,0.0,1.454,1.5391,1.5964,1.8628,0.0,0.0,2.0814,2.0414,0.0,0.0,0.0,0.0,0.0,2.04,2.0146,0.0,1.8649,1.7051,0.0,0.0,0.0,0.0,0.0,0.0,1.1898,0.0,0.0,0.0,0.0,0.0,1.4903,1.5779,1.6472,1.6997,1.8144,1.9222,1.9748,2.0138,2.0694,2.1689,2.1134,2.0582,0.0,0.0,0.0,0.0,0.0,0.0,0.0,0.0,0.0,0.0,1.7665,1.7441,1.8167,1.8154,1.8071,1.7881,1.8145,1.8143,1.7842,1.7895,1.7774,1.7468,1.744,1.7337,1.7199,1.7199,1.722,1.7267,1.7508,1.8424,1.9725,1.924,1.908,1.9114,1.834,1.832,1.864,1.8023,1.867,1.984,0.0,0.0,0.0,0.0,0.0,0.0,0.0,0.0,0.0,0.0,0.0,0.0,0.0,0.0,0.0,1.6484,1.5501,1.4907,1.4907,1.4643,1.4287,1.3852,1.4223,1.3875,1.2662,0.0,0.0,0.0,0.0,0.0,0.0,0.0,0.0,0.0,0.0,0.0,0.0,0.0,0.0,0.0,2.0894,0.0,0.0,2.1518,2.1244,0.0,0.0,0.0,2.1271,2.1143,1.9531,0.0,0.0,0.0,0.0,0.0,0.0,0.0,0.0,0.0,0.0,0.0,0.0,0.0,1.5309,1.5861,1.6278,0.0,1.8434,1.9326,1.9336,1.9575,1.9936,2.0435,1.9903,1.9623,0.0,0.0,0.0,0.0,0.0,0.0,0.0,1.9836,1.957,1.9118,1.8102,1.7712,1.8181,1.8347,1.8386,1.8341,1.8439,1.8361,1.8023,1.8055,1.7915,1.757,1.7481,1.7267,1.6968,1.7136,1.7109,1.6981,1.7265,1.8249,1.9611,1.9384,1.9568,1.9888,1.8744,1.8472,1.8617,1.7913,1.8493,1.9624,0.0,0.0,1.4923,1.5004,1.5085,0.0,0.0,0.0,0.0,0.0,0.0,0.0,0.0,0.0,0.0,0.0,1.5937,1.5069,1.4907,1.4276,1.3891,1.3891,1.3891,1.3601,1.2961,0.0,0.0,0.0,0.0,0.0,0.0,0.0,0.0,0.0,1.332,1.3621,0.0,0.0,0.0,2.0703,2.0399,2.1678,0.0,0.0,2.2025,0.0,2.3385,2.3072,2.194,2.2489,2.0509,0.0,0.0,0.0,0.0,0.0,1.4564,0.0,0.0,0.0,0.0,0.0,0.0,0.0,1.566,1.6225,1.6726,1.8056,1.9482,2.0289,1.9546,1.9165,1.9061,1.9358,1.8703,1.8609,0.0,0.0,0.0,0.0,0.0,0.0,2.0388,2.0065,1.9859,1.9882,1.9043,1.8436,1.8208,1.826,1.8358,1.8517,1.8517,1.842,1.8208,1.8208,1.8043,1.7699,1.757,1.7203,1.6605,1.704,1.7007,1.6618,1.7168,1.8011,1.9027,1.9163,1.9972,2.0912,1.9187,1.8528,1.8506,1.8284,1.8635,1.9276,1.4708,1.481,1.5085,1.5679,0.0,0.0,0.0,0.0,0.0,0.0,0.0,0.0,0.0,0.0,0.0,0.0,0.0,1.6176,1.4972,1.4276,1.3891,1.3891,1.3891,1.4071,1.446,1.461,0.0,0.0,0.0,0.0,0.0,0.0,0.0,0.0,1.4063,1.439,0.0,0.0,0.0,1.869,2.1552,0.0,2.1119,2.3174,2.2096,1.9812,2.2309,2.229,2.1065,2.1174,2.0399,1.9073,0.0,0.0,0.0,0.0,0.0,0.0,0.0,0.0,0.0,0.0,0.0,0.0,1.5627,1.5363,1.5342,0.0,1.8013,1.8355,1.9235,1.9397,1.9389,1.9398,1.8551,1.8081,0.0,0.0,0.0,0.0,0.0,0.0,2.0321,2.0252,2.01,1.9841,1.9151,1.8586,1.8222,1.826,1.8397,1.8653,1.8653,1.8542,1.8279,1.8279,1.8095,1.7699,1.7679,1.7297,1.6625,1.7169,1.7136,1.6618,1.7216,1.7879,1.8565,1.8682,1.9634,2.0943,2.0144,1.9901,1.985,1.8699,1.8691,1.9222,1.5452,1.5743,1.6111,1.6484,0.0,0.0,0.0,0.0,0.0,0.0,0.0,0.0,0.0,0.0,0.0,0.0,0.0,0.0,0.0,0.0,1.4384,1.4347,1.4384,1.4374,1.4352,1.4642,1.4774,0.0,0.0,0.0,0.0,0.0,0.0,0.0,0.0,0.0,0.0,0.0,1.6647,1.8744,2.0879,0.0,2.0846,2.3015,2.2433,2.0671,2.2406,2.2494,2.1696,2.0685,2.0353,0.0,0.0,1.7731,1.697,0.0,1.5627,1.5615,0.0,0.0,0.0,1.4953,0.0,0.0,0.0,1.5617,1.6025,1.7867,1.8209,1.8332,1.8904,0.0,1.8239,1.8348,1.7231,1.6408,0.0,0.0,0.0,0.0,0.0,0.0,1.94,1.94,1.9237,1.8876,1.8655,1.8405,1.8078,1.8166,1.8386,1.8692,1.8716,1.8664,1.8489,1.8431,1.8248,1.7942,1.7781,1.739,1.6826,1.7303,1.7217,1.6735,1.7263,1.7842,1.8414,1.8478,1.9182,2.0217,1.9963,2.0076,2.0258,1.9228,1.9032,1.9244,1.616,1.669,1.7144,1.7273,0.0,0.0,0.0,0.0,0.0,0.0,0.0,0.0,0.0,0.0,0.0,0.0,0.0,0.0,0.0,0.0,0.0,1.5034,1.5045,1.4879,1.4438,1.4753,1.498,0.0,0.0,0.0,0.0,0.0,0.0,0.0,0.0,0.0,0.0,0.0,0.0,1.9483,0.0,2.0416,2.1166,2.2582,2.2498,2.1705,2.2339,2.2558,2.2253,2.048,0.0,2.0401,1.9814,1.8688,0.0,0.0,0.0,0.0,0.0,0.0,0.0,0.0,0.0,1.3969,0.0,0.0,0.0,1.8036,1.8575,0.0,0.0,0.0,0.0,0.0,0.0,0.0,0.0,0.0,0.0,0.0,0.0,0.0,1.7676,1.8079,1.8207,1.7909,1.8367,1.8423,1.7928,1.8171,1.8445,1.8692,1.8736,1.8736,1.8692,1.8576,1.84,1.8202,1.7922,1.751,1.7014,1.7404,1.731,1.6865,1.7364,1.7851,1.8305,1.8305,1.8717,1.936,1.9472,1.9882,2.0329,1.9686,1.9397,1.9313,1.6723,1.703,1.729,1.7876,0.0,0.0,0.0,0.0,0.0,0.0,0.0,0.0,0.0,0.0,0.0,0.0,0.0,0.0,1.7966,0.0,0.0,0.0,1.5731,1.5987,1.6615,1.6064,1.6032,1.6559,0.0,0.0,0.0,0.0,0.0,0.0,1.6876,0.0,0.0,0.0,1.8747,0.0,1.9751,2.005,0.0,2.2035,2.1553,2.0304,2.086,2.1082,2.0988,0.0,1.9556,1.9108,0.0,1.7957,1.6913,0.0,0.0,0.0,0.0,0.0,0.0,0.0,1.4984,0.0,0.0,0.0,1.648,1.6632,0.0,0.0,0.0,0.0,0.0,0.0,0.0,0.0,1.6221,0.0,0.0,0.0,0.0,0.0,0.0,1.6517,1.7755,1.7895,1.9142,1.9318,1.7975,1.8501,1.8789,1.8692,1.8595,1.8595,1.8692,1.8576,1.84,1.8202,1.8163,1.7748,1.7014,1.7591,1.7537,1.7008,1.7604,1.7902,1.797,1.797,1.833,1.8927,1.9346,1.9902,2.0412,1.9742,1.9447,1.93,1.5787,1.65,1.7047,1.6905,0.0,0.0,0.0,0.0,0.0,0.0,0.0,0.0,0.0,0.0,0.0,0.0,0.0,2.1004,0.0,0.0,0.0,0.0,1.7365,1.7091,1.7001,1.7078,1.7011,1.6798,1.6205,0.0,0.0,0.0,0.0,0.0,1.7296,0.0,1.8841,0.0,0.0,0.0,0.0,0.0,0.0,2.1328,2.1537,2.1198,2.1038,2.1483,2.1832,0.0,1.9984,0.0,0.0,0.0,0.0,0.0,0.0,0.0,0.0,0.0,0.0,0.0,0.0,0.0,1.6356,0.0,1.6201,0.0,0.0,0.0,0.0,0.0,0.0,0.0,1.5627,0.0,0.0,0.0,1.2575,0.0,0.0,0.0,0.0,0.0,0.0,0.0,1.6388,1.6682,1.5844,1.7421,1.8394,1.8581,1.8595,1.8673,1.8755,1.8673,1.8576,1.8498,1.8301,1.8025,1.7693,1.7854,1.7957,1.8038,1.7943,1.8092,1.8391,1.8038,1.8052,1.8296,1.8491,1.9358,2.0471,2.0187,1.9781,1.9371,1.5306,0.0,0.0,0.0,0.0,0.0,0.0,0.0,0.0,0.0,0.0,0.0,2.1504,2.1215,0.0,0.0,2.3136,2.2747,0.0,0.0,2.0177,0.0,0.0,0.0,0.0,1.7963,1.7703,1.7072,0.0,0.0,0.0,0.0,0.0,0.0,0.0,1.8588,1.9444,0.0,0.0,2.1187,1.9764,1.9546,2.0131,2.0717,2.1553,2.2319,2.1598,2.2076,2.2727,2.0559,2.0782,0.0,2.0591,0.0,0.0,0.0,0.0,0.0,1.8546,0.0,0.0,0.0,0.0,0.0,0.0,0.0,0.0,0.0,0.0,0.0,0.0,0.0,0.0,0.0,0.0,0.0,0.0,0.0,0.0,0.0,0.0,0.0,0.0,0.0,0.0,0.0,0.0,1.4938,1.412,1.6632,1.8147,1.825,1.8511,1.8692,1.8779,1.8736,1.8731,1.8692,1.842,1.8262,1.8183,1.7983,1.8133,1.8527,1.8092,1.8147,1.8513,1.8079,1.7902,1.7902,1.7902,1.8764,2.0044,2.022,1.9926,1.9419,1.5982,1.6593,0.0,0.0,0.0,0.0,0.0,0.0,0.0,0.0,0.0,0.0,0.0,0.0,0.0,0.0,0.0,2.4691,2.5312,0.0,2.2683,0.0,0.0,1.9362,0.0,0.0,0.0,0.0,0.0,0.0,0.0,0.0,0.0,0.0,0.0,1.9558,2.1055,2.1324,2.2207,2.3298,2.2151,2.1517,2.1165,0.0,2.1343,2.3055,2.2248,0.0,0.0,2.2421,2.1811,0.0,0.0,0.0,0.0,0.0,0.0,0.0,0.0,0.0,0.0,1.8606,0.0,0.0,0.0,0.0,1.6185,0.0,0.0,0.0,0.0,0.0,0.0,0.0,0.0,0.0,0.0,0.0,0.0,0.0,0.0,0.0,0.0,0.0,0.0,0.0,0.0,0.0,1.364,1.6736,1.8288,1.7651,1.8208,1.8576,1.8692,1.876,1.876,1.8692,1.8556,1.84,1.8183,1.7983,1.7916,1.7929,1.7916,1.7916,1.7929,1.7916,1.7902,1.7902,1.7902,1.8282,1.8921,1.951,1.9641,1.9487,0.0,0.0,0.0,0.0,0.0,0.0,0.0,1.9388,0.0,0.0,0.0,0.0,0.0,2.7668,2.814,0.0,0.0,2.8436,2.6289,2.567,0.0,0.0,0.0,2.1633,0.0,0.0,0.0,0.0,0.0,0.0,0.0,0.0,0.0,0.0,0.0,2.0082,0.0,0.0,0.0,0.0,0.0,2.2646,2.3332,0.0,0.0,2.3304,2.3508,2.3767,0.0,2.268,2.2489,2.2652,2.2035,2.1199,2.0589,2.1311,2.0498,0.0,0.0,0.0,2.0407,2.0711,0.0,0.0,0.0,0.0,0.0,0.0,0.0,0.0,0.0,0.0,0.0,0.0,0.0,0.0,0.0,0.0,0.0,0.0,0.0,0.0,0.0,0.0,0.0,0.0,0.0,0.0,0.0,1.4364,1.6369,1.6097,1.7646,1.8484,1.845,1.8688,1.876,1.8692,1.8697,1.8548,1.826,1.8149,1.8228,1.8459,1.8065,1.8133,1.8459,1.8065,1.7902,1.7902,1.7902,1.8024,1.8282,1.888,1.9256,1.9413,1.887,0.0,0.0,0.0,0.0,0.0,0.0,0.0,0.0,0.0,2.4536,0.0,2.9128,0.0,3.0259,0.0,3.0359,2.9614,2.7666,2.6591,0.0,2.5895,2.4317,0.0,0.0,0.0,0.0,0.0,0.0,1.9457,0.0,0.0,0.0,0.0,0.0,0.0,0.0,0.0,2.2716,0.0,0.0,2.3231,0.0,0.0,2.356,2.4015,0.0,2.3965,2.4241,2.3101,2.3056,2.3349,2.2502,2.1955,2.1633,2.181,2.1079,2.0486,2.1668,2.1938,0.0,2.1936,2.1253,0.0,1.9466,0.0,0.0,0.0,0.0,0.0,0.0,0.0,0.0,0.0,0.0,0.0,0.0,0.0,0.0,0.0,0.0,0.0,0.0,0.0,0.0,0.0,0.0,0.0,0.0,0.0,1.5261,1.501,1.7218,1.8249,1.794,1.8435,1.8564,1.8314,1.8622,1.8644,1.8431,1.845,1.8584,1.8814,1.8524,1.8517,1.8694,1.8315,1.8052,1.7902,1.7902,1.7902,1.7997,1.8826,1.9415,1.9719,2.0206,0.0,0.0,0.0,1.9781,0.0,0.0,0.0,2.3824,0.0,2.5901,2.6491,2.9159,2.8284,2.8407,3.0678,2.921,2.8505,2.9355,2.6954,0.0,0.0,2.4768,2.4218,2.5668,0.0,0.0,0.0,0.0,0.0,0.0,0.0,0.0,0.0,2.0162,0.0,2.1183,2.2608,2.3339,2.3528,2.3376,2.3323,2.3322,2.308,2.4012,2.5139,2.313,2.3243,2.4275,2.3688,2.3496,2.3349,2.2536,2.231,2.2132,2.1229,2.1325,2.1863,2.2443,2.2958,2.3126,2.2312,0.0,0.0,0.0,0.0,1.9121,0.0,0.0,0.0,0.0,0.0,0.0,0.0,0.0,0.0,0.0,0.0,0.0,0.0,0.0,0.0,0.0,0.0,0.0,0.0,0.0,0.0,0.0,0.0,1.4958,1.4584,1.6821,1.7821,1.7346,1.807,1.8171,1.7641,1.8375,1.8711,1.8687,1.8817,1.8884,1.8897,1.9163,1.9034,1.8634,1.862,1.8334,1.7923,1.7916,1.7943,1.8133,1.9266,2.001,2.0308,2.0814,2.0751,2.0735,0.0,2.0957,2.1742,0.0,0.0,0.0,0.0,2.8927,3.101,3.1337,3.2565,3.2918,3.1872,3.0882,0.0,0.0,0.0,0.0,2.8925,2.7851,2.6727,2.5651,2.5065,0.0,2.3035,0.0,0.0,2.1805,0.0,0.0,0.0,0.0,0.0,2.1199,2.2661,2.3648,2.4175,2.3499,2.3592,0.0,0.0,2.3975,2.5173,2.4097,2.3724,2.3704,2.3561,2.3496,2.3349,2.2536,2.231,2.2212,2.1835,2.1922,2.2427,2.366,2.3867,2.3733,2.3659,2.2819,2.1792,0.0,0.0,0.0,0.0,0.0,0.0,0.0,0.0,0.0,0.0,0.0,0.0,0.0,0.0,0.0,0.0,0.0,0.0,0.0,0.0,0.0,0.0,0.0,0.0,0.0,0.0,0.0,1.5481,1.5668,1.641,1.7814,1.7473,1.7584,1.8121,1.8664,1.8803,1.8537,1.8587,1.8713,1.8904,1.882,1.8909,1.9092,1.8739,1.8534,1.8388,1.8038,1.8459,1.9266,1.9591,2.0034,2.0361,2.1416,0.0,0.0,2.2123,0.0,0.0,2.4471,2.5722,0.0,2.7688,2.9822,0.0,3.248,3.3576,3.3968,3.3299,3.1758,0.0,3.0362,0.0,0.0,2.977,2.9011,2.7953,2.6552,2.5904,0.0,2.4313,0.0,0.0,2.2594,0.0,0.0,0.0,0.0,2.107,0.0,2.2644,2.3711,2.4342,2.3831,0.0,0.0,2.3721,2.3978,2.4726,2.4308,2.3829,2.3331,2.275,2.2539,2.2458,2.2005,2.1859,2.1859,2.1761,2.2053,2.267,2.3911,2.4293,2.4381,2.4597,2.3793,2.28,2.22,2.114,2.0364,0.0,0.0,0.0,0.0,0.0,0.0,0.0,0.0,0.0,0.0,0.0,0.0,0.0,0.0,0.0,0.0,0.0,0.0,0.0,0.0,0.0,0.0,0.0,0.0,1.3742,1.5105,1.5913,1.608,1.5926,1.6291,1.7121,1.7458,1.7953,1.859,1.8685,1.8907,1.9252,1.923,1.9358,1.9565,1.9092,1.8792,1.854,1.8072,1.8594,1.962,1.9678,2.0009,2.0362,0.0,0.0,0.0,0.0,0.0,0.0,0.0,2.6741,0.0,3.0132,0.0,3.0729,3.2999,3.2851,3.3118,3.4409,0.0,3.066,3.1489,2.9779,2.9187,3.0139,2.9253,2.8409,2.7721,2.6426,2.5694,0.0,0.0,0.0,0.0,0.0,0.0,0.0,0.0,0.0,0.0,2.2612,2.3578,2.4227,2.4209,2.4502,2.4897,2.4277,2.4122,2.4214,2.4137,2.3692,2.2986,2.1811,2.1358,2.1293,2.1293,2.1293,2.1357,2.1598,2.2037,2.2704,2.3852,2.4527,2.4906,2.5029,2.4696,2.4125,2.3358,2.2762,2.244,2.2572,2.2561,2.2224,0.0,0.0,0.0,0.0,0.0,0.0,0.0,0.0,0.0,0.0,0.0,0.0,0.0,0.0,0.0,0.0,0.0,0.0,0.0,0.0,0.0,1.1629,1.4749,1.5691,1.4065,0.0,1.4946,1.6062,1.5876,1.681,1.8667,1.8836,1.9202,1.9712,1.9844,1.9988,2.0043,1.9522,1.8981,1.8453,1.8126,1.866,1.9611,1.9638,2.0012,2.0399,0.0,0.0,0.0,0.0,0.0,2.6495,2.8475,2.9654,3.0735,3.1942,3.2751,3.3324,3.35,3.293,3.2802,3.3545,3.091,0.0,0.0,0.0,0.0,3.1584,3.0209,2.8888,2.7737,2.6927,2.6215,0.0,0.0,0.0,0.0,0.0,0.0,0.0,0.0,0.0,2.2854,2.2599,0.0,2.4365,2.4241,2.4228,2.4309,2.4676,2.4831,2.4787,2.4274,2.3355,2.2357,2.2116,2.1714,2.1293,2.1293,2.1293,2.1552,2.285,2.275,2.2749,2.5033,2.5196,2.4686,2.443,2.4696,2.4579,2.2849,2.2736,2.2885,2.2661,2.2326,2.2197,2.2494,0.0,0.0,0.0,0.0,0.0,0.0,0.0,0.0,0.0,0.0,0.0,0.0,0.0,0.0,0.0,0.0,0.0,0.0,0.0,0.0,0.0,1.3939,0.0,0.0,0.0,1.5394,1.8457,1.667,1.6758,1.8537,1.845,1.8859,1.9601,1.9476,1.9866,2.0526,1.9648,1.8806,1.8052,1.8361,1.9158,2.01,1.9556,2.0063,2.09,0.0,0.0,0.0,0.0,0.0,0.0,0.0,3.2146,3.2705,3.2852,3.3365,3.3774,3.394,3.3728,3.3773,3.4229,3.2407,3.1643,3.2588,3.175,3.1275,3.1422,3.0697,0.0,2.8304,2.7575,2.6879,2.6166,0.0,0.0,0.0,0.0,0.0,0.0,0.0,2.2015,0.0,0.0,0.0,2.4328,2.4641,2.4726,2.4662,2.4898,2.5005,2.4958,2.468,2.3981,2.3069,2.242,2.2003,2.1779,2.1779,2.1987,2.2439,2.3406,2.3566,2.3724,2.524,2.5518,2.5346,2.5244,2.5212,2.4863,2.3583,2.3246,2.3055,2.2544,2.2398,2.2238,2.1786,2.0488,0.0,0.0,0.0,0.0,0.0,0.0,0.0,0.0,0.0,0.0,0.0,0.0,0.0,0.0,0.0,0.0,0.0,0.0,0.0,0.0,0.0,0.0,0.0,0.0,0.0,1.7631,1.6211,1.6528,1.8341,1.8214,1.8515,1.9133,1.9002,1.9341,1.9909,1.923,1.8666,1.8314,1.8822,1.9521,2.0254,2.0294,2.0657,2.1027,0.0,2.6382,0.0,0.0,2.9335,0.0,3.3201,3.3918,3.4144,3.4042,3.3743,3.3811,3.4497,3.4384,3.4326,3.4588,3.3774,3.3054,3.2536,3.2184,3.1665,3.0875,3.0613,2.9939,2.8806,2.8077,2.7381,0.0,0.0,0.0,0.0,0.0,0.0,0.0,0.0,0.0,0.0,0.0,2.4416,2.4518,2.5093,2.5224,2.5091,2.5045,2.5005,2.5005,2.5005,2.4601,2.3949,2.2944,2.2515,2.2404,2.2404,2.272,2.3218,2.3781,2.4107,2.4427,2.5227,2.5607,2.5814,2.5954,2.5709,2.5179,2.4226,2.3751,2.3257,2.2468,2.2515,2.2345,2.1181,2.0738,0.0,0.0,0.0,0.0,0.0,0.0,0.0,0.0,0.0,0.0,0.0,0.0,0.0,0.0,0.0,0.0,0.0,0.0,0.0,0.0,0.0,1.4859,1.475,0.0,1.5155,1.6844,1.5802,1.6299,1.8149,1.8042,1.8262,1.8679,1.8615,1.8819,1.9133,1.8886,1.8782,1.8827,1.9373,1.9974,2.0617,2.101,2.126,2.1217,0.0,0.0,0.0,0.0,0.0,0.0,3.4083,3.4472,3.5042,3.6459,3.5123,3.4373,3.5293,3.3979,3.3043,3.303,3.285,3.2421,3.1579,3.1838,3.1625,3.0767,2.9598,2.8919,2.8811,2.8077,2.7381,0.0,0.0,2.4765,0.0,0.0,0.0,0.0,0.0,0.0,0.0,2.4323,2.474,2.5281,2.5362,2.5282,2.5091,2.5091,2.5048,2.5005,2.5005,2.4601,2.4089,2.3965,2.3524,2.3035,2.3035,2.305,2.3279,2.4173,2.3982,2.3872,2.5495,2.5517,2.514,2.5261,2.5709,2.5627,2.3801,2.3752,2.3771,2.2555,2.2515,2.2584,2.2204,2.1203,1.9866,0.0,0.0,0.0,0.0,0.0,0.0,0.0,0.0,0.0,0.0,1.313,0.0,0.0,0.0,0.0,0.0,0.0,0.0,1.354,0.0,1.4342,1.524,1.4607,1.5764,1.8625,1.6382,1.625,1.8022,1.8022,1.8208,1.8594,1.8594,1.8634,1.8693,1.9221,1.9378,1.9387,1.993,2.0793,2.1674,2.1208,2.1441,2.184,0.0,0.0,0.0,0.0,0.0,0.0,0.0,3.5549,3.5967,3.6616,3.5661,3.4973,3.5143,3.4299,3.3795,3.3936,3.3693,3.3029,3.1855,3.1901,3.147,3.0283,2.9729,2.9459,2.9459,2.8746,2.8223,0.0,0.0,0.0,0.0,0.0,0.0,0.0,0.0,2.474,2.4938,2.5067,2.5285,2.5505,2.5432,2.5359,2.5282,2.524,2.5146,2.5048,2.5048,2.489,2.4648,2.4648,2.4211,2.3713,2.3713,2.3946,2.4363,2.4863,2.463,2.445,2.5676,2.5605,2.5278,2.5709,2.6006,2.589,2.4713,2.4629,2.4445,2.3171,2.2671,2.2555,2.2842,2.2163,2.1037,0.0,0.0,0.0,0.0,0.0,0.0,0.0,0.0,0.0,0.0,0.0,0.0,0.0,0.0,0.0,0.0,0.0,0.0,1.5198,0.0,1.5593,1.7565,1.6482,1.672,1.8283,1.7316,1.7235,1.7935,1.7935,1.8024,1.82,1.8657,1.8785,1.8776,1.9402,1.9953,2.039,2.0703,2.1242,2.1898,2.1824,2.1749,2.1563,3.3429,0.0,3.2505,0.0,3.433,3.4697,3.5372,3.6059,3.6276,3.566,3.5522,3.5364,3.4943,3.4553,3.4243,3.4095,3.4085,3.3477,3.2045,3.1972,3.1438,3.0192,2.9972,0.0,2.9896,2.9394,2.9021,2.8811,2.761,0.0,0.0,0.0,0.0,0.0,2.6186,2.6017,2.5938,2.6056,2.6041,2.5866,2.5757,2.559,2.5397,2.5336,2.5259,2.5146,2.5127,2.5068,2.5025,2.5005,2.4708,2.4369,2.4369,2.4664,2.5045,2.524,2.5158,2.5123,2.5753,2.5755,2.5697,2.6125,2.6203,2.6005,2.5345,2.5229,2.4929,2.3878,2.3266,2.2996,2.3268,2.2929,2.2046,2.0361,0.0,0.0,0.0,0.0,0.0,0.0,1.7597,1.7015,1.792,0.0,0.0,0.0,0.0,0.0,0.0,0.0,0.0,0.0,0.0,0.0,1.8245,1.7246,1.7237,1.8222,1.8004,1.7902,1.7902,1.7902,1.8018,1.8249,1.8776,1.905,1.9205,1.9814,2.0477,2.1144,2.1368,2.1664,2.1975,2.218,2.1878,2.1313,3.5633,3.5624,3.5675,3.6353,3.6445,3.603,3.472,3.566,3.5753,3.3706,3.4629,3.5364,3.4943,3.4553,3.3863,3.2732,3.3521,3.3452,3.1894,3.1925,3.1602,0.0,0.0,2.9896,2.9896,2.988,2.9524,2.8811,0.0,0.0,2.6494,0.0,2.6609,2.719,2.7332,2.739,2.7374,2.739,2.702,2.6478,2.6478,2.606,2.5397,2.5397,2.5355,2.5294,2.5146,2.5091,2.5088,2.5025,2.5005,2.5005,2.5005,2.5005,2.5005,2.5005,2.5323,2.5684,2.5703,2.5994,2.6296,2.6295,2.6258,2.6005,2.5345,2.5246,2.5145,2.4596,2.443,2.4165,2.3513,2.3334,2.2565,2.0368,0.0,0.0,0.0,0.0,0.0,0.0,1.611,1.5703,1.7162,0.0,0.0,0.0,0.0,0.0,0.0,0.0,0.0,1.4153,1.3456,0.0,1.6317,1.6186,1.709,1.8982,1.8249,1.7902,1.7902,1.7902,1.8297,1.8982,1.8996,1.9368,2.0017,2.0489,2.0975,2.1429,2.1924,2.2103,2.2103,2.2103,2.1801,2.1375,3.4784,3.5522,3.6091,3.5845,3.6184,3.6353,3.5953,3.6215,3.6261,3.5599,3.5891,3.5904,3.525,3.4636,3.4037,0.0,3.3301,3.3112,0.0,3.1707,3.1022,3.0842,2.9739,2.9108,2.9027,2.9092,2.8968,2.8592,0.0,0.0,0.0,2.779,2.8099,2.8605,2.834,2.811,2.7911,2.7556,2.7299,2.7084,2.6667,2.6349,2.6108,2.5683,2.5467,2.5375,2.532,2.5224,2.5107,2.5088,2.5045,2.5005,2.5005,2.5005,2.5005,2.5005,2.5005,2.5121,2.5572,2.572,2.5832,2.6197,2.6347,2.6331,2.6012,2.5664,2.5497,2.5698,2.5027,2.4287,2.394,2.355,2.2579,2.0347,2.088,0.0,0.0,0.0,0.0,0.0,1.7461,1.7109,0.0,1.7466,0.0,0.0,0.0,0.0,0.0,0.0,0.0,0.0,1.7193,0.0,1.894,1.8423,1.8179,1.8249,1.8529,1.8604,1.8527,1.8985,1.9314,1.9584,2.0172,2.0507,2.0661,2.1222,2.166,2.1984,2.1729,2.1828,2.2088,2.1844,2.161,2.1399,3.517,3.5845,3.6353,3.5938,3.6215,3.6369,3.5951,3.6245,3.6369,3.5936,3.6291,3.6197,3.5266,3.4912,0.0,3.3902,3.3537,3.3282,3.3097,3.2151,3.1385,3.092,3.0047,2.941,2.9027,2.9108,0.0,2.8862,2.8862,2.8818,2.8685,2.8818,2.9019,2.9289,2.9038,2.8824,2.8583,2.8258,2.7844,2.7374,2.6992,2.6696,2.6434,2.5818,2.5686,2.5767,2.5493,2.532,2.5204,2.5185,2.5107,2.5064,2.5123,2.5084,2.5005,2.5005,2.5056,2.517,2.5589,2.5753,2.595,2.6564,2.6546,2.638,2.6365,2.6134,2.6,2.6334,2.5765,2.4977,2.4262,2.3842,2.2981,2.1069,2.1555,2.1827,2.079,0.0,0.0,0.0,0.0,0.0,0.0,1.8687,1.8182,0.0,0.0,0.0,0.0,0.0,0.0,1.8646,1.8216,0.0,2.0265,1.9065,1.8679,1.9106,1.9249,1.9232,1.9152,1.9593,1.9946,2.0246,2.0843,2.1216,2.1407,2.1736,2.197,2.2065,2.1645,2.1616,2.1826,2.1656,2.152,2.1423,3.6353,3.6477,3.6523,0.0,3.6523,0.0,3.5237,3.5932,3.6213,3.5192,3.6007,3.6241,3.5049,3.5228,3.5096,3.4163,0.0,0.0,0.0,3.3064,3.2393,3.1011,3.0865,3.0432,2.9611,2.9617,2.9582,2.9496,2.9473,2.9412,2.9305,2.9434,2.9434,2.9328,2.9457,2.9434,2.9305,2.9305,2.8602,2.7492,2.7481,2.7096,2.6494,2.5899,2.5992,2.6333,2.5722,2.5477,2.5458,2.5442,2.5313,2.5206,2.5448,2.5316,2.5084,2.5084,2.5371,2.5717,2.5815,2.6109,2.6563,2.7276,2.6854,2.6323,2.6467,2.6554,2.6606,2.6572,2.6537,2.605,2.4544,2.4163,2.3647,2.2285,2.2032,2.195,2.1763,0.0,0.0,0.0,0.0,0.0,0.0,1.9674,1.9707,0.0,0.0,0.0,0.0,0.0,1.5951,1.7254,1.7285,1.8308,2.045,1.8627,1.8827,2.1077,2.024,1.9816,1.9777,1.9901,2.0314,2.0987,2.1124,2.1559,2.2184,2.2067,2.1926,2.1793,2.1688,2.1544,2.1447,2.1568,2.1544,2.1471,0.0,0.0,3.6991,3.6385,3.6773,3.7098,3.6857,3.7018,3.7008,3.6547,3.6477,3.6153,3.5288,3.5011,3.4691,3.4156,3.3532,3.3386,3.3841,3.2668,3.1839,3.1596,3.0473,2.9461,2.8646,2.8686,2.892,2.935,2.9236,2.9213,2.9305,2.9434,2.9473,2.9473,2.9608,2.9525,2.9305,2.9305,2.9069,2.8668,2.8202,2.7673,2.7112,2.6527,2.6086,2.585,2.6128,2.6178,2.6138,2.66,2.6322,2.5932,2.6702,2.6388,2.5797,2.5954,2.5854,2.591,2.6954,2.7207,2.7366,2.7947,2.7601,2.7011,2.6585,2.6554,2.6555,2.64,2.6434,2.6166,2.5096,2.4447,2.3814,2.2897,2.2337,2.1582,2.0383,1.991,0.0,0.0,1.9052,1.9951,2.0242,2.1363,2.1837,0.0,0.0,0.0,0.0,1.9989,2.0307,2.1292,2.0548,2.0483,2.1245,2.0827,2.0724,2.0941,2.053,2.037,2.0489,2.1056,2.1485,2.175,2.189,2.2044,2.2184,2.2067,2.1996,2.1949,2.1793,2.1722,2.1712,2.1722,2.1722,2.1712,3.6025,3.669,3.7188,3.681,3.7105,3.7447,3.7623,3.7506,3.7387,3.7419,3.7162,3.6603,3.5545,3.5307,3.4856,3.3995,3.3561,3.3392,3.3499,3.2618,3.1823,3.1213,3.0445,2.9594,2.878,2.8799,2.893,2.9213,2.919,2.9236,2.9305,2.9502,2.9586,2.9586,2.9675,2.9608,2.9389,2.9328,2.9069,2.8645,2.8332,2.8017,2.7705,2.7128,2.6864,2.6795,2.688,2.6871,2.6837,2.7179,2.7051,2.6837,2.7428,2.7263,2.6919,2.7425,2.7126,2.6815,2.7651,2.7885,2.7973,2.8257,2.8381,2.8208,2.7476,2.7419,2.7473,2.7256,2.7045,2.6647,2.5757,2.4746,2.3816,2.3069,2.1803,2.0606,1.977,1.9051,0.0,1.8884,1.9926,2.1033,2.2007,2.2893,2.3223,2.2779,2.2068,0.0,2.1753,2.1823,2.2026,2.2357,2.1901,2.1779,2.2092,2.1942,2.1375,2.0405,2.0863,2.0986,2.0832,2.1554,2.1926,2.202,2.2137,2.2208,2.2184,2.2114,2.2067,2.1996,2.1926,2.1841,2.1793,2.1864,2.1841,2.1793,3.7254,3.7314,3.7403,3.7506,3.7535,3.7653,3.7915,3.7711,3.7594,3.7828,3.7706,3.7096,3.586,3.5776,3.5251,3.3966,3.3931,3.3703,3.298,3.2848,3.2222,3.0847,3.0831,3.0417,2.9457,2.933,2.9213,2.9098,2.9213,2.9282,2.9328,2.9547,2.9723,2.9858,2.9858,2.9817,2.9777,2.9573,2.9091,2.8491,2.838,2.8269,2.8154,2.7689,2.7748,2.8033,2.7663,2.7508,2.7524,2.7631,2.7688,2.7775,2.809,2.8082,2.8131,2.9038,2.8727,2.8111,2.8326,2.8547,2.8671,2.8591,2.9125,2.946,2.8536,2.8536,2.8643,2.8373,2.7833,2.7191,2.6503,2.5077,2.3802,2.3124,2.0994,1.9461,1.955,0.0,1.8403,2.0438,2.1065,2.2054,2.3918,2.4116,2.415,2.4249,2.3539,2.3253,2.3612,2.2979,2.248,2.2142,2.2212,2.2388,2.2659,2.2388,2.1494,2.0062,2.1195,2.1444,2.0876,2.1602,2.1927,2.1951,2.2119,2.2208,2.2208,2.2208,2.2137,2.2044,2.2044,2.1973,2.1864,2.1996,2.1973,2.1902,3.7567,3.7847,3.8049,3.8078,3.8164,3.8278,3.8307,3.8193,3.7992,3.7759,3.732,3.6816,3.6337,3.5979,3.5459,3.4627,3.4457,3.417,3.3608,3.3431,3.3029,3.2217,3.2085,3.1424,3.0085,2.9461,2.9121,2.9098,2.9121,2.9252,2.9473,2.9518,2.989,3.0537,3.0537,3.0742,3.1062,3.0482,3.0093,2.9848,2.92,2.8645,2.818,2.8106,2.7838,2.7567,2.7943,2.8081,2.8154,2.8668,2.8589,2.8415,2.9248,2.9119,2.8863,2.9943,3.007,2.9798,2.9734,2.9882,2.9943,2.9397,2.9716,2.9873,2.8652,2.8853,2.9118,2.8506,2.7852,2.7341,2.7168,2.5408,2.3918,2.3621,2.0821,1.8851,1.937,0.0,1.9577,2.051,2.2766,2.4328,2.4498,2.4618,2.4899,2.5399,2.4477,2.4007,2.4249,2.3876,2.3389,2.2788,2.236,2.2112,2.204,2.2261,2.1971,2.1139,2.1358,2.1185,2.0663,2.1227,2.1546,2.1687,2.2052,2.2208,2.2208,2.2208,2.2184,2.2184,2.2184,2.2161,2.2137,2.2161,2.2161,2.2137,3.7788,3.802,3.8209,3.8209,3.825,3.8266,3.8164,3.8078,3.7992,3.7817,3.7588,3.7208,3.6581,3.6333,3.5912,3.5145,3.5015,3.4698,3.4064,3.3308,3.2726,3.2409,3.1953,3.1223,3.022,2.9864,2.9501,2.9098,2.9167,2.9466,2.9979,2.9649,3.0094,3.1166,3.0727,3.0672,3.0863,3.083,3.0354,2.9611,2.9674,2.9287,2.8677,2.8677,2.8532,2.8354,2.8604,2.8677,2.874,2.9027,2.9112,2.922,2.9619,2.9962,3.0233,3.0396,3.0401,3.0359,3.0295,3.0359,3.0381,3.0075,3.0199,3.0219,2.9519,2.9655,2.9824,2.9453,2.8854,2.8304,2.7961,2.6071,2.4695,2.499,2.2005,0.0,0.0,2.1141,2.122,2.2702,2.441,2.561,2.593,2.6072,2.6074,2.5883,2.5409,2.4938,2.4532,2.4302,2.3773,2.2933,2.2665,2.2461,2.2269,2.2435,2.215,2.1449,2.179,2.1642,2.1104,2.1684,2.1923,2.1937,2.2127,2.2208,2.2208,2.2208,2.2208,2.2208,2.2208,2.2208,2.2208,2.2208,2.2208,2.2184,3.7876,3.7992,3.8123,3.818,3.8164,3.8078,3.7934,3.7876,3.7847,3.7847,3.7817,3.7536,3.6893,3.68,3.6502,3.5695,3.5631,3.5331,3.4589,3.3588,3.2876,3.256,3.1839,3.1207,3.071,3.052,3.0085,2.9351,2.9467,2.9727,3.0132,2.9683,3.0201,3.1526,3.0744,3.0553,3.0847,3.094,3.033,2.9382,2.9785,2.9611,2.9098,2.9098,2.9098,2.9098,2.9098,2.9098,2.913,2.9334,2.9569,2.9814,2.9942,3.0494,3.1019,3.0502,3.038,3.0443,3.0464,3.0506,3.0539,3.0641,3.0691,3.0665,3.0494,3.0515,3.0488,3.0243,2.9716,2.916,2.8698,2.6982,2.5772,2.6298,0.0,0.0,0.0,2.3063,2.2948,2.5081,2.6021,2.6716,2.7235,2.7415,2.7203,2.648,2.6243,2.5744,2.4894,2.4492,2.3859,2.297,2.2925,2.277,2.2499,2.2597,2.2237,2.1448,2.2041,2.2004,2.1447,2.1979,2.2181,2.2126,2.2292,2.2371,2.2419,2.2419,2.2419,2.2405,2.225,2.2208,2.2222,2.2362,2.232,2.2222,3.7801,3.7817,3.7817,3.8151,3.8049,3.7934,3.7905,3.7788,3.77,3.77,3.7628,3.7524,3.7431,3.7431,3.7146,3.6377,3.6329,3.6058,3.5347,3.5221,3.4573,3.3277,3.2592,3.2196,3.2149,3.1476,3.0796,3.0125,3.0125,2.9895,2.9384,2.9337,3.0076,3.1388,3.0704,3.1045,3.2095,3.0805,3.022,3.0062,2.9414,2.9146,2.9098,2.9098,2.9098,2.9098,2.9098,2.9098,2.9232,3.0045,3.0046,2.9855,3.0568,3.0581,3.0292,3.0227,3.021,3.0253,3.0359,3.0443,3.0629,3.1128,3.1249,3.1226,3.1226,3.1138,3.0875,3.0315,2.9716,2.9304,2.9239,2.8084,2.7077,2.6958,0.0,0.0,2.5461,2.4644,2.4596,2.6683,2.7575,2.7978,2.7845,2.7958,2.7961,2.778,2.6952,2.6221,2.5644,2.4552,2.3681,2.3097,2.297,2.2643,2.2141,2.2628,2.2323,2.1237,2.1835,2.182,2.1231,2.1535,2.172,2.188,2.2559,2.293,2.3027,2.3027,2.3027,2.2971,2.2433,2.2208,2.2278,2.2817,2.2676,2.2292,3.7847,3.7876,3.7876,3.7992,3.7876,3.7759,3.7671,3.7628,3.7569,3.7569,3.7539,3.751,3.751,3.751,3.7399,3.7101,3.7069,3.6785,3.6074,3.6026,3.5394,3.3972,3.3277,3.2734,3.2307,3.2038,3.1523,3.0828,3.0828,3.0931,3.1163,3.0695,3.1234,3.2548,3.1867,3.1851,3.226,3.1722,3.0995,3.0188,2.988,2.9516,2.9098,2.9098,2.9367,2.9722,2.9256,2.9382,2.984,3.0251,3.0094,2.9832,3.0548,3.0762,3.0767,3.0767,3.0833,3.0778,3.0277,3.0231,3.0476,3.1128,3.1308,3.1286,3.1197,3.113,3.0912,3.0223,2.9891,2.9623,2.9247,2.8388,2.7862,2.8247,0.0,2.626,2.8764,2.7604,2.7268,2.9448,2.9218,2.8843,2.8779,2.886,2.8679,2.8139,2.7405,2.6776,2.6285,2.4837,2.3929,2.3727,2.334,2.3017,2.2725,2.2906,2.2812,2.2388,2.2622,2.2812,2.301,2.3109,2.336,2.3728,2.4014,2.4167,2.423,2.423,2.4108,2.396,2.3719,2.3522,2.3361,2.3178,2.3234,2.3347,3.754,3.7511,3.7533,3.777,3.773,3.7628,3.751,3.751,3.751,3.751,3.751,3.751,3.751,3.751,3.751,3.751,3.751,3.7304,3.6785,3.6519,3.5761,3.4352,3.4067,3.353,3.2639,3.2829,3.2481,3.1555,3.1555,3.1681,3.1943,3.1444,3.1855,3.2945,3.2276,3.2086,3.2276,3.2054,3.1406,3.0496,3.0496,3.0212,2.973,2.9571,2.9967,3.0505,2.9523,2.9696,3.041,3.0441,3.0117,2.9881,3.0852,3.1297,3.145,3.1382,3.145,3.1381,3.0786,3.0701,3.0832,3.111,3.1197,3.1197,3.1063,3.0861,3.0591,3.0065,2.9989,2.987,2.945,2.9042,2.8903,2.937,2.8657,2.8706,3.062,2.9669,2.9358,3.0871,3.0248,2.9679,2.9659,2.9703,2.9509,2.8933,2.8357,2.7634,2.6715,2.5107,2.417,2.4124,2.3659,2.3341,2.3238,2.3179,2.3091,2.2922,2.3311,2.3714,2.4177,2.4297,2.4571,2.4971,2.5077,2.5139,2.5188,2.5188,2.5065,2.4891,2.469,2.4519,2.4301,2.3946,2.3992,2.4176,3.6821,3.6622,3.6672,3.7528,3.7567,3.7494,3.7494,3.7494,3.7494,3.7494,3.7494,3.751,3.7494,3.751,3.751,3.751,3.751,3.751,3.751,3.6817,3.5761,3.4367,3.4999,3.4747,3.3356,3.3957,3.3651,3.2307,3.2307,3.1943,3.1214,3.1214,3.1602,3.2276,3.1539,3.1618,3.226,3.1523,3.1198,3.1198,3.1198,3.1198,3.1144,3.0625,3.0927,3.1406,2.986,2.9966,3.0815,3.0676,3.0218,3.0,3.1674,3.2199,3.2176,3.2035,3.2012,3.2012,3.2012,3.2012,3.185,3.1098,3.1011,3.1079,3.0943,3.0409,2.9913,2.9913,2.9962,3.0027,3.0027,3.0243,3.0371,3.0243,3.0396,3.0485,3.0434,3.048,3.0506,3.0522,3.0506,3.0485,3.0417,3.0464,3.0464,3.0417,2.9903,2.8772,2.6916,2.5284,2.4354,2.4225,2.3822,2.3581,2.3524,2.3378,2.3052,2.253,2.3725,2.4315,2.4322,2.4741,2.4995,2.515,2.5466,2.5676,2.5818,2.5818,2.5818,2.5759,2.5145,2.4936,2.496,2.5271,2.5026,2.4544,3.5948,3.5836,3.5814,3.6162,3.6124,3.6011,3.6011,3.6437,3.6564,3.6074,3.6893,3.7291,3.6785,3.718,3.751,3.751,3.751,3.751,3.751,3.7275,3.6753,3.5793,3.5537,3.5189,3.4778,3.4446,3.4083,3.3715,3.3214,3.2882,3.2677,3.2677,3.2787,3.2993,3.2771,3.2803,3.2945,3.2276,3.1975,3.1943,3.1413,3.1198,3.1191,3.123,3.1702,3.2271,3.1484,3.1731,3.2474,3.2926,3.228,3.139,3.1913,3.2059,3.2059,3.2012,3.2368,3.2659,3.2141,3.2724,3.3307,3.2611,3.2473,3.2497,3.2449,3.2643,3.2692,3.2246,3.2545,3.2886,3.2886,3.2145,3.1694,3.2229,3.1083,3.0691,3.2282,3.1309,3.1,3.2496,3.1389,3.0704,3.1191,3.0782,3.0506,3.0464,2.993,2.8978,2.7512,2.6624,2.5982,2.5619,2.5032,2.4809,2.497,2.3933,2.3614,2.3896,2.4275,2.4951,2.5923,2.6044,2.6371,2.6857,2.696,2.7024,2.7075,2.7075,2.6948,2.6755,2.6589,2.6363,2.6115,2.5803,2.5824,2.596,3.5133,3.5062,3.5075,3.5443,3.5435,3.5394,3.5394,3.5742,3.5868,3.5442,3.6121,3.6485,3.6058,3.639,3.6688,3.6688,3.6896,3.718,3.7494,3.751,3.7291,3.6864,3.6437,3.5963,3.5394,3.5221,3.4999,3.4731,3.432,3.413,3.413,3.413,3.3972,3.3704,3.3704,3.3546,3.3277,3.2876,3.2703,3.2671,3.2218,3.1871,3.1715,3.2293,3.2473,3.245,3.2773,3.286,3.2859,3.3113,3.2716,3.2122,3.2359,3.2635,3.291,3.2862,3.3145,3.3453,3.3307,3.3874,3.4505,3.4392,3.3728,3.308,3.308,3.3404,3.3582,3.3178,3.3631,3.4101,3.4101,3.3445,3.3056,3.3486,3.2353,3.1896,3.3219,3.2198,3.1781,3.3102,3.2139,3.1437,3.1598,3.1201,3.0719,3.0177,2.9775,2.903,2.7775,2.7264,2.6768,2.6223,2.5898,2.5702,2.5615,2.4753,2.4537,2.4931,2.5207,2.5744,2.6544,2.6797,2.7126,2.7539,2.7473,2.7499,2.76,2.7524,2.7463,2.7346,2.7346,2.7244,2.7004,2.6546,2.6597,2.6797,3.436,3.429,3.4415,3.5094,3.5205,3.5205,3.5205,3.5252,3.5268,3.5205,3.5315,3.5363,3.53,3.5394,3.5458,3.5394,3.5963,3.6611,3.7288,3.7383,3.7415,3.7415,3.7478,3.6909,3.56,3.6137,3.6093,3.5489,3.5426,3.5394,3.5394,3.5394,3.5031,3.4383,3.4383,3.4051,3.3482,3.3482,3.3482,3.3482,3.3419,3.3003,3.2526,3.3595,3.3273,3.2416,3.3827,3.3681,3.2744,3.2295,3.2295,3.255,3.3032,3.3697,3.425,3.4126,3.4101,3.4246,3.4936,3.5163,3.539,3.6125,3.4829,3.3372,3.3372,3.342,3.3469,3.3469,3.4003,3.4489,3.4489,3.4484,3.4444,3.4401,3.3941,3.3609,3.3702,3.3189,3.2884,3.3061,3.2984,3.2663,3.2045,3.1929,3.1402,3.0176,2.9904,2.9296,2.8147,2.7678,2.71,2.64,2.6679,2.6488,2.577,2.583,2.5785,2.5704,2.6303,2.6559,2.6525,2.7134,2.7401,2.7401,2.7258,2.7361,2.7575,2.7437,2.7488,2.76,2.76,2.76,2.7575,2.7321,2.7233,2.7192,3.3541,3.3541,3.3577,3.3719,3.3767,3.3767,3.3767,3.4194,3.4336,3.3814,3.4715,3.5173,3.4589,3.5521,3.5979,3.5442,3.5521,3.5679,3.5837,3.6358,3.6658,3.6658,3.718,3.7368,3.7067,3.6627,3.6329,3.6172,3.5663,3.5394,3.5394,3.5394,3.53,3.5157,3.5157,3.5078,3.4936,3.4936,3.4936,3.4889,3.432,3.3779,3.3405,3.4384,3.4434,3.408,3.4963,3.5629,3.5952,3.5086,3.4691,3.4475,3.4003,3.4012,3.4151,3.4101,3.4101,3.4133,3.4295,3.4748,3.539,3.6125,3.5963,3.5606,3.5606,3.6027,3.64,3.64,3.6967,3.7469,3.7469,3.6605,3.6064,3.6679,3.4905,3.4053,3.5893,3.4655,3.4203,3.5943,3.5131,3.4584,3.5015,3.4518,3.4074,3.3775,3.2652,3.1718,3.1092,2.9948,2.8828,2.7794,2.8293,2.805,2.7036,2.7527,2.7309,2.6378,2.6512,2.6856,2.734,2.7378,2.7401,2.7401,2.7258,2.7284,2.7437,2.7427,2.7488,2.76,2.76,2.76,2.76,2.7524,2.7524,2.7473,3.3309,3.3309,3.3309,3.3309,3.3309,3.3309,3.3309,3.3593,3.3704,3.3356,3.3941,3.4241,3.3862,3.4494,3.492,3.4873,3.4873,3.5015,3.5363,3.5726,3.6074,3.6393,3.6785,3.7133,3.7494,3.7117,3.6927,3.6927,3.6564,3.6216,3.5884,3.5884,3.571,3.5394,3.5394,3.5463,3.5586,3.5463,3.5463,3.5554,3.5156,3.468,3.4286,3.5308,3.4966,3.4096,3.5518,3.588,3.5603,3.5151,3.4667,3.4249,3.4275,3.425,3.4201,3.4201,3.4151,3.4246,3.4959,3.5428,3.5882,3.661,3.7048,3.7209,3.6869,3.7036,3.7295,3.7295,3.789,3.8391,3.8391,3.7809,3.7447,3.7859,3.6535,3.5882,3.7124,3.6183,3.581,3.697,3.5802,3.4897,3.4955,3.5169,3.5094,3.4513,3.3354,3.2629,3.2484,3.0833,2.9779,2.954,2.9572,2.9167,2.8311,2.8595,2.8512,2.8034,2.7694,2.7863,2.8465,2.8047,2.7888,2.7847,2.7329,2.7222,2.7401,2.7335,2.7386,2.7514,2.7575,2.76,2.76,2.76,2.76,2.7575,3.3309,3.3309,3.3309,3.3309,3.3309,3.3309,3.3309,3.3309,3.3309,3.3309,3.3309,3.3309,3.3309,3.3403,3.3751,3.4415,3.4367,3.4557,3.5157,3.5205,3.5458,3.6014,3.6266,3.6706,3.7291,3.7447,3.751,3.751,3.751,3.718,3.6582,3.6582,3.6295,3.5742,3.5742,3.5832,3.5966,3.5749,3.5761,3.5961,3.5775,3.5407,3.5123,3.5977,3.5214,3.399,3.5687,3.5373,3.4217,3.4471,3.4056,3.355,3.4276,3.4423,3.4325,3.4325,3.425,3.4452,3.5669,3.6064,3.6281,3.6848,3.7501,3.789,3.7263,3.7339,3.7409,3.7166,3.7711,3.8181,3.8079,3.8063,3.8096,3.8253,3.7856,3.7609,3.7882,3.755,3.7308,3.7466,3.6176,3.5072,3.4449,3.5317,3.5473,3.4488,3.3601,3.3205,3.3392,3.1439,3.0551,3.1055,3.0574,2.995,2.9265,2.9286,2.9428,2.9689,2.911,2.9053,2.9414,2.8836,2.8512,2.8363,2.7542,2.7273,2.7401,2.7284,2.731,2.7437,2.7549,2.766,2.7764,2.7764,2.7705,2.76,3.3309,3.3309,3.3309,3.3309,3.3309,3.3309,3.3309,3.3309,3.3309,3.3309,3.3309,3.3309,3.3309,3.3814,3.4446,3.5189,3.4668,3.4336,3.4431,3.4446,3.4478,3.4573,3.5745,3.644,3.6535,3.7164,3.751,3.751,3.751,3.7462,3.7338,3.7338,3.7291,3.7225,3.7225,3.7023,3.6662,3.6633,3.6633,3.6578,3.5589,3.5517,3.5964,3.5552,3.5469,3.5621,3.5551,3.5076,3.4571,3.5333,3.503,3.4341,3.4464,3.4497,3.4472,3.4472,3.4448,3.4497,3.4693,3.5116,3.5528,3.5626,3.6107,3.6562,3.6465,3.7388,3.7922,3.6691,3.6999,3.7302,3.675,3.6663,3.6912,3.7676,3.7222,3.7226,3.8613,3.8282,3.8164,3.8907,3.7785,3.6929,3.6859,3.6529,3.6238,3.6102,3.5323,3.4908,3.5071,3.3096,3.1768,3.126,3.1173,3.0479,2.914,2.9687,2.9982,3.0039,2.995,2.9766,2.9579,2.9366,2.8955,2.8393,2.8131,2.7817,2.7401,2.7376,2.7463,2.7575,2.76,2.7959,2.8457,2.8457,2.8109,2.76,3.3309,3.3309,3.3309,3.3309,3.3309,3.3309,3.3309,3.3309,3.3309,3.3309,3.3309,3.3309,3.3309,3.3561,3.3862,3.4194,3.3925,3.3735,3.3735,3.3735,3.3909,3.4273,3.4905,3.5616,3.6377,3.6342,3.6719,3.751,3.751,3.7275,3.6896,3.6896,3.6896,3.688,3.6642,3.6741,3.7069,3.664,3.6556,3.6653,3.6153,3.6385,3.6932,3.5918,3.5958,3.6356,3.5267,3.4726,3.457,3.5021,3.4947,3.4618,3.4691,3.4667,3.4618,3.4618,3.4546,3.4595,3.4988,3.5324,3.5518,3.5518,3.5945,3.6166,3.5456,3.6625,3.7736,3.7102,3.688,3.6848,3.6993,3.7009,3.7134,3.7524,3.7789,3.8202,3.8897,3.8857,3.8556,3.8128,3.7958,3.7535,3.6697,3.6832,3.697,3.697,3.587,3.5583,3.6466,3.3653,3.2257,3.2794,3.159,3.0632,3.0059,3.0265,3.0705,3.1323,3.0764,3.0469,3.0417,2.999,2.9678,2.9436,2.8914,2.8631,2.8482,2.8111,2.7962,2.7947,2.8092,2.8562,2.9127,2.8832,2.8512,2.8237]}]]